<?xml version="1.0" encoding="UTF-8" standalone="no" ?>
<gpx xmlns="http://www.topografix.com/GPX/1/1" xmlns:xsi="http://www.w3.org/2001/XMLSchema-instance" xsi:schemaLocation="http://www.topografix.com/GPX/1/1 http://www.topografix.com/GPX/1/1/gpx.xsd" version="1.1" creator="VisuGPX - https://www.visugpx.com">
  <metadata>
    <name>Sortie VTT depuis Les Villettes</name>
    <desc><![CDATA[Depuis les Villettes vers la Dunière à proximité du pont de la Vache et retour par Saint Pal-de-mons]]></desc>
  </metadata>
  <trk>
    <name><![CDATA[VTT 06-11-2011]]></name>
    <trkseg>
      <trkpt lat="45.23421" lon="4.18376">
        <ele>771.11</ele>
        <time>2011-11-06T08:11:05Z</time>
      </trkpt>
      <trkpt lat="45.23439" lon="4.18378">
        <ele>749.49</ele>
        <time>2011-11-06T08:12:07Z</time>
      </trkpt>
      <trkpt lat="45.23431" lon="4.18389">
        <ele>752.37</ele>
        <time>2011-11-06T08:12:14Z</time>
      </trkpt>
      <trkpt lat="45.23417" lon="4.18416">
        <ele>757.18</ele>
        <time>2011-11-06T08:12:27Z</time>
      </trkpt>
      <trkpt lat="45.23418" lon="4.18427">
        <ele>756.69</ele>
        <time>2011-11-06T08:12:31Z</time>
      </trkpt>
      <trkpt lat="45.23426" lon="4.18466">
        <ele>753.81</ele>
        <time>2011-11-06T08:12:47Z</time>
      </trkpt>
      <trkpt lat="45.23433" lon="4.18486">
        <ele>751.41</ele>
        <time>2011-11-06T08:12:55Z</time>
      </trkpt>
      <trkpt lat="45.23442" lon="4.18503">
        <ele>750.93</ele>
        <time>2011-11-06T08:13:02Z</time>
      </trkpt>
      <trkpt lat="45.23463" lon="4.18551">
        <ele>756.21</ele>
        <time>2011-11-06T08:13:20Z</time>
      </trkpt>
      <trkpt lat="45.23466" lon="4.18554">
        <ele>756.69</ele>
        <time>2011-11-06T08:13:22Z</time>
      </trkpt>
      <trkpt lat="45.23482" lon="4.18584">
        <ele>755.25</ele>
        <time>2011-11-06T08:13:33Z</time>
      </trkpt>
      <trkpt lat="45.23505" lon="4.1863">
        <ele>757.18</ele>
        <time>2011-11-06T08:13:50Z</time>
      </trkpt>
      <trkpt lat="45.2351" lon="4.18639">
        <ele>760.06</ele>
        <time>2011-11-06T08:13:54Z</time>
      </trkpt>
      <trkpt lat="45.2352" lon="4.18638">
        <ele>762.46</ele>
        <time>2011-11-06T08:13:59Z</time>
      </trkpt>
      <trkpt lat="45.23548" lon="4.18657">
        <ele>767.75</ele>
        <time>2011-11-06T08:14:12Z</time>
      </trkpt>
      <trkpt lat="45.23587" lon="4.18661">
        <ele>772.56</ele>
        <time>2011-11-06T08:14:26Z</time>
      </trkpt>
      <trkpt lat="45.23623" lon="4.18644">
        <ele>774.48</ele>
        <time>2011-11-06T08:14:39Z</time>
      </trkpt>
      <trkpt lat="45.23634" lon="4.1864">
        <ele>774.48</ele>
        <time>2011-11-06T08:14:50Z</time>
      </trkpt>
      <trkpt lat="45.23658" lon="4.18613">
        <ele>775.92</ele>
        <time>2011-11-06T08:15:04Z</time>
      </trkpt>
      <trkpt lat="45.23668" lon="4.18611">
        <ele>775.92</ele>
        <time>2011-11-06T08:15:08Z</time>
      </trkpt>
      <trkpt lat="45.23683" lon="4.18638">
        <ele>775.44</ele>
        <time>2011-11-06T08:15:15Z</time>
      </trkpt>
      <trkpt lat="45.23694" lon="4.18674">
        <ele>774</ele>
        <time>2011-11-06T08:15:21Z</time>
      </trkpt>
      <trkpt lat="45.23695" lon="4.18681">
        <ele>773.52</ele>
        <time>2011-11-06T08:15:22Z</time>
      </trkpt>
      <trkpt lat="45.23698" lon="4.1874">
        <ele>771.11</ele>
        <time>2011-11-06T08:15:30Z</time>
      </trkpt>
      <trkpt lat="45.23702" lon="4.18758">
        <ele>770.63</ele>
        <time>2011-11-06T08:15:32Z</time>
      </trkpt>
      <trkpt lat="45.23705" lon="4.18766">
        <ele>770.15</ele>
        <time>2011-11-06T08:15:33Z</time>
      </trkpt>
      <trkpt lat="45.23709" lon="4.18775">
        <ele>770.15</ele>
        <time>2011-11-06T08:15:34Z</time>
      </trkpt>
      <trkpt lat="45.23714" lon="4.18782">
        <ele>769.67</ele>
        <time>2011-11-06T08:15:35Z</time>
      </trkpt>
      <trkpt lat="45.23719" lon="4.18789">
        <ele>769.67</ele>
        <time>2011-11-06T08:15:36Z</time>
      </trkpt>
      <trkpt lat="45.23781" lon="4.18888">
        <ele>766.79</ele>
        <time>2011-11-06T08:15:51Z</time>
      </trkpt>
      <trkpt lat="45.238" lon="4.18935">
        <ele>765.83</ele>
        <time>2011-11-06T08:15:58Z</time>
      </trkpt>
      <trkpt lat="45.238" lon="4.18942">
        <ele>765.35</ele>
        <time>2011-11-06T08:15:59Z</time>
      </trkpt>
      <trkpt lat="45.23798" lon="4.18948">
        <ele>765.35</ele>
        <time>2011-11-06T08:16:00Z</time>
      </trkpt>
      <trkpt lat="45.23763" lon="4.19032">
        <ele>763.9</ele>
        <time>2011-11-06T08:16:14Z</time>
      </trkpt>
      <trkpt lat="45.23762" lon="4.19038">
        <ele>763.9</ele>
        <time>2011-11-06T08:16:15Z</time>
      </trkpt>
      <trkpt lat="45.23761" lon="4.19119">
        <ele>763.42</ele>
        <time>2011-11-06T08:16:29Z</time>
      </trkpt>
      <trkpt lat="45.23754" lon="4.19183">
        <ele>763.42</ele>
        <time>2011-11-06T08:16:43Z</time>
      </trkpt>
      <trkpt lat="45.2374" lon="4.19228">
        <ele>768.23</ele>
        <time>2011-11-06T08:16:54Z</time>
      </trkpt>
      <trkpt lat="45.23729" lon="4.19294">
        <ele>774.48</ele>
        <time>2011-11-06T08:17:08Z</time>
      </trkpt>
      <trkpt lat="45.23678" lon="4.19349">
        <ele>776.88</ele>
        <time>2011-11-06T08:17:21Z</time>
      </trkpt>
      <trkpt lat="45.23663" lon="4.19373">
        <ele>777.36</ele>
        <time>2011-11-06T08:17:26Z</time>
      </trkpt>
      <trkpt lat="45.23661" lon="4.19381">
        <ele>778.81</ele>
        <time>2011-11-06T08:17:27Z</time>
      </trkpt>
      <trkpt lat="45.23659" lon="4.19389">
        <ele>779.77</ele>
        <time>2011-11-06T08:17:28Z</time>
      </trkpt>
      <trkpt lat="45.23654" lon="4.1941">
        <ele>781.69</ele>
        <time>2011-11-06T08:17:31Z</time>
      </trkpt>
      <trkpt lat="45.23637" lon="4.19465">
        <ele>780.25</ele>
        <time>2011-11-06T08:17:40Z</time>
      </trkpt>
      <trkpt lat="45.23634" lon="4.1947">
        <ele>780.25</ele>
        <time>2011-11-06T08:17:41Z</time>
      </trkpt>
      <trkpt lat="45.23616" lon="4.19547">
        <ele>782.65</ele>
        <time>2011-11-06T08:17:54Z</time>
      </trkpt>
      <trkpt lat="45.2361" lon="4.19622">
        <ele>785.53</ele>
        <time>2011-11-06T08:18:05Z</time>
      </trkpt>
      <trkpt lat="45.23609" lon="4.1963">
        <ele>786.02</ele>
        <time>2011-11-06T08:18:06Z</time>
      </trkpt>
      <trkpt lat="45.23606" lon="4.19727">
        <ele>786.02</ele>
        <time>2011-11-06T08:18:19Z</time>
      </trkpt>
      <trkpt lat="45.23606" lon="4.19734">
        <ele>785.53</ele>
        <time>2011-11-06T08:18:20Z</time>
      </trkpt>
      <trkpt lat="45.23604" lon="4.19748">
        <ele>785.53</ele>
        <time>2011-11-06T08:18:22Z</time>
      </trkpt>
      <trkpt lat="45.23602" lon="4.19754">
        <ele>785.05</ele>
        <time>2011-11-06T08:18:23Z</time>
      </trkpt>
      <trkpt lat="45.236" lon="4.1976">
        <ele>785.05</ele>
        <time>2011-11-06T08:18:24Z</time>
      </trkpt>
      <trkpt lat="45.23591" lon="4.19785">
        <ele>784.57</ele>
        <time>2011-11-06T08:18:28Z</time>
      </trkpt>
      <trkpt lat="45.23588" lon="4.1979">
        <ele>784.09</ele>
        <time>2011-11-06T08:18:29Z</time>
      </trkpt>
      <trkpt lat="45.23584" lon="4.19794">
        <ele>784.09</ele>
        <time>2011-11-06T08:18:30Z</time>
      </trkpt>
      <trkpt lat="45.2358" lon="4.19798">
        <ele>784.09</ele>
        <time>2011-11-06T08:18:31Z</time>
      </trkpt>
      <trkpt lat="45.23577" lon="4.19804">
        <ele>783.61</ele>
        <time>2011-11-06T08:18:32Z</time>
      </trkpt>
      <trkpt lat="45.23575" lon="4.19811">
        <ele>783.61</ele>
        <time>2011-11-06T08:18:33Z</time>
      </trkpt>
      <trkpt lat="45.23573" lon="4.19818">
        <ele>783.61</ele>
        <time>2011-11-06T08:18:34Z</time>
      </trkpt>
      <trkpt lat="45.23572" lon="4.19825">
        <ele>783.13</ele>
        <time>2011-11-06T08:18:35Z</time>
      </trkpt>
      <trkpt lat="45.23571" lon="4.19832">
        <ele>783.13</ele>
        <time>2011-11-06T08:18:36Z</time>
      </trkpt>
      <trkpt lat="45.2355" lon="4.19937">
        <ele>781.21</ele>
        <time>2011-11-06T08:18:51Z</time>
      </trkpt>
      <trkpt lat="45.23554" lon="4.20041">
        <ele>775.92</ele>
        <time>2011-11-06T08:19:04Z</time>
      </trkpt>
      <trkpt lat="45.23556" lon="4.2005">
        <ele>774.48</ele>
        <time>2011-11-06T08:19:05Z</time>
      </trkpt>
      <trkpt lat="45.23601" lon="4.20188">
        <ele>766.79</ele>
        <time>2011-11-06T08:19:20Z</time>
      </trkpt>
      <trkpt lat="45.23625" lon="4.20305">
        <ele>764.39</ele>
        <time>2011-11-06T08:19:32Z</time>
      </trkpt>
      <trkpt lat="45.23619" lon="4.20363">
        <ele>763.9</ele>
        <time>2011-11-06T08:19:38Z</time>
      </trkpt>
      <trkpt lat="45.23617" lon="4.20373">
        <ele>763.42</ele>
        <time>2011-11-06T08:19:39Z</time>
      </trkpt>
      <trkpt lat="45.23576" lon="4.20464">
        <ele>762.46</ele>
        <time>2011-11-06T08:19:51Z</time>
      </trkpt>
      <trkpt lat="45.23533" lon="4.20547">
        <ele>763.42</ele>
        <time>2011-11-06T08:20:06Z</time>
      </trkpt>
      <trkpt lat="45.23521" lon="4.20567">
        <ele>764.39</ele>
        <time>2011-11-06T08:20:10Z</time>
      </trkpt>
      <trkpt lat="45.23466" lon="4.20631">
        <ele>768.23</ele>
        <time>2011-11-06T08:20:25Z</time>
      </trkpt>
      <trkpt lat="45.23421" lon="4.20714">
        <ele>771.11</ele>
        <time>2011-11-06T08:20:38Z</time>
      </trkpt>
      <trkpt lat="45.2338" lon="4.20813">
        <ele>773.04</ele>
        <time>2011-11-06T08:20:49Z</time>
      </trkpt>
      <trkpt lat="45.23375" lon="4.20821">
        <ele>773.04</ele>
        <time>2011-11-06T08:20:50Z</time>
      </trkpt>
      <trkpt lat="45.2337" lon="4.20829">
        <ele>773.04</ele>
        <time>2011-11-06T08:20:51Z</time>
      </trkpt>
      <trkpt lat="45.23364" lon="4.20835">
        <ele>773.04</ele>
        <time>2011-11-06T08:20:52Z</time>
      </trkpt>
      <trkpt lat="45.23359" lon="4.20841">
        <ele>773.04</ele>
        <time>2011-11-06T08:20:53Z</time>
      </trkpt>
      <trkpt lat="45.23353" lon="4.20846">
        <ele>773.04</ele>
        <time>2011-11-06T08:20:54Z</time>
      </trkpt>
      <trkpt lat="45.2329" lon="4.20878">
        <ele>774.48</ele>
        <time>2011-11-06T08:21:06Z</time>
      </trkpt>
      <trkpt lat="45.23217" lon="4.20921">
        <ele>776.4</ele>
        <time>2011-11-06T08:21:21Z</time>
      </trkpt>
      <trkpt lat="45.23194" lon="4.20936">
        <ele>776.4</ele>
        <time>2011-11-06T08:21:27Z</time>
      </trkpt>
      <trkpt lat="45.2319" lon="4.20935">
        <ele>776.88</ele>
        <time>2011-11-06T08:21:28Z</time>
      </trkpt>
      <trkpt lat="45.23185" lon="4.20934">
        <ele>776.88</ele>
        <time>2011-11-06T08:21:29Z</time>
      </trkpt>
      <trkpt lat="45.23181" lon="4.20933">
        <ele>777.36</ele>
        <time>2011-11-06T08:21:30Z</time>
      </trkpt>
      <trkpt lat="45.23176" lon="4.20934">
        <ele>777.84</ele>
        <time>2011-11-06T08:21:31Z</time>
      </trkpt>
      <trkpt lat="45.23172" lon="4.20935">
        <ele>777.84</ele>
        <time>2011-11-06T08:21:32Z</time>
      </trkpt>
      <trkpt lat="45.23168" lon="4.20936">
        <ele>778.32</ele>
        <time>2011-11-06T08:21:33Z</time>
      </trkpt>
      <trkpt lat="45.23161" lon="4.20938">
        <ele>779.29</ele>
        <time>2011-11-06T08:21:35Z</time>
      </trkpt>
      <trkpt lat="45.23156" lon="4.20937">
        <ele>779.29</ele>
        <time>2011-11-06T08:21:36Z</time>
      </trkpt>
      <trkpt lat="45.23113" lon="4.20922">
        <ele>780.25</ele>
        <time>2011-11-06T08:21:47Z</time>
      </trkpt>
      <trkpt lat="45.23099" lon="4.20916">
        <ele>780.25</ele>
        <time>2011-11-06T08:21:50Z</time>
      </trkpt>
      <trkpt lat="45.23094" lon="4.20915">
        <ele>780.25</ele>
        <time>2011-11-06T08:21:51Z</time>
      </trkpt>
      <trkpt lat="45.23089" lon="4.20915">
        <ele>780.73</ele>
        <time>2011-11-06T08:21:52Z</time>
      </trkpt>
      <trkpt lat="45.23043" lon="4.2093">
        <ele>780.73</ele>
        <time>2011-11-06T08:22:02Z</time>
      </trkpt>
      <trkpt lat="45.23039" lon="4.20932">
        <ele>781.21</ele>
        <time>2011-11-06T08:22:03Z</time>
      </trkpt>
      <trkpt lat="45.23027" lon="4.20941">
        <ele>781.21</ele>
        <time>2011-11-06T08:22:06Z</time>
      </trkpt>
      <trkpt lat="45.23023" lon="4.20944">
        <ele>781.21</ele>
        <time>2011-11-06T08:22:07Z</time>
      </trkpt>
      <trkpt lat="45.2302" lon="4.20948">
        <ele>781.21</ele>
        <time>2011-11-06T08:22:08Z</time>
      </trkpt>
      <trkpt lat="45.23017" lon="4.20954">
        <ele>781.21</ele>
        <time>2011-11-06T08:22:09Z</time>
      </trkpt>
      <trkpt lat="45.23015" lon="4.20959">
        <ele>781.21</ele>
        <time>2011-11-06T08:22:10Z</time>
      </trkpt>
      <trkpt lat="45.23012" lon="4.20963">
        <ele>781.21</ele>
        <time>2011-11-06T08:22:11Z</time>
      </trkpt>
      <trkpt lat="45.23009" lon="4.20967">
        <ele>781.21</ele>
        <time>2011-11-06T08:22:12Z</time>
      </trkpt>
      <trkpt lat="45.22974" lon="4.21009">
        <ele>783.13</ele>
        <time>2011-11-06T08:22:25Z</time>
      </trkpt>
      <trkpt lat="45.22944" lon="4.21063">
        <ele>783.61</ele>
        <time>2011-11-06T08:22:39Z</time>
      </trkpt>
      <trkpt lat="45.22933" lon="4.21079">
        <ele>783.61</ele>
        <time>2011-11-06T08:22:43Z</time>
      </trkpt>
      <trkpt lat="45.22929" lon="4.21083">
        <ele>783.61</ele>
        <time>2011-11-06T08:22:44Z</time>
      </trkpt>
      <trkpt lat="45.22925" lon="4.21086">
        <ele>783.13</ele>
        <time>2011-11-06T08:22:45Z</time>
      </trkpt>
      <trkpt lat="45.2292" lon="4.21088">
        <ele>783.13</ele>
        <time>2011-11-06T08:22:46Z</time>
      </trkpt>
      <trkpt lat="45.22915" lon="4.21089">
        <ele>782.65</ele>
        <time>2011-11-06T08:22:47Z</time>
      </trkpt>
      <trkpt lat="45.22856" lon="4.21109">
        <ele>781.21</ele>
        <time>2011-11-06T08:22:59Z</time>
      </trkpt>
      <trkpt lat="45.22851" lon="4.2111">
        <ele>781.69</ele>
        <time>2011-11-06T08:23:00Z</time>
      </trkpt>
      <trkpt lat="45.22844" lon="4.21116">
        <ele>782.17</ele>
        <time>2011-11-06T08:23:02Z</time>
      </trkpt>
      <trkpt lat="45.2284" lon="4.21119">
        <ele>782.17</ele>
        <time>2011-11-06T08:23:03Z</time>
      </trkpt>
      <trkpt lat="45.22837" lon="4.21123">
        <ele>782.65</ele>
        <time>2011-11-06T08:23:04Z</time>
      </trkpt>
      <trkpt lat="45.22833" lon="4.21127">
        <ele>782.65</ele>
        <time>2011-11-06T08:23:05Z</time>
      </trkpt>
      <trkpt lat="45.2283" lon="4.2113">
        <ele>783.13</ele>
        <time>2011-11-06T08:23:06Z</time>
      </trkpt>
      <trkpt lat="45.22822" lon="4.21137">
        <ele>783.61</ele>
        <time>2011-11-06T08:23:08Z</time>
      </trkpt>
      <trkpt lat="45.22818" lon="4.21141">
        <ele>783.61</ele>
        <time>2011-11-06T08:23:09Z</time>
      </trkpt>
      <trkpt lat="45.22814" lon="4.21143">
        <ele>784.09</ele>
        <time>2011-11-06T08:23:10Z</time>
      </trkpt>
      <trkpt lat="45.22807" lon="4.21148">
        <ele>784.09</ele>
        <time>2011-11-06T08:23:12Z</time>
      </trkpt>
      <trkpt lat="45.22778" lon="4.2117">
        <ele>786.5</ele>
        <time>2011-11-06T08:23:20Z</time>
      </trkpt>
      <trkpt lat="45.22775" lon="4.21174">
        <ele>786.98</ele>
        <time>2011-11-06T08:23:21Z</time>
      </trkpt>
      <trkpt lat="45.22772" lon="4.21178">
        <ele>786.98</ele>
        <time>2011-11-06T08:23:22Z</time>
      </trkpt>
      <trkpt lat="45.2273" lon="4.21239">
        <ele>786.5</ele>
        <time>2011-11-06T08:23:36Z</time>
      </trkpt>
      <trkpt lat="45.22703" lon="4.21294">
        <ele>786.98</ele>
        <time>2011-11-06T08:23:48Z</time>
      </trkpt>
      <trkpt lat="45.22677" lon="4.21363">
        <ele>787.94</ele>
        <time>2011-11-06T08:24:03Z</time>
      </trkpt>
      <trkpt lat="45.22649" lon="4.21435">
        <ele>787.46</ele>
        <time>2011-11-06T08:24:18Z</time>
      </trkpt>
      <trkpt lat="45.22645" lon="4.21445">
        <ele>787.46</ele>
        <time>2011-11-06T08:24:20Z</time>
      </trkpt>
      <trkpt lat="45.22623" lon="4.2149">
        <ele>787.46</ele>
        <time>2011-11-06T08:24:29Z</time>
      </trkpt>
      <trkpt lat="45.22614" lon="4.215">
        <ele>787.46</ele>
        <time>2011-11-06T08:24:31Z</time>
      </trkpt>
      <trkpt lat="45.22548" lon="4.21565">
        <ele>786.5</ele>
        <time>2011-11-06T08:24:42Z</time>
      </trkpt>
      <trkpt lat="45.2253" lon="4.21581">
        <ele>786.5</ele>
        <time>2011-11-06T08:24:45Z</time>
      </trkpt>
      <trkpt lat="45.22523" lon="4.21585">
        <ele>786.02</ele>
        <time>2011-11-06T08:24:46Z</time>
      </trkpt>
      <trkpt lat="45.22517" lon="4.21588">
        <ele>786.02</ele>
        <time>2011-11-06T08:24:47Z</time>
      </trkpt>
      <trkpt lat="45.22505" lon="4.21597">
        <ele>786.02</ele>
        <time>2011-11-06T08:24:49Z</time>
      </trkpt>
      <trkpt lat="45.22474" lon="4.21638">
        <ele>785.05</ele>
        <time>2011-11-06T08:24:56Z</time>
      </trkpt>
      <trkpt lat="45.22471" lon="4.21644">
        <ele>784.57</ele>
        <time>2011-11-06T08:24:57Z</time>
      </trkpt>
      <trkpt lat="45.2247" lon="4.21651">
        <ele>784.57</ele>
        <time>2011-11-06T08:24:58Z</time>
      </trkpt>
      <trkpt lat="45.22466" lon="4.21679">
        <ele>783.61</ele>
        <time>2011-11-06T08:25:02Z</time>
      </trkpt>
      <trkpt lat="45.22465" lon="4.21686">
        <ele>783.13</ele>
        <time>2011-11-06T08:25:03Z</time>
      </trkpt>
      <trkpt lat="45.22464" lon="4.21693">
        <ele>782.65</ele>
        <time>2011-11-06T08:25:04Z</time>
      </trkpt>
      <trkpt lat="45.22463" lon="4.217">
        <ele>782.17</ele>
        <time>2011-11-06T08:25:05Z</time>
      </trkpt>
      <trkpt lat="45.22461" lon="4.21707">
        <ele>782.17</ele>
        <time>2011-11-06T08:25:06Z</time>
      </trkpt>
      <trkpt lat="45.22458" lon="4.21713">
        <ele>781.69</ele>
        <time>2011-11-06T08:25:07Z</time>
      </trkpt>
      <trkpt lat="45.22454" lon="4.21719">
        <ele>781.69</ele>
        <time>2011-11-06T08:25:08Z</time>
      </trkpt>
      <trkpt lat="45.2245" lon="4.21725">
        <ele>781.21</ele>
        <time>2011-11-06T08:25:09Z</time>
      </trkpt>
      <trkpt lat="45.2244" lon="4.21738">
        <ele>781.21</ele>
        <time>2011-11-06T08:25:11Z</time>
      </trkpt>
      <trkpt lat="45.22422" lon="4.21762">
        <ele>779.77</ele>
        <time>2011-11-06T08:25:15Z</time>
      </trkpt>
      <trkpt lat="45.22418" lon="4.21769">
        <ele>779.77</ele>
        <time>2011-11-06T08:25:16Z</time>
      </trkpt>
      <trkpt lat="45.22415" lon="4.21776">
        <ele>779.29</ele>
        <time>2011-11-06T08:25:17Z</time>
      </trkpt>
      <trkpt lat="45.22413" lon="4.21783">
        <ele>778.81</ele>
        <time>2011-11-06T08:25:18Z</time>
      </trkpt>
      <trkpt lat="45.2241" lon="4.2179">
        <ele>778.81</ele>
        <time>2011-11-06T08:25:19Z</time>
      </trkpt>
      <trkpt lat="45.22391" lon="4.21851">
        <ele>775.92</ele>
        <time>2011-11-06T08:25:28Z</time>
      </trkpt>
      <trkpt lat="45.22385" lon="4.21878">
        <ele>774.96</ele>
        <time>2011-11-06T08:25:32Z</time>
      </trkpt>
      <trkpt lat="45.22378" lon="4.21959">
        <ele>772.08</ele>
        <time>2011-11-06T08:25:42Z</time>
      </trkpt>
      <trkpt lat="45.22388" lon="4.22028">
        <ele>765.83</ele>
        <time>2011-11-06T08:25:49Z</time>
      </trkpt>
      <trkpt lat="45.22394" lon="4.22046">
        <ele>764.39</ele>
        <time>2011-11-06T08:25:51Z</time>
      </trkpt>
      <trkpt lat="45.22408" lon="4.22075">
        <ele>761.5</ele>
        <time>2011-11-06T08:25:55Z</time>
      </trkpt>
      <trkpt lat="45.2241" lon="4.22082">
        <ele>761.02</ele>
        <time>2011-11-06T08:25:56Z</time>
      </trkpt>
      <trkpt lat="45.22413" lon="4.221">
        <ele>760.06</ele>
        <time>2011-11-06T08:25:59Z</time>
      </trkpt>
      <trkpt lat="45.22413" lon="4.22106">
        <ele>759.58</ele>
        <time>2011-11-06T08:26:00Z</time>
      </trkpt>
      <trkpt lat="45.22412" lon="4.22111">
        <ele>759.1</ele>
        <time>2011-11-06T08:26:01Z</time>
      </trkpt>
      <trkpt lat="45.2241" lon="4.22115">
        <ele>759.1</ele>
        <time>2011-11-06T08:26:02Z</time>
      </trkpt>
      <trkpt lat="45.22408" lon="4.22117">
        <ele>758.62</ele>
        <time>2011-11-06T08:26:03Z</time>
      </trkpt>
      <trkpt lat="45.22405" lon="4.22118">
        <ele>758.62</ele>
        <time>2011-11-06T08:26:04Z</time>
      </trkpt>
      <trkpt lat="45.22401" lon="4.22118">
        <ele>758.14</ele>
        <time>2011-11-06T08:26:05Z</time>
      </trkpt>
      <trkpt lat="45.22395" lon="4.22116">
        <ele>757.66</ele>
        <time>2011-11-06T08:26:06Z</time>
      </trkpt>
      <trkpt lat="45.22389" lon="4.22113">
        <ele>757.18</ele>
        <time>2011-11-06T08:26:07Z</time>
      </trkpt>
      <trkpt lat="45.22383" lon="4.2211">
        <ele>757.18</ele>
        <time>2011-11-06T08:26:08Z</time>
      </trkpt>
      <trkpt lat="45.22377" lon="4.22107">
        <ele>756.69</ele>
        <time>2011-11-06T08:26:09Z</time>
      </trkpt>
      <trkpt lat="45.22341" lon="4.22077">
        <ele>755.73</ele>
        <time>2011-11-06T08:26:16Z</time>
      </trkpt>
      <trkpt lat="45.22336" lon="4.22074">
        <ele>755.73</ele>
        <time>2011-11-06T08:26:17Z</time>
      </trkpt>
      <trkpt lat="45.2233" lon="4.22072">
        <ele>755.25</ele>
        <time>2011-11-06T08:26:18Z</time>
      </trkpt>
      <trkpt lat="45.22315" lon="4.22069">
        <ele>754.77</ele>
        <time>2011-11-06T08:26:20Z</time>
      </trkpt>
      <trkpt lat="45.22306" lon="4.22068">
        <ele>754.29</ele>
        <time>2011-11-06T08:26:21Z</time>
      </trkpt>
      <trkpt lat="45.22297" lon="4.22068">
        <ele>754.29</ele>
        <time>2011-11-06T08:26:22Z</time>
      </trkpt>
      <trkpt lat="45.22266" lon="4.22076">
        <ele>754.29</ele>
        <time>2011-11-06T08:26:26Z</time>
      </trkpt>
      <trkpt lat="45.22259" lon="4.22082">
        <ele>754.29</ele>
        <time>2011-11-06T08:26:27Z</time>
      </trkpt>
      <trkpt lat="45.22185" lon="4.22158">
        <ele>755.73</ele>
        <time>2011-11-06T08:26:39Z</time>
      </trkpt>
      <trkpt lat="45.22176" lon="4.22166">
        <ele>755.73</ele>
        <time>2011-11-06T08:26:41Z</time>
      </trkpt>
      <trkpt lat="45.22171" lon="4.22169">
        <ele>756.21</ele>
        <time>2011-11-06T08:26:42Z</time>
      </trkpt>
      <trkpt lat="45.22167" lon="4.2217">
        <ele>756.21</ele>
        <time>2011-11-06T08:26:43Z</time>
      </trkpt>
      <trkpt lat="45.22162" lon="4.22171">
        <ele>756.21</ele>
        <time>2011-11-06T08:26:44Z</time>
      </trkpt>
      <trkpt lat="45.22157" lon="4.22171">
        <ele>756.69</ele>
        <time>2011-11-06T08:26:45Z</time>
      </trkpt>
      <trkpt lat="45.22141" lon="4.22174">
        <ele>757.18</ele>
        <time>2011-11-06T08:26:48Z</time>
      </trkpt>
      <trkpt lat="45.22137" lon="4.22176">
        <ele>757.66</ele>
        <time>2011-11-06T08:26:49Z</time>
      </trkpt>
      <trkpt lat="45.22133" lon="4.2218">
        <ele>757.66</ele>
        <time>2011-11-06T08:26:50Z</time>
      </trkpt>
      <trkpt lat="45.22132" lon="4.22186">
        <ele>758.14</ele>
        <time>2011-11-06T08:26:51Z</time>
      </trkpt>
      <trkpt lat="45.22133" lon="4.22192">
        <ele>758.14</ele>
        <time>2011-11-06T08:26:52Z</time>
      </trkpt>
      <trkpt lat="45.22134" lon="4.22197">
        <ele>758.14</ele>
        <time>2011-11-06T08:26:53Z</time>
      </trkpt>
      <trkpt lat="45.22135" lon="4.22201">
        <ele>758.62</ele>
        <time>2011-11-06T08:26:54Z</time>
      </trkpt>
      <trkpt lat="45.22136" lon="4.22205">
        <ele>758.62</ele>
        <time>2011-11-06T08:26:55Z</time>
      </trkpt>
      <trkpt lat="45.22137" lon="4.2221">
        <ele>758.62</ele>
        <time>2011-11-06T08:26:56Z</time>
      </trkpt>
      <trkpt lat="45.22139" lon="4.22217">
        <ele>758.62</ele>
        <time>2011-11-06T08:26:57Z</time>
      </trkpt>
      <trkpt lat="45.2214" lon="4.22224">
        <ele>757.66</ele>
        <time>2011-11-06T08:26:58Z</time>
      </trkpt>
      <trkpt lat="45.22143" lon="4.22243">
        <ele>756.69</ele>
        <time>2011-11-06T08:27:02Z</time>
      </trkpt>
      <trkpt lat="45.22142" lon="4.22246">
        <ele>756.69</ele>
        <time>2011-11-06T08:27:03Z</time>
      </trkpt>
      <trkpt lat="45.2214" lon="4.22249">
        <ele>756.69</ele>
        <time>2011-11-06T08:27:04Z</time>
      </trkpt>
      <trkpt lat="45.22138" lon="4.22252">
        <ele>757.18</ele>
        <time>2011-11-06T08:27:05Z</time>
      </trkpt>
      <trkpt lat="45.22136" lon="4.22255">
        <ele>757.18</ele>
        <time>2011-11-06T08:27:06Z</time>
      </trkpt>
      <trkpt lat="45.22114" lon="4.22287">
        <ele>762.46</ele>
        <time>2011-11-06T08:27:19Z</time>
      </trkpt>
      <trkpt lat="45.2211" lon="4.22334">
        <ele>767.75</ele>
        <time>2011-11-06T08:27:31Z</time>
      </trkpt>
      <trkpt lat="45.2209" lon="4.22373">
        <ele>771.11</ele>
        <time>2011-11-06T08:27:42Z</time>
      </trkpt>
      <trkpt lat="45.22065" lon="4.22427">
        <ele>774.48</ele>
        <time>2011-11-06T08:27:55Z</time>
      </trkpt>
      <trkpt lat="45.22064" lon="4.22431">
        <ele>774.96</ele>
        <time>2011-11-06T08:27:56Z</time>
      </trkpt>
      <trkpt lat="45.22065" lon="4.22437">
        <ele>774.48</ele>
        <time>2011-11-06T08:27:57Z</time>
      </trkpt>
      <trkpt lat="45.22067" lon="4.22473">
        <ele>775.44</ele>
        <time>2011-11-06T08:28:05Z</time>
      </trkpt>
      <trkpt lat="45.22066" lon="4.22476">
        <ele>775.92</ele>
        <time>2011-11-06T08:28:06Z</time>
      </trkpt>
      <trkpt lat="45.22065" lon="4.22479">
        <ele>775.92</ele>
        <time>2011-11-06T08:28:07Z</time>
      </trkpt>
      <trkpt lat="45.22064" lon="4.22482">
        <ele>776.4</ele>
        <time>2011-11-06T08:28:08Z</time>
      </trkpt>
      <trkpt lat="45.22063" lon="4.22484">
        <ele>776.4</ele>
        <time>2011-11-06T08:28:09Z</time>
      </trkpt>
      <trkpt lat="45.22037" lon="4.22518">
        <ele>782.65</ele>
        <time>2011-11-06T08:28:21Z</time>
      </trkpt>
      <trkpt lat="45.22014" lon="4.2255">
        <ele>786.98</ele>
        <time>2011-11-06T08:28:32Z</time>
      </trkpt>
      <trkpt lat="45.22011" lon="4.22598">
        <ele>788.42</ele>
        <time>2011-11-06T08:28:41Z</time>
      </trkpt>
      <trkpt lat="45.22058" lon="4.22638">
        <ele>776.4</ele>
        <time>2011-11-06T08:28:51Z</time>
      </trkpt>
      <trkpt lat="45.2208" lon="4.22641">
        <ele>775.44</ele>
        <time>2011-11-06T08:28:55Z</time>
      </trkpt>
      <trkpt lat="45.22085" lon="4.22645">
        <ele>775.44</ele>
        <time>2011-11-06T08:28:56Z</time>
      </trkpt>
      <trkpt lat="45.2209" lon="4.2265">
        <ele>775.44</ele>
        <time>2011-11-06T08:28:57Z</time>
      </trkpt>
      <trkpt lat="45.22094" lon="4.22654">
        <ele>775.44</ele>
        <time>2011-11-06T08:28:58Z</time>
      </trkpt>
      <trkpt lat="45.22097" lon="4.22658">
        <ele>775.44</ele>
        <time>2011-11-06T08:28:59Z</time>
      </trkpt>
      <trkpt lat="45.22099" lon="4.22662">
        <ele>775.44</ele>
        <time>2011-11-06T08:29:00Z</time>
      </trkpt>
      <trkpt lat="45.221" lon="4.22665">
        <ele>775.44</ele>
        <time>2011-11-06T08:29:01Z</time>
      </trkpt>
      <trkpt lat="45.221" lon="4.2267">
        <ele>775.44</ele>
        <time>2011-11-06T08:29:02Z</time>
      </trkpt>
      <trkpt lat="45.221" lon="4.22676">
        <ele>775.44</ele>
        <time>2011-11-06T08:29:03Z</time>
      </trkpt>
      <trkpt lat="45.22099" lon="4.22682">
        <ele>775.44</ele>
        <time>2011-11-06T08:29:04Z</time>
      </trkpt>
      <trkpt lat="45.22099" lon="4.22687">
        <ele>775.44</ele>
        <time>2011-11-06T08:29:05Z</time>
      </trkpt>
      <trkpt lat="45.22099" lon="4.22712">
        <ele>775.44</ele>
        <time>2011-11-06T08:29:09Z</time>
      </trkpt>
      <trkpt lat="45.221" lon="4.2272">
        <ele>775.44</ele>
        <time>2011-11-06T08:29:10Z</time>
      </trkpt>
      <trkpt lat="45.22101" lon="4.22728">
        <ele>775.92</ele>
        <time>2011-11-06T08:29:11Z</time>
      </trkpt>
      <trkpt lat="45.22102" lon="4.22738">
        <ele>775.44</ele>
        <time>2011-11-06T08:29:12Z</time>
      </trkpt>
      <trkpt lat="45.22102" lon="4.22748">
        <ele>775.44</ele>
        <time>2011-11-06T08:29:13Z</time>
      </trkpt>
      <trkpt lat="45.22105" lon="4.22783">
        <ele>775.44</ele>
        <time>2011-11-06T08:29:17Z</time>
      </trkpt>
      <trkpt lat="45.22106" lon="4.22789">
        <ele>775.44</ele>
        <time>2011-11-06T08:29:18Z</time>
      </trkpt>
      <trkpt lat="45.22106" lon="4.22796">
        <ele>775.44</ele>
        <time>2011-11-06T08:29:19Z</time>
      </trkpt>
      <trkpt lat="45.22109" lon="4.22807">
        <ele>775.44</ele>
        <time>2011-11-06T08:29:20Z</time>
      </trkpt>
      <trkpt lat="45.22111" lon="4.22813">
        <ele>774.96</ele>
        <time>2011-11-06T08:29:21Z</time>
      </trkpt>
      <trkpt lat="45.22118" lon="4.22833">
        <ele>772.08</ele>
        <time>2011-11-06T08:29:33Z</time>
      </trkpt>
      <trkpt lat="45.22119" lon="4.22835">
        <ele>771.6</ele>
        <time>2011-11-06T08:29:40Z</time>
      </trkpt>
      <trkpt lat="45.2212" lon="4.22836">
        <ele>771.6</ele>
        <time>2011-11-06T08:29:41Z</time>
      </trkpt>
      <trkpt lat="45.2214" lon="4.22859">
        <ele>769.67</ele>
        <time>2011-11-06T08:29:53Z</time>
      </trkpt>
      <trkpt lat="45.22165" lon="4.22881">
        <ele>768.71</ele>
        <time>2011-11-06T08:30:06Z</time>
      </trkpt>
      <trkpt lat="45.22193" lon="4.2288">
        <ele>766.31</ele>
        <time>2011-11-06T08:30:18Z</time>
      </trkpt>
      <trkpt lat="45.22213" lon="4.2287">
        <ele>767.27</ele>
        <time>2011-11-06T08:30:30Z</time>
      </trkpt>
      <trkpt lat="45.2224" lon="4.22852">
        <ele>770.15</ele>
        <time>2011-11-06T08:30:42Z</time>
      </trkpt>
      <trkpt lat="45.22255" lon="4.22841">
        <ele>774</ele>
        <time>2011-11-06T08:30:50Z</time>
      </trkpt>
      <trkpt lat="45.22256" lon="4.22839">
        <ele>774.48</ele>
        <time>2011-11-06T08:30:51Z</time>
      </trkpt>
      <trkpt lat="45.22258" lon="4.22839">
        <ele>774.96</ele>
        <time>2011-11-06T08:30:52Z</time>
      </trkpt>
      <trkpt lat="45.2226" lon="4.22838">
        <ele>774.96</ele>
        <time>2011-11-06T08:30:53Z</time>
      </trkpt>
      <trkpt lat="45.22262" lon="4.22838">
        <ele>775.44</ele>
        <time>2011-11-06T08:30:54Z</time>
      </trkpt>
      <trkpt lat="45.22296" lon="4.22825">
        <ele>779.29</ele>
        <time>2011-11-06T08:31:07Z</time>
      </trkpt>
      <trkpt lat="45.22329" lon="4.22797">
        <ele>778.32</ele>
        <time>2011-11-06T08:31:20Z</time>
      </trkpt>
      <trkpt lat="45.2236" lon="4.2278">
        <ele>776.88</ele>
        <time>2011-11-06T08:31:31Z</time>
      </trkpt>
      <trkpt lat="45.22361" lon="4.22776">
        <ele>776.88</ele>
        <time>2011-11-06T08:31:32Z</time>
      </trkpt>
      <trkpt lat="45.22375" lon="4.22727">
        <ele>773.52</ele>
        <time>2011-11-06T08:31:40Z</time>
      </trkpt>
      <trkpt lat="45.22377" lon="4.22721">
        <ele>773.52</ele>
        <time>2011-11-06T08:31:41Z</time>
      </trkpt>
      <trkpt lat="45.22392" lon="4.22703">
        <ele>771.6</ele>
        <time>2011-11-06T08:31:49Z</time>
      </trkpt>
      <trkpt lat="45.22396" lon="4.22705">
        <ele>771.6</ele>
        <time>2011-11-06T08:31:50Z</time>
      </trkpt>
      <trkpt lat="45.224" lon="4.22705">
        <ele>771.6</ele>
        <time>2011-11-06T08:31:51Z</time>
      </trkpt>
      <trkpt lat="45.22402" lon="4.22704">
        <ele>772.08</ele>
        <time>2011-11-06T08:31:52Z</time>
      </trkpt>
      <trkpt lat="45.22404" lon="4.22705">
        <ele>772.08</ele>
        <time>2011-11-06T08:31:53Z</time>
      </trkpt>
      <trkpt lat="45.22442" lon="4.22698">
        <ele>772.08</ele>
        <time>2011-11-06T08:32:06Z</time>
      </trkpt>
      <trkpt lat="45.22473" lon="4.22698">
        <ele>772.08</ele>
        <time>2011-11-06T08:32:16Z</time>
      </trkpt>
      <trkpt lat="45.22503" lon="4.22708">
        <ele>772.08</ele>
        <time>2011-11-06T08:32:27Z</time>
      </trkpt>
      <trkpt lat="45.22533" lon="4.22711">
        <ele>772.56</ele>
        <time>2011-11-06T08:32:39Z</time>
      </trkpt>
      <trkpt lat="45.22559" lon="4.22707">
        <ele>772.56</ele>
        <time>2011-11-06T08:32:45Z</time>
      </trkpt>
      <trkpt lat="45.22564" lon="4.22709">
        <ele>772.08</ele>
        <time>2011-11-06T08:32:46Z</time>
      </trkpt>
      <trkpt lat="45.22569" lon="4.22712">
        <ele>772.08</ele>
        <time>2011-11-06T08:32:47Z</time>
      </trkpt>
      <trkpt lat="45.22573" lon="4.22715">
        <ele>771.6</ele>
        <time>2011-11-06T08:32:48Z</time>
      </trkpt>
      <trkpt lat="45.22577" lon="4.22718">
        <ele>770.63</ele>
        <time>2011-11-06T08:32:49Z</time>
      </trkpt>
      <trkpt lat="45.22608" lon="4.2275">
        <ele>769.67</ele>
        <time>2011-11-06T08:33:00Z</time>
      </trkpt>
      <trkpt lat="45.22611" lon="4.22756">
        <ele>770.15</ele>
        <time>2011-11-06T08:33:02Z</time>
      </trkpt>
      <trkpt lat="45.22612" lon="4.22765">
        <ele>769.67</ele>
        <time>2011-11-06T08:33:05Z</time>
      </trkpt>
      <trkpt lat="45.22631" lon="4.22798">
        <ele>769.67</ele>
        <time>2011-11-06T08:33:17Z</time>
      </trkpt>
      <trkpt lat="45.22658" lon="4.22799">
        <ele>772.56</ele>
        <time>2011-11-06T08:33:28Z</time>
      </trkpt>
      <trkpt lat="45.22688" lon="4.22802">
        <ele>773.04</ele>
        <time>2011-11-06T08:33:40Z</time>
      </trkpt>
      <trkpt lat="45.22721" lon="4.22813">
        <ele>777.84</ele>
        <time>2011-11-06T08:33:54Z</time>
      </trkpt>
      <trkpt lat="45.22753" lon="4.22828">
        <ele>781.69</ele>
        <time>2011-11-06T08:34:06Z</time>
      </trkpt>
      <trkpt lat="45.22777" lon="4.22841">
        <ele>780.73</ele>
        <time>2011-11-06T08:34:15Z</time>
      </trkpt>
      <trkpt lat="45.22779" lon="4.22843">
        <ele>780.73</ele>
        <time>2011-11-06T08:34:16Z</time>
      </trkpt>
      <trkpt lat="45.22781" lon="4.22845">
        <ele>780.25</ele>
        <time>2011-11-06T08:34:17Z</time>
      </trkpt>
      <trkpt lat="45.22784" lon="4.22847">
        <ele>779.77</ele>
        <time>2011-11-06T08:34:18Z</time>
      </trkpt>
      <trkpt lat="45.22787" lon="4.22848">
        <ele>779.29</ele>
        <time>2011-11-06T08:34:19Z</time>
      </trkpt>
      <trkpt lat="45.2279" lon="4.2285">
        <ele>778.81</ele>
        <time>2011-11-06T08:34:20Z</time>
      </trkpt>
      <trkpt lat="45.22793" lon="4.22852">
        <ele>778.32</ele>
        <time>2011-11-06T08:34:21Z</time>
      </trkpt>
      <trkpt lat="45.22835" lon="4.22862">
        <ele>776.88</ele>
        <time>2011-11-06T08:34:33Z</time>
      </trkpt>
      <trkpt lat="45.22853" lon="4.2286">
        <ele>773.52</ele>
        <time>2011-11-06T08:34:38Z</time>
      </trkpt>
      <trkpt lat="45.22856" lon="4.22862">
        <ele>773.04</ele>
        <time>2011-11-06T08:34:39Z</time>
      </trkpt>
      <trkpt lat="45.22858" lon="4.22866">
        <ele>772.56</ele>
        <time>2011-11-06T08:34:40Z</time>
      </trkpt>
      <trkpt lat="45.22871" lon="4.22885">
        <ele>771.11</ele>
        <time>2011-11-06T08:34:44Z</time>
      </trkpt>
      <trkpt lat="45.22879" lon="4.229">
        <ele>770.15</ele>
        <time>2011-11-06T08:34:47Z</time>
      </trkpt>
      <trkpt lat="45.22881" lon="4.22905">
        <ele>770.15</ele>
        <time>2011-11-06T08:34:48Z</time>
      </trkpt>
      <trkpt lat="45.22882" lon="4.22911">
        <ele>769.67</ele>
        <time>2011-11-06T08:34:49Z</time>
      </trkpt>
      <trkpt lat="45.22882" lon="4.22917">
        <ele>769.67</ele>
        <time>2011-11-06T08:34:50Z</time>
      </trkpt>
      <trkpt lat="45.22882" lon="4.22923">
        <ele>769.19</ele>
        <time>2011-11-06T08:34:51Z</time>
      </trkpt>
      <trkpt lat="45.22882" lon="4.22928">
        <ele>769.19</ele>
        <time>2011-11-06T08:34:52Z</time>
      </trkpt>
      <trkpt lat="45.22881" lon="4.22934">
        <ele>768.71</ele>
        <time>2011-11-06T08:34:53Z</time>
      </trkpt>
      <trkpt lat="45.2288" lon="4.22968">
        <ele>766.79</ele>
        <time>2011-11-06T08:35:04Z</time>
      </trkpt>
      <trkpt lat="45.22879" lon="4.2297">
        <ele>766.31</ele>
        <time>2011-11-06T08:35:05Z</time>
      </trkpt>
      <trkpt lat="45.22874" lon="4.22981">
        <ele>765.83</ele>
        <time>2011-11-06T08:35:11Z</time>
      </trkpt>
      <trkpt lat="45.22873" lon="4.22982">
        <ele>765.83</ele>
        <time>2011-11-06T08:35:12Z</time>
      </trkpt>
      <trkpt lat="45.22871" lon="4.22983">
        <ele>765.35</ele>
        <time>2011-11-06T08:35:13Z</time>
      </trkpt>
      <trkpt lat="45.22869" lon="4.22985">
        <ele>765.35</ele>
        <time>2011-11-06T08:35:14Z</time>
      </trkpt>
      <trkpt lat="45.22867" lon="4.22986">
        <ele>764.87</ele>
        <time>2011-11-06T08:35:15Z</time>
      </trkpt>
      <trkpt lat="45.22865" lon="4.22988">
        <ele>764.87</ele>
        <time>2011-11-06T08:35:16Z</time>
      </trkpt>
      <trkpt lat="45.2285" lon="4.23018">
        <ele>763.9</ele>
        <time>2011-11-06T08:35:27Z</time>
      </trkpt>
      <trkpt lat="45.2283" lon="4.2305">
        <ele>767.27</ele>
        <time>2011-11-06T08:35:39Z</time>
      </trkpt>
      <trkpt lat="45.22828" lon="4.23052">
        <ele>767.75</ele>
        <time>2011-11-06T08:35:40Z</time>
      </trkpt>
      <trkpt lat="45.22797" lon="4.23075">
        <ele>774</ele>
        <time>2011-11-06T08:35:54Z</time>
      </trkpt>
      <trkpt lat="45.2277" lon="4.23111">
        <ele>779.77</ele>
        <time>2011-11-06T08:36:08Z</time>
      </trkpt>
      <trkpt lat="45.22733" lon="4.23148">
        <ele>781.69</ele>
        <time>2011-11-06T08:36:23Z</time>
      </trkpt>
      <trkpt lat="45.22714" lon="4.23172">
        <ele>782.65</ele>
        <time>2011-11-06T08:36:29Z</time>
      </trkpt>
      <trkpt lat="45.22712" lon="4.23179">
        <ele>782.17</ele>
        <time>2011-11-06T08:36:30Z</time>
      </trkpt>
      <trkpt lat="45.22712" lon="4.23186">
        <ele>782.17</ele>
        <time>2011-11-06T08:36:31Z</time>
      </trkpt>
      <trkpt lat="45.22713" lon="4.23192">
        <ele>782.17</ele>
        <time>2011-11-06T08:36:32Z</time>
      </trkpt>
      <trkpt lat="45.22715" lon="4.232">
        <ele>781.69</ele>
        <time>2011-11-06T08:36:33Z</time>
      </trkpt>
      <trkpt lat="45.22717" lon="4.23207">
        <ele>781.69</ele>
        <time>2011-11-06T08:36:34Z</time>
      </trkpt>
      <trkpt lat="45.22739" lon="4.23271">
        <ele>781.69</ele>
        <time>2011-11-06T08:36:46Z</time>
      </trkpt>
      <trkpt lat="45.2276" lon="4.23313">
        <ele>783.61</ele>
        <time>2011-11-06T08:36:58Z</time>
      </trkpt>
      <trkpt lat="45.22777" lon="4.23355">
        <ele>783.61</ele>
        <time>2011-11-06T08:37:08Z</time>
      </trkpt>
      <trkpt lat="45.2278" lon="4.23394">
        <ele>782.17</ele>
        <time>2011-11-06T08:37:17Z</time>
      </trkpt>
      <trkpt lat="45.22795" lon="4.23473">
        <ele>782.65</ele>
        <time>2011-11-06T08:37:31Z</time>
      </trkpt>
      <trkpt lat="45.22815" lon="4.23534">
        <ele>783.61</ele>
        <time>2011-11-06T08:37:42Z</time>
      </trkpt>
      <trkpt lat="45.22821" lon="4.23544">
        <ele>783.61</ele>
        <time>2011-11-06T08:37:44Z</time>
      </trkpt>
      <trkpt lat="45.22824" lon="4.23549">
        <ele>783.61</ele>
        <time>2011-11-06T08:37:45Z</time>
      </trkpt>
      <trkpt lat="45.22834" lon="4.23561">
        <ele>784.09</ele>
        <time>2011-11-06T08:37:48Z</time>
      </trkpt>
      <trkpt lat="45.22836" lon="4.23566">
        <ele>784.09</ele>
        <time>2011-11-06T08:37:49Z</time>
      </trkpt>
      <trkpt lat="45.22838" lon="4.23572">
        <ele>784.09</ele>
        <time>2011-11-06T08:37:50Z</time>
      </trkpt>
      <trkpt lat="45.22838" lon="4.23577">
        <ele>783.61</ele>
        <time>2011-11-06T08:37:51Z</time>
      </trkpt>
      <trkpt lat="45.22837" lon="4.23583">
        <ele>783.61</ele>
        <time>2011-11-06T08:37:52Z</time>
      </trkpt>
      <trkpt lat="45.22837" lon="4.2359">
        <ele>783.61</ele>
        <time>2011-11-06T08:37:53Z</time>
      </trkpt>
      <trkpt lat="45.2284" lon="4.23639">
        <ele>782.17</ele>
        <time>2011-11-06T08:38:04Z</time>
      </trkpt>
      <trkpt lat="45.22844" lon="4.23672">
        <ele>781.69</ele>
        <time>2011-11-06T08:38:13Z</time>
      </trkpt>
      <trkpt lat="45.22843" lon="4.23674">
        <ele>781.69</ele>
        <time>2011-11-06T08:38:14Z</time>
      </trkpt>
      <trkpt lat="45.22842" lon="4.23676">
        <ele>781.21</ele>
        <time>2011-11-06T08:38:15Z</time>
      </trkpt>
      <trkpt lat="45.22841" lon="4.23677">
        <ele>781.21</ele>
        <time>2011-11-06T08:38:16Z</time>
      </trkpt>
      <trkpt lat="45.22841" lon="4.23679">
        <ele>781.21</ele>
        <time>2011-11-06T08:38:17Z</time>
      </trkpt>
      <trkpt lat="45.22841" lon="4.23682">
        <ele>781.21</ele>
        <time>2011-11-06T08:38:18Z</time>
      </trkpt>
      <trkpt lat="45.22843" lon="4.23686">
        <ele>781.69</ele>
        <time>2011-11-06T08:38:19Z</time>
      </trkpt>
      <trkpt lat="45.22846" lon="4.23688">
        <ele>781.21</ele>
        <time>2011-11-06T08:38:20Z</time>
      </trkpt>
      <trkpt lat="45.22847" lon="4.23687">
        <ele>781.21</ele>
        <time>2011-11-06T08:38:21Z</time>
      </trkpt>
      <trkpt lat="45.22848" lon="4.23685">
        <ele>781.21</ele>
        <time>2011-11-06T08:38:22Z</time>
      </trkpt>
      <trkpt lat="45.22848" lon="4.23683">
        <ele>781.21</ele>
        <time>2011-11-06T08:38:23Z</time>
      </trkpt>
      <trkpt lat="45.22848" lon="4.2368">
        <ele>781.21</ele>
        <time>2011-11-06T08:38:24Z</time>
      </trkpt>
      <trkpt lat="45.22848" lon="4.23677">
        <ele>781.69</ele>
        <time>2011-11-06T08:38:25Z</time>
      </trkpt>
      <trkpt lat="45.22848" lon="4.23674">
        <ele>781.69</ele>
        <time>2011-11-06T08:38:26Z</time>
      </trkpt>
      <trkpt lat="45.22847" lon="4.23671">
        <ele>781.69</ele>
        <time>2011-11-06T08:38:27Z</time>
      </trkpt>
      <trkpt lat="45.22847" lon="4.23667">
        <ele>781.69</ele>
        <time>2011-11-06T08:38:28Z</time>
      </trkpt>
      <trkpt lat="45.22847" lon="4.23664">
        <ele>782.17</ele>
        <time>2011-11-06T08:38:29Z</time>
      </trkpt>
      <trkpt lat="45.22846" lon="4.2363">
        <ele>784.09</ele>
        <time>2011-11-06T08:38:40Z</time>
      </trkpt>
      <trkpt lat="45.22841" lon="4.23614">
        <ele>785.05</ele>
        <time>2011-11-06T08:38:53Z</time>
      </trkpt>
      <trkpt lat="45.22841" lon="4.23617">
        <ele>785.53</ele>
        <time>2011-11-06T08:39:16Z</time>
      </trkpt>
      <trkpt lat="45.22842" lon="4.23619">
        <ele>785.53</ele>
        <time>2011-11-06T08:39:17Z</time>
      </trkpt>
      <trkpt lat="45.22842" lon="4.23622">
        <ele>786.02</ele>
        <time>2011-11-06T08:39:18Z</time>
      </trkpt>
      <trkpt lat="45.22843" lon="4.23626">
        <ele>786.02</ele>
        <time>2011-11-06T08:39:19Z</time>
      </trkpt>
      <trkpt lat="45.22843" lon="4.23631">
        <ele>786.02</ele>
        <time>2011-11-06T08:39:20Z</time>
      </trkpt>
      <trkpt lat="45.22843" lon="4.23635">
        <ele>786.5</ele>
        <time>2011-11-06T08:39:21Z</time>
      </trkpt>
      <trkpt lat="45.22845" lon="4.23658">
        <ele>786.98</ele>
        <time>2011-11-06T08:39:25Z</time>
      </trkpt>
      <trkpt lat="45.22848" lon="4.23708">
        <ele>788.42</ele>
        <time>2011-11-06T08:39:33Z</time>
      </trkpt>
      <trkpt lat="45.22847" lon="4.23714">
        <ele>788.9</ele>
        <time>2011-11-06T08:39:34Z</time>
      </trkpt>
      <trkpt lat="45.22846" lon="4.2372">
        <ele>788.9</ele>
        <time>2011-11-06T08:39:35Z</time>
      </trkpt>
      <trkpt lat="45.22831" lon="4.23774">
        <ele>788.9</ele>
        <time>2011-11-06T08:39:44Z</time>
      </trkpt>
      <trkpt lat="45.22825" lon="4.23782">
        <ele>788.42</ele>
        <time>2011-11-06T08:39:46Z</time>
      </trkpt>
      <trkpt lat="45.22792" lon="4.23817">
        <ele>788.42</ele>
        <time>2011-11-06T08:39:58Z</time>
      </trkpt>
      <trkpt lat="45.2279" lon="4.23823">
        <ele>788.42</ele>
        <time>2011-11-06T08:39:59Z</time>
      </trkpt>
      <trkpt lat="45.22789" lon="4.23829">
        <ele>788.42</ele>
        <time>2011-11-06T08:40:00Z</time>
      </trkpt>
      <trkpt lat="45.22788" lon="4.23836">
        <ele>788.42</ele>
        <time>2011-11-06T08:40:01Z</time>
      </trkpt>
      <trkpt lat="45.22788" lon="4.23844">
        <ele>788.42</ele>
        <time>2011-11-06T08:40:02Z</time>
      </trkpt>
      <trkpt lat="45.22788" lon="4.23852">
        <ele>788.42</ele>
        <time>2011-11-06T08:40:03Z</time>
      </trkpt>
      <trkpt lat="45.2279" lon="4.23878">
        <ele>788.42</ele>
        <time>2011-11-06T08:40:06Z</time>
      </trkpt>
      <trkpt lat="45.22804" lon="4.23955">
        <ele>783.61</ele>
        <time>2011-11-06T08:40:14Z</time>
      </trkpt>
      <trkpt lat="45.2281" lon="4.23965">
        <ele>782.17</ele>
        <time>2011-11-06T08:40:15Z</time>
      </trkpt>
      <trkpt lat="45.22817" lon="4.23974">
        <ele>780.25</ele>
        <time>2011-11-06T08:40:16Z</time>
      </trkpt>
      <trkpt lat="45.22824" lon="4.23982">
        <ele>779.29</ele>
        <time>2011-11-06T08:40:17Z</time>
      </trkpt>
      <trkpt lat="45.22832" lon="4.23992">
        <ele>778.32</ele>
        <time>2011-11-06T08:40:18Z</time>
      </trkpt>
      <trkpt lat="45.22838" lon="4.24002">
        <ele>777.36</ele>
        <time>2011-11-06T08:40:19Z</time>
      </trkpt>
      <trkpt lat="45.22843" lon="4.24012">
        <ele>776.4</ele>
        <time>2011-11-06T08:40:20Z</time>
      </trkpt>
      <trkpt lat="45.22846" lon="4.24023">
        <ele>775.44</ele>
        <time>2011-11-06T08:40:21Z</time>
      </trkpt>
      <trkpt lat="45.22849" lon="4.24033">
        <ele>774.96</ele>
        <time>2011-11-06T08:40:22Z</time>
      </trkpt>
      <trkpt lat="45.22849" lon="4.24042">
        <ele>774</ele>
        <time>2011-11-06T08:40:23Z</time>
      </trkpt>
      <trkpt lat="45.2285" lon="4.24051">
        <ele>773.52</ele>
        <time>2011-11-06T08:40:24Z</time>
      </trkpt>
      <trkpt lat="45.22847" lon="4.24066">
        <ele>772.08</ele>
        <time>2011-11-06T08:40:26Z</time>
      </trkpt>
      <trkpt lat="45.22845" lon="4.24073">
        <ele>771.6</ele>
        <time>2011-11-06T08:40:27Z</time>
      </trkpt>
      <trkpt lat="45.2284" lon="4.24114">
        <ele>772.56</ele>
        <time>2011-11-06T08:40:36Z</time>
      </trkpt>
      <trkpt lat="45.22828" lon="4.24154">
        <ele>773.04</ele>
        <time>2011-11-06T08:40:47Z</time>
      </trkpt>
      <trkpt lat="45.22824" lon="4.24164">
        <ele>773.52</ele>
        <time>2011-11-06T08:40:50Z</time>
      </trkpt>
      <trkpt lat="45.22823" lon="4.24167">
        <ele>773.52</ele>
        <time>2011-11-06T08:40:51Z</time>
      </trkpt>
      <trkpt lat="45.22823" lon="4.2417">
        <ele>773.52</ele>
        <time>2011-11-06T08:40:52Z</time>
      </trkpt>
      <trkpt lat="45.22821" lon="4.24174">
        <ele>773.52</ele>
        <time>2011-11-06T08:40:53Z</time>
      </trkpt>
      <trkpt lat="45.22821" lon="4.2418">
        <ele>774</ele>
        <time>2011-11-06T08:40:54Z</time>
      </trkpt>
      <trkpt lat="45.22821" lon="4.24186">
        <ele>774</ele>
        <time>2011-11-06T08:40:55Z</time>
      </trkpt>
      <trkpt lat="45.2282" lon="4.24193">
        <ele>774.48</ele>
        <time>2011-11-06T08:40:56Z</time>
      </trkpt>
      <trkpt lat="45.22817" lon="4.24215">
        <ele>774.96</ele>
        <time>2011-11-06T08:41:01Z</time>
      </trkpt>
      <trkpt lat="45.2282" lon="4.24226">
        <ele>775.44</ele>
        <time>2011-11-06T08:41:02Z</time>
      </trkpt>
      <trkpt lat="45.22821" lon="4.24233">
        <ele>775.44</ele>
        <time>2011-11-06T08:41:03Z</time>
      </trkpt>
      <trkpt lat="45.22822" lon="4.24238">
        <ele>774.96</ele>
        <time>2011-11-06T08:41:04Z</time>
      </trkpt>
      <trkpt lat="45.22824" lon="4.24244">
        <ele>774</ele>
        <time>2011-11-06T08:41:05Z</time>
      </trkpt>
      <trkpt lat="45.22825" lon="4.2425">
        <ele>773.52</ele>
        <time>2011-11-06T08:41:06Z</time>
      </trkpt>
      <trkpt lat="45.2283" lon="4.24274">
        <ele>771.6</ele>
        <time>2011-11-06T08:41:10Z</time>
      </trkpt>
      <trkpt lat="45.22831" lon="4.2428">
        <ele>771.6</ele>
        <time>2011-11-06T08:41:11Z</time>
      </trkpt>
      <trkpt lat="45.22833" lon="4.24286">
        <ele>771.11</ele>
        <time>2011-11-06T08:41:12Z</time>
      </trkpt>
      <trkpt lat="45.22836" lon="4.2429">
        <ele>771.11</ele>
        <time>2011-11-06T08:41:13Z</time>
      </trkpt>
      <trkpt lat="45.2284" lon="4.24293">
        <ele>771.11</ele>
        <time>2011-11-06T08:41:14Z</time>
      </trkpt>
      <trkpt lat="45.22844" lon="4.24294">
        <ele>771.6</ele>
        <time>2011-11-06T08:41:15Z</time>
      </trkpt>
      <trkpt lat="45.22847" lon="4.24294">
        <ele>772.08</ele>
        <time>2011-11-06T08:41:16Z</time>
      </trkpt>
      <trkpt lat="45.22849" lon="4.24296">
        <ele>773.04</ele>
        <time>2011-11-06T08:41:17Z</time>
      </trkpt>
      <trkpt lat="45.2285" lon="4.24298">
        <ele>774</ele>
        <time>2011-11-06T08:41:18Z</time>
      </trkpt>
      <trkpt lat="45.2287" lon="4.24295">
        <ele>774.96</ele>
        <time>2011-11-06T08:41:28Z</time>
      </trkpt>
      <trkpt lat="45.22871" lon="4.24292">
        <ele>775.44</ele>
        <time>2011-11-06T08:41:29Z</time>
      </trkpt>
      <trkpt lat="45.22871" lon="4.2429">
        <ele>775.92</ele>
        <time>2011-11-06T08:41:30Z</time>
      </trkpt>
      <trkpt lat="45.22875" lon="4.24276">
        <ele>778.81</ele>
        <time>2011-11-06T08:41:36Z</time>
      </trkpt>
      <trkpt lat="45.22886" lon="4.24252">
        <ele>788.9</ele>
        <time>2011-11-06T08:41:49Z</time>
      </trkpt>
      <trkpt lat="45.22892" lon="4.24249">
        <ele>793.22</ele>
        <time>2011-11-06T08:41:54Z</time>
      </trkpt>
      <trkpt lat="45.22893" lon="4.24249">
        <ele>794.19</ele>
        <time>2011-11-06T08:41:55Z</time>
      </trkpt>
      <trkpt lat="45.22897" lon="4.24248">
        <ele>798.03</ele>
        <time>2011-11-06T08:42:00Z</time>
      </trkpt>
      <trkpt lat="45.22902" lon="4.24249">
        <ele>801.88</ele>
        <time>2011-11-06T08:42:04Z</time>
      </trkpt>
      <trkpt lat="45.22903" lon="4.24249">
        <ele>802.36</ele>
        <time>2011-11-06T08:42:05Z</time>
      </trkpt>
      <trkpt lat="45.22905" lon="4.24249">
        <ele>804.28</ele>
        <time>2011-11-06T08:42:07Z</time>
      </trkpt>
      <trkpt lat="45.2292" lon="4.24248">
        <ele>814.85</ele>
        <time>2011-11-06T08:42:19Z</time>
      </trkpt>
      <trkpt lat="45.22922" lon="4.24248">
        <ele>815.82</ele>
        <time>2011-11-06T08:42:20Z</time>
      </trkpt>
      <trkpt lat="45.22924" lon="4.24247">
        <ele>816.78</ele>
        <time>2011-11-06T08:42:21Z</time>
      </trkpt>
      <trkpt lat="45.22926" lon="4.24248">
        <ele>817.74</ele>
        <time>2011-11-06T08:42:22Z</time>
      </trkpt>
      <trkpt lat="45.22927" lon="4.24248">
        <ele>818.7</ele>
        <time>2011-11-06T08:42:23Z</time>
      </trkpt>
      <trkpt lat="45.22929" lon="4.24248">
        <ele>819.66</ele>
        <time>2011-11-06T08:42:24Z</time>
      </trkpt>
      <trkpt lat="45.22931" lon="4.24248">
        <ele>820.62</ele>
        <time>2011-11-06T08:42:25Z</time>
      </trkpt>
      <trkpt lat="45.22932" lon="4.24248">
        <ele>821.58</ele>
        <time>2011-11-06T08:42:26Z</time>
      </trkpt>
      <trkpt lat="45.22934" lon="4.24248">
        <ele>822.55</ele>
        <time>2011-11-06T08:42:27Z</time>
      </trkpt>
      <trkpt lat="45.22936" lon="4.24248">
        <ele>823.99</ele>
        <time>2011-11-06T08:42:28Z</time>
      </trkpt>
      <trkpt lat="45.22968" lon="4.24236">
        <ele>822.06</ele>
        <time>2011-11-06T08:42:38Z</time>
      </trkpt>
      <trkpt lat="45.23009" lon="4.24219">
        <ele>809.09</ele>
        <time>2011-11-06T08:42:47Z</time>
      </trkpt>
      <trkpt lat="45.23032" lon="4.24185">
        <ele>805.24</ele>
        <time>2011-11-06T08:42:56Z</time>
      </trkpt>
      <trkpt lat="45.23059" lon="4.24146">
        <ele>803.32</ele>
        <time>2011-11-06T08:43:08Z</time>
      </trkpt>
      <trkpt lat="45.23082" lon="4.24126">
        <ele>800.92</ele>
        <time>2011-11-06T08:43:15Z</time>
      </trkpt>
      <trkpt lat="45.23093" lon="4.24115">
        <ele>800.44</ele>
        <time>2011-11-06T08:43:18Z</time>
      </trkpt>
      <trkpt lat="45.23096" lon="4.2411">
        <ele>799.95</ele>
        <time>2011-11-06T08:43:19Z</time>
      </trkpt>
      <trkpt lat="45.23097" lon="4.24105">
        <ele>799.95</ele>
        <time>2011-11-06T08:43:20Z</time>
      </trkpt>
      <trkpt lat="45.23099" lon="4.24102">
        <ele>799.47</ele>
        <time>2011-11-06T08:43:21Z</time>
      </trkpt>
      <trkpt lat="45.23101" lon="4.24099">
        <ele>799.47</ele>
        <time>2011-11-06T08:43:22Z</time>
      </trkpt>
      <trkpt lat="45.23113" lon="4.24077">
        <ele>798.99</ele>
        <time>2011-11-06T08:43:29Z</time>
      </trkpt>
      <trkpt lat="45.23115" lon="4.24077">
        <ele>798.99</ele>
        <time>2011-11-06T08:43:30Z</time>
      </trkpt>
      <trkpt lat="45.23117" lon="4.24079">
        <ele>798.51</ele>
        <time>2011-11-06T08:43:31Z</time>
      </trkpt>
      <trkpt lat="45.23129" lon="4.24095">
        <ele>798.51</ele>
        <time>2011-11-06T08:43:35Z</time>
      </trkpt>
      <trkpt lat="45.23132" lon="4.24101">
        <ele>798.99</ele>
        <time>2011-11-06T08:43:36Z</time>
      </trkpt>
      <trkpt lat="45.23136" lon="4.24109">
        <ele>798.99</ele>
        <time>2011-11-06T08:43:37Z</time>
      </trkpt>
      <trkpt lat="45.23138" lon="4.24118">
        <ele>798.99</ele>
        <time>2011-11-06T08:43:38Z</time>
      </trkpt>
      <trkpt lat="45.2314" lon="4.24127">
        <ele>798.51</ele>
        <time>2011-11-06T08:43:39Z</time>
      </trkpt>
      <trkpt lat="45.23142" lon="4.24136">
        <ele>798.03</ele>
        <time>2011-11-06T08:43:40Z</time>
      </trkpt>
      <trkpt lat="45.23145" lon="4.24146">
        <ele>797.55</ele>
        <time>2011-11-06T08:43:41Z</time>
      </trkpt>
      <trkpt lat="45.23149" lon="4.24154">
        <ele>797.07</ele>
        <time>2011-11-06T08:43:42Z</time>
      </trkpt>
      <trkpt lat="45.23154" lon="4.24162">
        <ele>797.07</ele>
        <time>2011-11-06T08:43:43Z</time>
      </trkpt>
      <trkpt lat="45.2316" lon="4.24169">
        <ele>796.59</ele>
        <time>2011-11-06T08:43:44Z</time>
      </trkpt>
      <trkpt lat="45.23165" lon="4.24176">
        <ele>796.59</ele>
        <time>2011-11-06T08:43:45Z</time>
      </trkpt>
      <trkpt lat="45.23172" lon="4.24181">
        <ele>796.59</ele>
        <time>2011-11-06T08:43:46Z</time>
      </trkpt>
      <trkpt lat="45.23178" lon="4.24185">
        <ele>796.11</ele>
        <time>2011-11-06T08:43:47Z</time>
      </trkpt>
      <trkpt lat="45.23183" lon="4.24188">
        <ele>796.11</ele>
        <time>2011-11-06T08:43:48Z</time>
      </trkpt>
      <trkpt lat="45.23189" lon="4.24189">
        <ele>795.15</ele>
        <time>2011-11-06T08:43:49Z</time>
      </trkpt>
      <trkpt lat="45.23195" lon="4.2419">
        <ele>794.67</ele>
        <time>2011-11-06T08:43:50Z</time>
      </trkpt>
      <trkpt lat="45.23254" lon="4.24193">
        <ele>789.86</ele>
        <time>2011-11-06T08:44:00Z</time>
      </trkpt>
      <trkpt lat="45.2326" lon="4.24193">
        <ele>789.86</ele>
        <time>2011-11-06T08:44:01Z</time>
      </trkpt>
      <trkpt lat="45.23297" lon="4.24167">
        <ele>786.02</ele>
        <time>2011-11-06T08:44:10Z</time>
      </trkpt>
      <trkpt lat="45.23303" lon="4.24163">
        <ele>785.53</ele>
        <time>2011-11-06T08:44:11Z</time>
      </trkpt>
      <trkpt lat="45.23329" lon="4.24154">
        <ele>784.09</ele>
        <time>2011-11-06T08:44:15Z</time>
      </trkpt>
      <trkpt lat="45.23335" lon="4.24154">
        <ele>783.61</ele>
        <time>2011-11-06T08:44:16Z</time>
      </trkpt>
      <trkpt lat="45.23341" lon="4.24154">
        <ele>783.61</ele>
        <time>2011-11-06T08:44:17Z</time>
      </trkpt>
      <trkpt lat="45.23382" lon="4.24153">
        <ele>782.65</ele>
        <time>2011-11-06T08:44:25Z</time>
      </trkpt>
      <trkpt lat="45.23391" lon="4.24152">
        <ele>782.65</ele>
        <time>2011-11-06T08:44:27Z</time>
      </trkpt>
      <trkpt lat="45.23396" lon="4.24151">
        <ele>782.65</ele>
        <time>2011-11-06T08:44:28Z</time>
      </trkpt>
      <trkpt lat="45.23443" lon="4.24143">
        <ele>785.05</ele>
        <time>2011-11-06T08:44:41Z</time>
      </trkpt>
      <trkpt lat="45.23481" lon="4.24126">
        <ele>789.38</ele>
        <time>2011-11-06T08:44:53Z</time>
      </trkpt>
      <trkpt lat="45.23509" lon="4.24118">
        <ele>790.34</ele>
        <time>2011-11-06T08:45:00Z</time>
      </trkpt>
      <trkpt lat="45.23544" lon="4.24107">
        <ele>789.38</ele>
        <time>2011-11-06T08:45:09Z</time>
      </trkpt>
      <trkpt lat="45.23548" lon="4.24105">
        <ele>788.9</ele>
        <time>2011-11-06T08:45:10Z</time>
      </trkpt>
      <trkpt lat="45.23552" lon="4.24103">
        <ele>788.9</ele>
        <time>2011-11-06T08:45:11Z</time>
      </trkpt>
      <trkpt lat="45.23571" lon="4.24093">
        <ele>789.38</ele>
        <time>2011-11-06T08:45:16Z</time>
      </trkpt>
      <trkpt lat="45.23575" lon="4.24091">
        <ele>789.38</ele>
        <time>2011-11-06T08:45:17Z</time>
      </trkpt>
      <trkpt lat="45.23613" lon="4.24064">
        <ele>791.3</ele>
        <time>2011-11-06T08:45:29Z</time>
      </trkpt>
      <trkpt lat="45.23652" lon="4.24034">
        <ele>795.15</ele>
        <time>2011-11-06T08:45:41Z</time>
      </trkpt>
      <trkpt lat="45.23695" lon="4.24009">
        <ele>798.51</ele>
        <time>2011-11-06T08:45:54Z</time>
      </trkpt>
      <trkpt lat="45.23703" lon="4.24005">
        <ele>798.99</ele>
        <time>2011-11-06T08:45:57Z</time>
      </trkpt>
      <trkpt lat="45.23706" lon="4.24006">
        <ele>798.99</ele>
        <time>2011-11-06T08:45:58Z</time>
      </trkpt>
      <trkpt lat="45.23722" lon="4.24025">
        <ele>797.55</ele>
        <time>2011-11-06T08:46:05Z</time>
      </trkpt>
      <trkpt lat="45.23732" lon="4.24062">
        <ele>796.59</ele>
        <time>2011-11-06T08:46:10Z</time>
      </trkpt>
      <trkpt lat="45.23741" lon="4.24181">
        <ele>791.3</ele>
        <time>2011-11-06T08:46:23Z</time>
      </trkpt>
      <trkpt lat="45.23764" lon="4.24302">
        <ele>781.69</ele>
        <time>2011-11-06T08:46:33Z</time>
      </trkpt>
      <trkpt lat="45.23764" lon="4.24315">
        <ele>780.73</ele>
        <time>2011-11-06T08:46:34Z</time>
      </trkpt>
      <trkpt lat="45.23763" lon="4.24328">
        <ele>780.25</ele>
        <time>2011-11-06T08:46:35Z</time>
      </trkpt>
      <trkpt lat="45.23762" lon="4.24339">
        <ele>779.29</ele>
        <time>2011-11-06T08:46:36Z</time>
      </trkpt>
      <trkpt lat="45.23761" lon="4.24349">
        <ele>778.81</ele>
        <time>2011-11-06T08:46:37Z</time>
      </trkpt>
      <trkpt lat="45.23761" lon="4.24357">
        <ele>778.32</ele>
        <time>2011-11-06T08:46:38Z</time>
      </trkpt>
      <trkpt lat="45.23761" lon="4.24366">
        <ele>777.36</ele>
        <time>2011-11-06T08:46:39Z</time>
      </trkpt>
      <trkpt lat="45.23759" lon="4.24375">
        <ele>776.88</ele>
        <time>2011-11-06T08:46:40Z</time>
      </trkpt>
      <trkpt lat="45.23742" lon="4.24449">
        <ele>771.6</ele>
        <time>2011-11-06T08:46:47Z</time>
      </trkpt>
      <trkpt lat="45.23743" lon="4.24577">
        <ele>764.87</ele>
        <time>2011-11-06T08:46:58Z</time>
      </trkpt>
      <trkpt lat="45.23741" lon="4.24593">
        <ele>763.9</ele>
        <time>2011-11-06T08:47:00Z</time>
      </trkpt>
      <trkpt lat="45.23739" lon="4.24599">
        <ele>763.42</ele>
        <time>2011-11-06T08:47:01Z</time>
      </trkpt>
      <trkpt lat="45.23737" lon="4.24604">
        <ele>763.42</ele>
        <time>2011-11-06T08:47:02Z</time>
      </trkpt>
      <trkpt lat="45.23717" lon="4.24641">
        <ele>763.9</ele>
        <time>2011-11-06T08:47:14Z</time>
      </trkpt>
      <trkpt lat="45.23715" lon="4.24644">
        <ele>764.39</ele>
        <time>2011-11-06T08:47:15Z</time>
      </trkpt>
      <trkpt lat="45.23714" lon="4.24646">
        <ele>764.39</ele>
        <time>2011-11-06T08:47:16Z</time>
      </trkpt>
      <trkpt lat="45.23713" lon="4.24652">
        <ele>764.87</ele>
        <time>2011-11-06T08:47:18Z</time>
      </trkpt>
      <trkpt lat="45.23713" lon="4.24656">
        <ele>765.35</ele>
        <time>2011-11-06T08:47:19Z</time>
      </trkpt>
      <trkpt lat="45.23714" lon="4.24661">
        <ele>765.83</ele>
        <time>2011-11-06T08:47:20Z</time>
      </trkpt>
      <trkpt lat="45.23714" lon="4.24666">
        <ele>766.31</ele>
        <time>2011-11-06T08:47:21Z</time>
      </trkpt>
      <trkpt lat="45.23715" lon="4.2467">
        <ele>766.79</ele>
        <time>2011-11-06T08:47:22Z</time>
      </trkpt>
      <trkpt lat="45.23715" lon="4.24675">
        <ele>767.27</ele>
        <time>2011-11-06T08:47:23Z</time>
      </trkpt>
      <trkpt lat="45.23724" lon="4.24741">
        <ele>771.6</ele>
        <time>2011-11-06T08:47:38Z</time>
      </trkpt>
      <trkpt lat="45.23741" lon="4.24802">
        <ele>776.88</ele>
        <time>2011-11-06T08:47:53Z</time>
      </trkpt>
      <trkpt lat="45.23749" lon="4.24823">
        <ele>778.32</ele>
        <time>2011-11-06T08:47:59Z</time>
      </trkpt>
      <trkpt lat="45.23747" lon="4.24827">
        <ele>778.81</ele>
        <time>2011-11-06T08:48:00Z</time>
      </trkpt>
      <trkpt lat="45.23724" lon="4.24883">
        <ele>783.13</ele>
        <time>2011-11-06T08:48:15Z</time>
      </trkpt>
      <trkpt lat="45.23721" lon="4.24939">
        <ele>787.46</ele>
        <time>2011-11-06T08:48:28Z</time>
      </trkpt>
      <trkpt lat="45.2373" lon="4.24986">
        <ele>789.38</ele>
        <time>2011-11-06T08:48:39Z</time>
      </trkpt>
      <trkpt lat="45.23742" lon="4.25019">
        <ele>789.86</ele>
        <time>2011-11-06T08:48:48Z</time>
      </trkpt>
      <trkpt lat="45.23744" lon="4.25025">
        <ele>789.86</ele>
        <time>2011-11-06T08:48:49Z</time>
      </trkpt>
      <trkpt lat="45.23752" lon="4.25063">
        <ele>788.9</ele>
        <time>2011-11-06T08:48:54Z</time>
      </trkpt>
      <trkpt lat="45.23755" lon="4.25071">
        <ele>788.9</ele>
        <time>2011-11-06T08:48:55Z</time>
      </trkpt>
      <trkpt lat="45.23759" lon="4.2508">
        <ele>788.42</ele>
        <time>2011-11-06T08:48:56Z</time>
      </trkpt>
      <trkpt lat="45.23763" lon="4.25087">
        <ele>787.94</ele>
        <time>2011-11-06T08:48:57Z</time>
      </trkpt>
      <trkpt lat="45.23769" lon="4.25094">
        <ele>787.94</ele>
        <time>2011-11-06T08:48:58Z</time>
      </trkpt>
      <trkpt lat="45.23825" lon="4.25186">
        <ele>785.53</ele>
        <time>2011-11-06T08:49:12Z</time>
      </trkpt>
      <trkpt lat="45.23827" lon="4.25191">
        <ele>785.53</ele>
        <time>2011-11-06T08:49:13Z</time>
      </trkpt>
      <trkpt lat="45.23828" lon="4.25196">
        <ele>785.05</ele>
        <time>2011-11-06T08:49:14Z</time>
      </trkpt>
      <trkpt lat="45.2383" lon="4.25208">
        <ele>784.09</ele>
        <time>2011-11-06T08:49:16Z</time>
      </trkpt>
      <trkpt lat="45.23832" lon="4.25221">
        <ele>783.13</ele>
        <time>2011-11-06T08:49:18Z</time>
      </trkpt>
      <trkpt lat="45.23833" lon="4.2523">
        <ele>782.65</ele>
        <time>2011-11-06T08:49:19Z</time>
      </trkpt>
      <trkpt lat="45.23834" lon="4.25249">
        <ele>781.21</ele>
        <time>2011-11-06T08:49:21Z</time>
      </trkpt>
      <trkpt lat="45.23833" lon="4.25259">
        <ele>780.73</ele>
        <time>2011-11-06T08:49:22Z</time>
      </trkpt>
      <trkpt lat="45.2383" lon="4.25268">
        <ele>780.25</ele>
        <time>2011-11-06T08:49:23Z</time>
      </trkpt>
      <trkpt lat="45.23826" lon="4.25278">
        <ele>779.29</ele>
        <time>2011-11-06T08:49:24Z</time>
      </trkpt>
      <trkpt lat="45.23821" lon="4.25287">
        <ele>778.81</ele>
        <time>2011-11-06T08:49:25Z</time>
      </trkpt>
      <trkpt lat="45.23791" lon="4.25343">
        <ele>774.96</ele>
        <time>2011-11-06T08:49:31Z</time>
      </trkpt>
      <trkpt lat="45.23784" lon="4.2535">
        <ele>774.48</ele>
        <time>2011-11-06T08:49:32Z</time>
      </trkpt>
      <trkpt lat="45.23747" lon="4.2539">
        <ele>770.63</ele>
        <time>2011-11-06T08:49:38Z</time>
      </trkpt>
      <trkpt lat="45.23743" lon="4.25396">
        <ele>770.15</ele>
        <time>2011-11-06T08:49:39Z</time>
      </trkpt>
      <trkpt lat="45.23739" lon="4.25404">
        <ele>770.15</ele>
        <time>2011-11-06T08:49:40Z</time>
      </trkpt>
      <trkpt lat="45.23723" lon="4.25435">
        <ele>770.15</ele>
        <time>2011-11-06T08:49:44Z</time>
      </trkpt>
      <trkpt lat="45.23717" lon="4.2544">
        <ele>770.15</ele>
        <time>2011-11-06T08:49:45Z</time>
      </trkpt>
      <trkpt lat="45.2369" lon="4.25458">
        <ele>769.19</ele>
        <time>2011-11-06T08:49:49Z</time>
      </trkpt>
      <trkpt lat="45.23649" lon="4.25474">
        <ele>766.79</ele>
        <time>2011-11-06T08:49:54Z</time>
      </trkpt>
      <trkpt lat="45.23643" lon="4.25478">
        <ele>765.83</ele>
        <time>2011-11-06T08:49:55Z</time>
      </trkpt>
      <trkpt lat="45.23638" lon="4.25483">
        <ele>765.35</ele>
        <time>2011-11-06T08:49:56Z</time>
      </trkpt>
      <trkpt lat="45.23633" lon="4.2549">
        <ele>764.87</ele>
        <time>2011-11-06T08:49:57Z</time>
      </trkpt>
      <trkpt lat="45.23629" lon="4.25498">
        <ele>763.9</ele>
        <time>2011-11-06T08:49:58Z</time>
      </trkpt>
      <trkpt lat="45.23628" lon="4.25509">
        <ele>762.94</ele>
        <time>2011-11-06T08:49:59Z</time>
      </trkpt>
      <trkpt lat="45.23629" lon="4.2552">
        <ele>762.46</ele>
        <time>2011-11-06T08:50:00Z</time>
      </trkpt>
      <trkpt lat="45.23632" lon="4.25532">
        <ele>761.5</ele>
        <time>2011-11-06T08:50:01Z</time>
      </trkpt>
      <trkpt lat="45.23635" lon="4.25543">
        <ele>761.02</ele>
        <time>2011-11-06T08:50:02Z</time>
      </trkpt>
      <trkpt lat="45.23638" lon="4.25552">
        <ele>760.06</ele>
        <time>2011-11-06T08:50:03Z</time>
      </trkpt>
      <trkpt lat="45.23642" lon="4.25562">
        <ele>759.58</ele>
        <time>2011-11-06T08:50:04Z</time>
      </trkpt>
      <trkpt lat="45.23644" lon="4.25571">
        <ele>758.62</ele>
        <time>2011-11-06T08:50:05Z</time>
      </trkpt>
      <trkpt lat="45.23645" lon="4.25579">
        <ele>758.14</ele>
        <time>2011-11-06T08:50:06Z</time>
      </trkpt>
      <trkpt lat="45.23647" lon="4.25587">
        <ele>757.18</ele>
        <time>2011-11-06T08:50:07Z</time>
      </trkpt>
      <trkpt lat="45.23643" lon="4.25641">
        <ele>751.41</ele>
        <time>2011-11-06T08:50:18Z</time>
      </trkpt>
      <trkpt lat="45.23629" lon="4.25672">
        <ele>751.41</ele>
        <time>2011-11-06T08:50:31Z</time>
      </trkpt>
      <trkpt lat="45.23617" lon="4.25684">
        <ele>752.85</ele>
        <time>2011-11-06T08:50:43Z</time>
      </trkpt>
      <trkpt lat="45.2361" lon="4.2569">
        <ele>754.29</ele>
        <time>2011-11-06T08:50:56Z</time>
      </trkpt>
      <trkpt lat="45.23604" lon="4.25691">
        <ele>756.21</ele>
        <time>2011-11-06T08:51:02Z</time>
      </trkpt>
      <trkpt lat="45.236" lon="4.25689">
        <ele>757.18</ele>
        <time>2011-11-06T08:51:05Z</time>
      </trkpt>
      <trkpt lat="45.23599" lon="4.2569">
        <ele>757.18</ele>
        <time>2011-11-06T08:51:06Z</time>
      </trkpt>
      <trkpt lat="45.23597" lon="4.2569">
        <ele>757.18</ele>
        <time>2011-11-06T08:51:07Z</time>
      </trkpt>
      <trkpt lat="45.23594" lon="4.25689">
        <ele>757.18</ele>
        <time>2011-11-06T08:51:08Z</time>
      </trkpt>
      <trkpt lat="45.23592" lon="4.25688">
        <ele>757.18</ele>
        <time>2011-11-06T08:51:09Z</time>
      </trkpt>
      <trkpt lat="45.2355" lon="4.25684">
        <ele>756.21</ele>
        <time>2011-11-06T08:51:23Z</time>
      </trkpt>
      <trkpt lat="45.2353" lon="4.25689">
        <ele>757.18</ele>
        <time>2011-11-06T08:51:32Z</time>
      </trkpt>
      <trkpt lat="45.23528" lon="4.25688">
        <ele>757.66</ele>
        <time>2011-11-06T08:51:33Z</time>
      </trkpt>
      <trkpt lat="45.23516" lon="4.25685">
        <ele>760.06</ele>
        <time>2011-11-06T08:51:38Z</time>
      </trkpt>
      <trkpt lat="45.23515" lon="4.25683">
        <ele>760.54</ele>
        <time>2011-11-06T08:51:39Z</time>
      </trkpt>
      <trkpt lat="45.23513" lon="4.25681">
        <ele>761.02</ele>
        <time>2011-11-06T08:51:40Z</time>
      </trkpt>
      <trkpt lat="45.23511" lon="4.25679">
        <ele>761.98</ele>
        <time>2011-11-06T08:51:41Z</time>
      </trkpt>
      <trkpt lat="45.23509" lon="4.25678">
        <ele>762.46</ele>
        <time>2011-11-06T08:51:42Z</time>
      </trkpt>
      <trkpt lat="45.23507" lon="4.25678">
        <ele>762.94</ele>
        <time>2011-11-06T08:51:43Z</time>
      </trkpt>
      <trkpt lat="45.23505" lon="4.25678">
        <ele>763.42</ele>
        <time>2011-11-06T08:51:44Z</time>
      </trkpt>
      <trkpt lat="45.23503" lon="4.25679">
        <ele>763.42</ele>
        <time>2011-11-06T08:51:45Z</time>
      </trkpt>
      <trkpt lat="45.23502" lon="4.25679">
        <ele>763.9</ele>
        <time>2011-11-06T08:51:46Z</time>
      </trkpt>
      <trkpt lat="45.235" lon="4.25679">
        <ele>763.9</ele>
        <time>2011-11-06T08:51:47Z</time>
      </trkpt>
      <trkpt lat="45.23497" lon="4.25678">
        <ele>764.39</ele>
        <time>2011-11-06T08:51:48Z</time>
      </trkpt>
      <trkpt lat="45.23472" lon="4.25674">
        <ele>765.35</ele>
        <time>2011-11-06T08:52:02Z</time>
      </trkpt>
      <trkpt lat="45.23451" lon="4.25678">
        <ele>766.31</ele>
        <time>2011-11-06T08:52:14Z</time>
      </trkpt>
      <trkpt lat="45.23438" lon="4.25681">
        <ele>767.27</ele>
        <time>2011-11-06T08:52:21Z</time>
      </trkpt>
      <trkpt lat="45.23411" lon="4.25695">
        <ele>769.67</ele>
        <time>2011-11-06T08:52:35Z</time>
      </trkpt>
      <trkpt lat="45.23385" lon="4.25712">
        <ele>773.52</ele>
        <time>2011-11-06T08:52:48Z</time>
      </trkpt>
      <trkpt lat="45.23361" lon="4.25736">
        <ele>775.92</ele>
        <time>2011-11-06T08:53:02Z</time>
      </trkpt>
      <trkpt lat="45.2334" lon="4.25754">
        <ele>776.88</ele>
        <time>2011-11-06T08:53:14Z</time>
      </trkpt>
      <trkpt lat="45.23324" lon="4.25787">
        <ele>774.48</ele>
        <time>2011-11-06T08:53:28Z</time>
      </trkpt>
      <trkpt lat="45.2331" lon="4.25816">
        <ele>777.84</ele>
        <time>2011-11-06T08:53:41Z</time>
      </trkpt>
      <trkpt lat="45.23303" lon="4.25838">
        <ele>781.69</ele>
        <time>2011-11-06T08:53:51Z</time>
      </trkpt>
      <trkpt lat="45.23302" lon="4.2584">
        <ele>782.17</ele>
        <time>2011-11-06T08:53:52Z</time>
      </trkpt>
      <trkpt lat="45.233" lon="4.25844">
        <ele>783.13</ele>
        <time>2011-11-06T08:53:54Z</time>
      </trkpt>
      <trkpt lat="45.23298" lon="4.25845">
        <ele>783.61</ele>
        <time>2011-11-06T08:53:55Z</time>
      </trkpt>
      <trkpt lat="45.23297" lon="4.25847">
        <ele>784.09</ele>
        <time>2011-11-06T08:53:56Z</time>
      </trkpt>
      <trkpt lat="45.23296" lon="4.25849">
        <ele>784.57</ele>
        <time>2011-11-06T08:53:57Z</time>
      </trkpt>
      <trkpt lat="45.23295" lon="4.25867">
        <ele>782.65</ele>
        <time>2011-11-06T08:54:03Z</time>
      </trkpt>
      <trkpt lat="45.23296" lon="4.25874">
        <ele>782.17</ele>
        <time>2011-11-06T08:54:04Z</time>
      </trkpt>
      <trkpt lat="45.23297" lon="4.25878">
        <ele>782.17</ele>
        <time>2011-11-06T08:54:05Z</time>
      </trkpt>
      <trkpt lat="45.23298" lon="4.25881">
        <ele>782.17</ele>
        <time>2011-11-06T08:54:06Z</time>
      </trkpt>
      <trkpt lat="45.233" lon="4.25883">
        <ele>782.17</ele>
        <time>2011-11-06T08:54:07Z</time>
      </trkpt>
      <trkpt lat="45.23301" lon="4.25886">
        <ele>782.65</ele>
        <time>2011-11-06T08:54:08Z</time>
      </trkpt>
      <trkpt lat="45.23303" lon="4.25887">
        <ele>783.13</ele>
        <time>2011-11-06T08:54:09Z</time>
      </trkpt>
      <trkpt lat="45.23305" lon="4.25889">
        <ele>783.61</ele>
        <time>2011-11-06T08:54:10Z</time>
      </trkpt>
      <trkpt lat="45.23307" lon="4.25891">
        <ele>785.05</ele>
        <time>2011-11-06T08:54:13Z</time>
      </trkpt>
      <trkpt lat="45.23309" lon="4.25892">
        <ele>785.53</ele>
        <time>2011-11-06T08:54:14Z</time>
      </trkpt>
      <trkpt lat="45.2331" lon="4.25892">
        <ele>786.02</ele>
        <time>2011-11-06T08:54:15Z</time>
      </trkpt>
      <trkpt lat="45.23312" lon="4.25892">
        <ele>786.02</ele>
        <time>2011-11-06T08:54:16Z</time>
      </trkpt>
      <trkpt lat="45.23314" lon="4.25891">
        <ele>786.5</ele>
        <time>2011-11-06T08:54:17Z</time>
      </trkpt>
      <trkpt lat="45.23316" lon="4.25891">
        <ele>786.98</ele>
        <time>2011-11-06T08:54:18Z</time>
      </trkpt>
      <trkpt lat="45.23318" lon="4.2589">
        <ele>787.46</ele>
        <time>2011-11-06T08:54:19Z</time>
      </trkpt>
      <trkpt lat="45.2332" lon="4.2589">
        <ele>787.46</ele>
        <time>2011-11-06T08:54:20Z</time>
      </trkpt>
      <trkpt lat="45.23335" lon="4.25876">
        <ele>791.3</ele>
        <time>2011-11-06T08:54:30Z</time>
      </trkpt>
      <trkpt lat="45.23337" lon="4.25875">
        <ele>791.78</ele>
        <time>2011-11-06T08:54:31Z</time>
      </trkpt>
      <trkpt lat="45.23339" lon="4.25875">
        <ele>792.26</ele>
        <time>2011-11-06T08:54:32Z</time>
      </trkpt>
      <trkpt lat="45.2334" lon="4.25875">
        <ele>792.74</ele>
        <time>2011-11-06T08:54:33Z</time>
      </trkpt>
      <trkpt lat="45.23345" lon="4.25874">
        <ele>794.19</ele>
        <time>2011-11-06T08:54:36Z</time>
      </trkpt>
      <trkpt lat="45.23355" lon="4.25879">
        <ele>797.07</ele>
        <time>2011-11-06T08:54:42Z</time>
      </trkpt>
      <trkpt lat="45.23358" lon="4.2588">
        <ele>798.03</ele>
        <time>2011-11-06T08:54:44Z</time>
      </trkpt>
      <trkpt lat="45.23376" lon="4.2588">
        <ele>800.44</ele>
        <time>2011-11-06T08:54:55Z</time>
      </trkpt>
      <trkpt lat="45.23392" lon="4.25895">
        <ele>800.44</ele>
        <time>2011-11-06T08:55:07Z</time>
      </trkpt>
      <trkpt lat="45.23392" lon="4.25896">
        <ele>800.44</ele>
        <time>2011-11-06T08:55:08Z</time>
      </trkpt>
      <trkpt lat="45.23391" lon="4.25901">
        <ele>799.95</ele>
        <time>2011-11-06T08:55:11Z</time>
      </trkpt>
      <trkpt lat="45.23389" lon="4.25904">
        <ele>799.95</ele>
        <time>2011-11-06T08:55:13Z</time>
      </trkpt>
      <trkpt lat="45.23385" lon="4.25907">
        <ele>800.44</ele>
        <time>2011-11-06T08:55:15Z</time>
      </trkpt>
      <trkpt lat="45.23359" lon="4.25915">
        <ele>804.76</ele>
        <time>2011-11-06T08:55:26Z</time>
      </trkpt>
      <trkpt lat="45.23333" lon="4.25942">
        <ele>816.78</ele>
        <time>2011-11-06T08:55:39Z</time>
      </trkpt>
      <trkpt lat="45.23331" lon="4.25949">
        <ele>819.66</ele>
        <time>2011-11-06T08:55:41Z</time>
      </trkpt>
      <trkpt lat="45.23318" lon="4.25986">
        <ele>830.24</ele>
        <time>2011-11-06T08:55:55Z</time>
      </trkpt>
      <trkpt lat="45.23315" lon="4.26004">
        <ele>834.08</ele>
        <time>2011-11-06T08:56:02Z</time>
      </trkpt>
      <trkpt lat="45.23315" lon="4.26009">
        <ele>835.04</ele>
        <time>2011-11-06T08:56:05Z</time>
      </trkpt>
      <trkpt lat="45.2332" lon="4.26035">
        <ele>835.52</ele>
        <time>2011-11-06T08:56:14Z</time>
      </trkpt>
      <trkpt lat="45.23321" lon="4.26044">
        <ele>834.56</ele>
        <time>2011-11-06T08:56:17Z</time>
      </trkpt>
      <trkpt lat="45.23326" lon="4.26054">
        <ele>832.16</ele>
        <time>2011-11-06T08:56:19Z</time>
      </trkpt>
      <trkpt lat="45.23357" lon="4.26106">
        <ele>812.45</ele>
        <time>2011-11-06T08:56:28Z</time>
      </trkpt>
      <trkpt lat="45.23381" lon="4.26116">
        <ele>817.74</ele>
        <time>2011-11-06T08:56:44Z</time>
      </trkpt>
      <trkpt lat="45.2339" lon="4.26146">
        <ele>819.18</ele>
        <time>2011-11-06T08:56:58Z</time>
      </trkpt>
      <trkpt lat="45.23396" lon="4.26181">
        <ele>818.7</ele>
        <time>2011-11-06T08:57:11Z</time>
      </trkpt>
      <trkpt lat="45.23405" lon="4.2621">
        <ele>822.55</ele>
        <time>2011-11-06T08:57:24Z</time>
      </trkpt>
      <trkpt lat="45.23411" lon="4.26245">
        <ele>823.99</ele>
        <time>2011-11-06T08:57:36Z</time>
      </trkpt>
      <trkpt lat="45.23412" lon="4.26249">
        <ele>824.47</ele>
        <time>2011-11-06T08:57:38Z</time>
      </trkpt>
      <trkpt lat="45.2341" lon="4.26255">
        <ele>825.91</ele>
        <time>2011-11-06T08:57:42Z</time>
      </trkpt>
      <trkpt lat="45.23406" lon="4.26262">
        <ele>827.35</ele>
        <time>2011-11-06T08:57:46Z</time>
      </trkpt>
      <trkpt lat="45.23402" lon="4.26294">
        <ele>832.64</ele>
        <time>2011-11-06T08:57:58Z</time>
      </trkpt>
      <trkpt lat="45.23399" lon="4.26329">
        <ele>839.37</ele>
        <time>2011-11-06T08:58:10Z</time>
      </trkpt>
      <trkpt lat="45.23396" lon="4.26356">
        <ele>842.73</ele>
        <time>2011-11-06T08:58:18Z</time>
      </trkpt>
      <trkpt lat="45.23382" lon="4.26392">
        <ele>848.98</ele>
        <time>2011-11-06T08:58:32Z</time>
      </trkpt>
      <trkpt lat="45.23382" lon="4.26414">
        <ele>853.79</ele>
        <time>2011-11-06T08:58:39Z</time>
      </trkpt>
      <trkpt lat="45.23385" lon="4.26432">
        <ele>856.67</ele>
        <time>2011-11-06T08:58:43Z</time>
      </trkpt>
      <trkpt lat="45.23387" lon="4.2644">
        <ele>857.15</ele>
        <time>2011-11-06T08:58:44Z</time>
      </trkpt>
      <trkpt lat="45.23389" lon="4.26451">
        <ele>857.63</ele>
        <time>2011-11-06T08:58:45Z</time>
      </trkpt>
      <trkpt lat="45.23408" lon="4.26542">
        <ele>848.98</ele>
        <time>2011-11-06T08:58:51Z</time>
      </trkpt>
      <trkpt lat="45.23429" lon="4.26608">
        <ele>836.96</ele>
        <time>2011-11-06T08:59:00Z</time>
      </trkpt>
      <trkpt lat="45.23459" lon="4.26613">
        <ele>830.24</ele>
        <time>2011-11-06T08:59:09Z</time>
      </trkpt>
      <trkpt lat="45.23487" lon="4.2663">
        <ele>829.76</ele>
        <time>2011-11-06T08:59:19Z</time>
      </trkpt>
      <trkpt lat="45.23492" lon="4.26664">
        <ele>827.83</ele>
        <time>2011-11-06T08:59:28Z</time>
      </trkpt>
      <trkpt lat="45.2348" lon="4.26704">
        <ele>827.35</ele>
        <time>2011-11-06T08:59:40Z</time>
      </trkpt>
      <trkpt lat="45.23461" lon="4.26739">
        <ele>829.76</ele>
        <time>2011-11-06T08:59:53Z</time>
      </trkpt>
      <trkpt lat="45.23464" lon="4.26779">
        <ele>832.64</ele>
        <time>2011-11-06T09:00:04Z</time>
      </trkpt>
      <trkpt lat="45.23473" lon="4.26818">
        <ele>836.48</ele>
        <time>2011-11-06T09:00:15Z</time>
      </trkpt>
      <trkpt lat="45.23485" lon="4.26845">
        <ele>839.85</ele>
        <time>2011-11-06T09:00:22Z</time>
      </trkpt>
      <trkpt lat="45.23495" lon="4.2687">
        <ele>841.29</ele>
        <time>2011-11-06T09:00:26Z</time>
      </trkpt>
      <trkpt lat="45.23497" lon="4.26878">
        <ele>841.29</ele>
        <time>2011-11-06T09:00:27Z</time>
      </trkpt>
      <trkpt lat="45.23504" lon="4.2689">
        <ele>841.77</ele>
        <time>2011-11-06T09:00:29Z</time>
      </trkpt>
      <trkpt lat="45.23523" lon="4.26924">
        <ele>844.18</ele>
        <time>2011-11-06T09:00:35Z</time>
      </trkpt>
      <trkpt lat="45.23543" lon="4.26967">
        <ele>846.1</ele>
        <time>2011-11-06T09:00:45Z</time>
      </trkpt>
      <trkpt lat="45.23553" lon="4.27028">
        <ele>848.02</ele>
        <time>2011-11-06T09:00:54Z</time>
      </trkpt>
      <trkpt lat="45.23552" lon="4.27096">
        <ele>845.14</ele>
        <time>2011-11-06T09:01:01Z</time>
      </trkpt>
      <trkpt lat="45.2355" lon="4.27105">
        <ele>845.14</ele>
        <time>2011-11-06T09:01:02Z</time>
      </trkpt>
      <trkpt lat="45.23547" lon="4.27114">
        <ele>844.66</ele>
        <time>2011-11-06T09:01:03Z</time>
      </trkpt>
      <trkpt lat="45.23534" lon="4.27156">
        <ele>841.29</ele>
        <time>2011-11-06T09:01:09Z</time>
      </trkpt>
      <trkpt lat="45.23533" lon="4.27162">
        <ele>840.81</ele>
        <time>2011-11-06T09:01:10Z</time>
      </trkpt>
      <trkpt lat="45.23533" lon="4.27168">
        <ele>840.33</ele>
        <time>2011-11-06T09:01:11Z</time>
      </trkpt>
      <trkpt lat="45.23531" lon="4.27224">
        <ele>838.89</ele>
        <time>2011-11-06T09:01:22Z</time>
      </trkpt>
      <trkpt lat="45.23511" lon="4.27264">
        <ele>835.52</ele>
        <time>2011-11-06T09:01:32Z</time>
      </trkpt>
      <trkpt lat="45.23508" lon="4.27269">
        <ele>835.04</ele>
        <time>2011-11-06T09:01:33Z</time>
      </trkpt>
      <trkpt lat="45.23507" lon="4.27276">
        <ele>834.56</ele>
        <time>2011-11-06T09:01:34Z</time>
      </trkpt>
      <trkpt lat="45.23498" lon="4.27315">
        <ele>833.12</ele>
        <time>2011-11-06T09:01:39Z</time>
      </trkpt>
      <trkpt lat="45.23483" lon="4.27411">
        <ele>826.39</ele>
        <time>2011-11-06T09:01:53Z</time>
      </trkpt>
      <trkpt lat="45.23462" lon="4.27466">
        <ele>826.39</ele>
        <time>2011-11-06T09:02:06Z</time>
      </trkpt>
      <trkpt lat="45.23436" lon="4.2754">
        <ele>824.95</ele>
        <time>2011-11-06T09:02:22Z</time>
      </trkpt>
      <trkpt lat="45.23414" lon="4.27591">
        <ele>824.47</ele>
        <time>2011-11-06T09:02:34Z</time>
      </trkpt>
      <trkpt lat="45.23396" lon="4.27642">
        <ele>824.95</ele>
        <time>2011-11-06T09:02:46Z</time>
      </trkpt>
      <trkpt lat="45.23374" lon="4.27712">
        <ele>824.47</ele>
        <time>2011-11-06T09:03:01Z</time>
      </trkpt>
      <trkpt lat="45.23347" lon="4.27774">
        <ele>826.39</ele>
        <time>2011-11-06T09:03:16Z</time>
      </trkpt>
      <trkpt lat="45.23329" lon="4.27832">
        <ele>829.27</ele>
        <time>2011-11-06T09:03:29Z</time>
      </trkpt>
      <trkpt lat="45.23308" lon="4.27887">
        <ele>830.72</ele>
        <time>2011-11-06T09:03:44Z</time>
      </trkpt>
      <trkpt lat="45.23286" lon="4.27933">
        <ele>833.12</ele>
        <time>2011-11-06T09:03:56Z</time>
      </trkpt>
      <trkpt lat="45.23269" lon="4.27977">
        <ele>833.6</ele>
        <time>2011-11-06T09:04:07Z</time>
      </trkpt>
      <trkpt lat="45.23246" lon="4.28032">
        <ele>835.04</ele>
        <time>2011-11-06T09:04:21Z</time>
      </trkpt>
      <trkpt lat="45.23218" lon="4.28084">
        <ele>836.96</ele>
        <time>2011-11-06T09:04:35Z</time>
      </trkpt>
      <trkpt lat="45.23194" lon="4.28148">
        <ele>836.96</ele>
        <time>2011-11-06T09:04:50Z</time>
      </trkpt>
      <trkpt lat="45.23181" lon="4.28222">
        <ele>836</ele>
        <time>2011-11-06T09:05:04Z</time>
      </trkpt>
      <trkpt lat="45.23179" lon="4.28274">
        <ele>835.52</ele>
        <time>2011-11-06T09:05:14Z</time>
      </trkpt>
      <trkpt lat="45.23176" lon="4.2832">
        <ele>836</ele>
        <time>2011-11-06T09:05:24Z</time>
      </trkpt>
      <trkpt lat="45.23174" lon="4.28322">
        <ele>836</ele>
        <time>2011-11-06T09:05:25Z</time>
      </trkpt>
      <trkpt lat="45.23172" lon="4.28325">
        <ele>836</ele>
        <time>2011-11-06T09:05:26Z</time>
      </trkpt>
      <trkpt lat="45.23169" lon="4.28328">
        <ele>836.48</ele>
        <time>2011-11-06T09:05:27Z</time>
      </trkpt>
      <trkpt lat="45.23166" lon="4.28332">
        <ele>836.48</ele>
        <time>2011-11-06T09:05:28Z</time>
      </trkpt>
      <trkpt lat="45.23124" lon="4.28383">
        <ele>838.41</ele>
        <time>2011-11-06T09:05:43Z</time>
      </trkpt>
      <trkpt lat="45.23086" lon="4.28423">
        <ele>838.41</ele>
        <time>2011-11-06T09:05:57Z</time>
      </trkpt>
      <trkpt lat="45.23084" lon="4.2842">
        <ele>837.93</ele>
        <time>2011-11-06T09:05:58Z</time>
      </trkpt>
      <trkpt lat="45.23082" lon="4.28415">
        <ele>837.93</ele>
        <time>2011-11-06T09:05:59Z</time>
      </trkpt>
      <trkpt lat="45.23063" lon="4.28379">
        <ele>835.04</ele>
        <time>2011-11-06T09:06:07Z</time>
      </trkpt>
      <trkpt lat="45.23059" lon="4.28376">
        <ele>835.04</ele>
        <time>2011-11-06T09:06:08Z</time>
      </trkpt>
      <trkpt lat="45.23028" lon="4.28356">
        <ele>832.16</ele>
        <time>2011-11-06T09:06:16Z</time>
      </trkpt>
      <trkpt lat="45.23021" lon="4.28349">
        <ele>830.72</ele>
        <time>2011-11-06T09:06:18Z</time>
      </trkpt>
      <trkpt lat="45.23018" lon="4.28345">
        <ele>830.24</ele>
        <time>2011-11-06T09:06:19Z</time>
      </trkpt>
      <trkpt lat="45.22987" lon="4.28287">
        <ele>823.03</ele>
        <time>2011-11-06T09:06:31Z</time>
      </trkpt>
      <trkpt lat="45.22969" lon="4.28259">
        <ele>819.18</ele>
        <time>2011-11-06T09:06:38Z</time>
      </trkpt>
      <trkpt lat="45.22967" lon="4.28254">
        <ele>818.7</ele>
        <time>2011-11-06T09:06:39Z</time>
      </trkpt>
      <trkpt lat="45.22951" lon="4.28233">
        <ele>815.82</ele>
        <time>2011-11-06T09:06:44Z</time>
      </trkpt>
      <trkpt lat="45.22947" lon="4.28229">
        <ele>815.34</ele>
        <time>2011-11-06T09:06:45Z</time>
      </trkpt>
      <trkpt lat="45.22912" lon="4.28199">
        <ele>810.53</ele>
        <time>2011-11-06T09:06:52Z</time>
      </trkpt>
      <trkpt lat="45.22879" lon="4.28165">
        <ele>807.16</ele>
        <time>2011-11-06T09:07:00Z</time>
      </trkpt>
      <trkpt lat="45.22859" lon="4.28143">
        <ele>803.32</ele>
        <time>2011-11-06T09:07:06Z</time>
      </trkpt>
      <trkpt lat="45.22847" lon="4.28128">
        <ele>801.4</ele>
        <time>2011-11-06T09:07:09Z</time>
      </trkpt>
      <trkpt lat="45.22843" lon="4.28121">
        <ele>800.92</ele>
        <time>2011-11-06T09:07:10Z</time>
      </trkpt>
      <trkpt lat="45.22839" lon="4.28112">
        <ele>799.95</ele>
        <time>2011-11-06T09:07:11Z</time>
      </trkpt>
      <trkpt lat="45.22827" lon="4.2809">
        <ele>798.51</ele>
        <time>2011-11-06T09:07:14Z</time>
      </trkpt>
      <trkpt lat="45.22823" lon="4.28084">
        <ele>798.03</ele>
        <time>2011-11-06T09:07:15Z</time>
      </trkpt>
      <trkpt lat="45.22812" lon="4.28069">
        <ele>797.07</ele>
        <time>2011-11-06T09:07:18Z</time>
      </trkpt>
      <trkpt lat="45.22809" lon="4.28066">
        <ele>797.07</ele>
        <time>2011-11-06T09:07:19Z</time>
      </trkpt>
      <trkpt lat="45.22793" lon="4.28045">
        <ele>797.07</ele>
        <time>2011-11-06T09:07:30Z</time>
      </trkpt>
      <trkpt lat="45.22777" lon="4.28025">
        <ele>799.47</ele>
        <time>2011-11-06T09:07:43Z</time>
      </trkpt>
      <trkpt lat="45.22765" lon="4.28007">
        <ele>805.72</ele>
        <time>2011-11-06T09:07:58Z</time>
      </trkpt>
      <trkpt lat="45.22752" lon="4.27991">
        <ele>810.53</ele>
        <time>2011-11-06T09:08:12Z</time>
      </trkpt>
      <trkpt lat="45.22749" lon="4.27987">
        <ele>811.49</ele>
        <time>2011-11-06T09:08:15Z</time>
      </trkpt>
      <trkpt lat="45.22732" lon="4.27964">
        <ele>817.26</ele>
        <time>2011-11-06T09:08:30Z</time>
      </trkpt>
      <trkpt lat="45.22723" lon="4.27955">
        <ele>818.22</ele>
        <time>2011-11-06T09:08:37Z</time>
      </trkpt>
      <trkpt lat="45.22722" lon="4.27954">
        <ele>818.22</ele>
        <time>2011-11-06T09:08:38Z</time>
      </trkpt>
      <trkpt lat="45.22721" lon="4.27953">
        <ele>818.7</ele>
        <time>2011-11-06T09:08:39Z</time>
      </trkpt>
      <trkpt lat="45.2272" lon="4.27951">
        <ele>819.18</ele>
        <time>2011-11-06T09:08:40Z</time>
      </trkpt>
      <trkpt lat="45.22719" lon="4.2795">
        <ele>819.66</ele>
        <time>2011-11-06T09:08:41Z</time>
      </trkpt>
      <trkpt lat="45.22716" lon="4.27938">
        <ele>822.55</ele>
        <time>2011-11-06T09:08:50Z</time>
      </trkpt>
      <trkpt lat="45.22721" lon="4.27926">
        <ele>824.95</ele>
        <time>2011-11-06T09:08:57Z</time>
      </trkpt>
      <trkpt lat="45.22722" lon="4.27924">
        <ele>825.43</ele>
        <time>2011-11-06T09:08:58Z</time>
      </trkpt>
      <trkpt lat="45.22713" lon="4.27903">
        <ele>828.79</ele>
        <time>2011-11-06T09:09:11Z</time>
      </trkpt>
      <trkpt lat="45.22704" lon="4.27895">
        <ele>830.24</ele>
        <time>2011-11-06T09:09:17Z</time>
      </trkpt>
      <trkpt lat="45.22702" lon="4.27895">
        <ele>830.24</ele>
        <time>2011-11-06T09:09:18Z</time>
      </trkpt>
      <trkpt lat="45.2268" lon="4.2788">
        <ele>832.64</ele>
        <time>2011-11-06T09:09:32Z</time>
      </trkpt>
      <trkpt lat="45.22649" lon="4.27856">
        <ele>831.2</ele>
        <time>2011-11-06T09:09:45Z</time>
      </trkpt>
      <trkpt lat="45.22638" lon="4.27842">
        <ele>832.16</ele>
        <time>2011-11-06T09:09:55Z</time>
      </trkpt>
      <trkpt lat="45.22629" lon="4.27815">
        <ele>831.68</ele>
        <time>2011-11-06T09:10:07Z</time>
      </trkpt>
      <trkpt lat="45.22622" lon="4.27787">
        <ele>831.2</ele>
        <time>2011-11-06T09:10:18Z</time>
      </trkpt>
      <trkpt lat="45.22621" lon="4.27783">
        <ele>831.68</ele>
        <time>2011-11-06T09:10:19Z</time>
      </trkpt>
      <trkpt lat="45.22614" lon="4.27747">
        <ele>838.89</ele>
        <time>2011-11-06T09:10:31Z</time>
      </trkpt>
      <trkpt lat="45.22604" lon="4.27708">
        <ele>842.73</ele>
        <time>2011-11-06T09:10:44Z</time>
      </trkpt>
      <trkpt lat="45.22581" lon="4.27686">
        <ele>846.58</ele>
        <time>2011-11-06T09:10:56Z</time>
      </trkpt>
      <trkpt lat="45.22548" lon="4.27647">
        <ele>847.54</ele>
        <time>2011-11-06T09:11:09Z</time>
      </trkpt>
      <trkpt lat="45.22524" lon="4.27629">
        <ele>847.06</ele>
        <time>2011-11-06T09:11:18Z</time>
      </trkpt>
      <trkpt lat="45.22491" lon="4.27599">
        <ele>838.89</ele>
        <time>2011-11-06T09:11:31Z</time>
      </trkpt>
      <trkpt lat="45.22477" lon="4.2756">
        <ele>838.89</ele>
        <time>2011-11-06T09:11:43Z</time>
      </trkpt>
      <trkpt lat="45.22461" lon="4.27528">
        <ele>838.41</ele>
        <time>2011-11-06T09:11:53Z</time>
      </trkpt>
      <trkpt lat="45.22429" lon="4.27469">
        <ele>837.93</ele>
        <time>2011-11-06T09:12:08Z</time>
      </trkpt>
      <trkpt lat="45.22405" lon="4.27406">
        <ele>838.89</ele>
        <time>2011-11-06T09:12:23Z</time>
      </trkpt>
      <trkpt lat="45.2238" lon="4.27349">
        <ele>837.45</ele>
        <time>2011-11-06T09:12:37Z</time>
      </trkpt>
      <trkpt lat="45.22374" lon="4.27332">
        <ele>837.45</ele>
        <time>2011-11-06T09:12:42Z</time>
      </trkpt>
      <trkpt lat="45.22369" lon="4.27329">
        <ele>836.48</ele>
        <time>2011-11-06T09:12:43Z</time>
      </trkpt>
      <trkpt lat="45.22366" lon="4.2733">
        <ele>836.48</ele>
        <time>2011-11-06T09:12:44Z</time>
      </trkpt>
      <trkpt lat="45.22363" lon="4.27335">
        <ele>836.48</ele>
        <time>2011-11-06T09:12:45Z</time>
      </trkpt>
      <trkpt lat="45.22362" lon="4.2734">
        <ele>836</ele>
        <time>2011-11-06T09:12:46Z</time>
      </trkpt>
      <trkpt lat="45.2236" lon="4.27345">
        <ele>836.48</ele>
        <time>2011-11-06T09:12:47Z</time>
      </trkpt>
      <trkpt lat="45.22359" lon="4.2735">
        <ele>836</ele>
        <time>2011-11-06T09:12:48Z</time>
      </trkpt>
      <trkpt lat="45.22359" lon="4.27355">
        <ele>836</ele>
        <time>2011-11-06T09:12:49Z</time>
      </trkpt>
      <trkpt lat="45.22358" lon="4.2736">
        <ele>836</ele>
        <time>2011-11-06T09:12:50Z</time>
      </trkpt>
      <trkpt lat="45.2235" lon="4.27424">
        <ele>835.52</ele>
        <time>2011-11-06T09:13:03Z</time>
      </trkpt>
      <trkpt lat="45.22346" lon="4.27475">
        <ele>835.52</ele>
        <time>2011-11-06T09:13:15Z</time>
      </trkpt>
      <trkpt lat="45.22344" lon="4.27533">
        <ele>836</ele>
        <time>2011-11-06T09:13:28Z</time>
      </trkpt>
      <trkpt lat="45.22343" lon="4.276">
        <ele>836.96</ele>
        <time>2011-11-06T09:13:41Z</time>
      </trkpt>
      <trkpt lat="45.22334" lon="4.27671">
        <ele>836.96</ele>
        <time>2011-11-06T09:13:54Z</time>
      </trkpt>
      <trkpt lat="45.22329" lon="4.2775">
        <ele>836.96</ele>
        <time>2011-11-06T09:14:06Z</time>
      </trkpt>
      <trkpt lat="45.22327" lon="4.27767">
        <ele>836.96</ele>
        <time>2011-11-06T09:14:08Z</time>
      </trkpt>
      <trkpt lat="45.22321" lon="4.27888">
        <ele>836.48</ele>
        <time>2011-11-06T09:14:17Z</time>
      </trkpt>
      <trkpt lat="45.22321" lon="4.27984">
        <ele>836.48</ele>
        <time>2011-11-06T09:14:25Z</time>
      </trkpt>
      <trkpt lat="45.22323" lon="4.27992">
        <ele>836.48</ele>
        <time>2011-11-06T09:14:26Z</time>
      </trkpt>
      <trkpt lat="45.22356" lon="4.28079">
        <ele>836</ele>
        <time>2011-11-06T09:14:38Z</time>
      </trkpt>
      <trkpt lat="45.22358" lon="4.28086">
        <ele>836</ele>
        <time>2011-11-06T09:14:39Z</time>
      </trkpt>
      <trkpt lat="45.2236" lon="4.28092">
        <ele>836</ele>
        <time>2011-11-06T09:14:40Z</time>
      </trkpt>
      <trkpt lat="45.22365" lon="4.28118">
        <ele>835.52</ele>
        <time>2011-11-06T09:14:43Z</time>
      </trkpt>
      <trkpt lat="45.22374" lon="4.28184">
        <ele>835.52</ele>
        <time>2011-11-06T09:14:50Z</time>
      </trkpt>
      <trkpt lat="45.22375" lon="4.282">
        <ele>836</ele>
        <time>2011-11-06T09:14:52Z</time>
      </trkpt>
      <trkpt lat="45.22375" lon="4.28209">
        <ele>836</ele>
        <time>2011-11-06T09:14:53Z</time>
      </trkpt>
      <trkpt lat="45.22374" lon="4.28217">
        <ele>836</ele>
        <time>2011-11-06T09:14:54Z</time>
      </trkpt>
      <trkpt lat="45.22373" lon="4.28233">
        <ele>836</ele>
        <time>2011-11-06T09:14:56Z</time>
      </trkpt>
      <trkpt lat="45.22373" lon="4.2824">
        <ele>836</ele>
        <time>2011-11-06T09:14:57Z</time>
      </trkpt>
      <trkpt lat="45.22375" lon="4.28249">
        <ele>836</ele>
        <time>2011-11-06T09:14:58Z</time>
      </trkpt>
      <trkpt lat="45.22378" lon="4.28256">
        <ele>836</ele>
        <time>2011-11-06T09:14:59Z</time>
      </trkpt>
      <trkpt lat="45.22384" lon="4.28263">
        <ele>835.52</ele>
        <time>2011-11-06T09:15:00Z</time>
      </trkpt>
      <trkpt lat="45.2239" lon="4.2827">
        <ele>835.04</ele>
        <time>2011-11-06T09:15:01Z</time>
      </trkpt>
      <trkpt lat="45.22397" lon="4.28276">
        <ele>834.56</ele>
        <time>2011-11-06T09:15:02Z</time>
      </trkpt>
      <trkpt lat="45.22426" lon="4.28311">
        <ele>834.08</ele>
        <time>2011-11-06T09:15:07Z</time>
      </trkpt>
      <trkpt lat="45.22431" lon="4.28321">
        <ele>834.08</ele>
        <time>2011-11-06T09:15:08Z</time>
      </trkpt>
      <trkpt lat="45.22434" lon="4.28331">
        <ele>834.08</ele>
        <time>2011-11-06T09:15:09Z</time>
      </trkpt>
      <trkpt lat="45.22436" lon="4.28342">
        <ele>833.6</ele>
        <time>2011-11-06T09:15:10Z</time>
      </trkpt>
      <trkpt lat="45.22437" lon="4.28353">
        <ele>833.6</ele>
        <time>2011-11-06T09:15:11Z</time>
      </trkpt>
      <trkpt lat="45.22437" lon="4.28365">
        <ele>833.12</ele>
        <time>2011-11-06T09:15:12Z</time>
      </trkpt>
      <trkpt lat="45.22437" lon="4.28376">
        <ele>832.64</ele>
        <time>2011-11-06T09:15:13Z</time>
      </trkpt>
      <trkpt lat="45.22437" lon="4.28388">
        <ele>832.64</ele>
        <time>2011-11-06T09:15:14Z</time>
      </trkpt>
      <trkpt lat="45.22434" lon="4.28496">
        <ele>830.24</ele>
        <time>2011-11-06T09:15:24Z</time>
      </trkpt>
      <trkpt lat="45.22435" lon="4.28506">
        <ele>830.24</ele>
        <time>2011-11-06T09:15:25Z</time>
      </trkpt>
      <trkpt lat="45.22449" lon="4.2859">
        <ele>826.87</ele>
        <time>2011-11-06T09:15:33Z</time>
      </trkpt>
      <trkpt lat="45.22449" lon="4.286">
        <ele>826.39</ele>
        <time>2011-11-06T09:15:34Z</time>
      </trkpt>
      <trkpt lat="45.22432" lon="4.28719">
        <ele>822.06</ele>
        <time>2011-11-06T09:15:48Z</time>
      </trkpt>
      <trkpt lat="45.22431" lon="4.28725">
        <ele>822.55</ele>
        <time>2011-11-06T09:15:49Z</time>
      </trkpt>
      <trkpt lat="45.22412" lon="4.28777">
        <ele>829.27</ele>
        <time>2011-11-06T09:16:01Z</time>
      </trkpt>
      <trkpt lat="45.22389" lon="4.28801">
        <ele>836.48</ele>
        <time>2011-11-06T09:16:12Z</time>
      </trkpt>
      <trkpt lat="45.22342" lon="4.28795">
        <ele>841.77</ele>
        <time>2011-11-06T09:16:26Z</time>
      </trkpt>
      <trkpt lat="45.2229" lon="4.28803">
        <ele>845.14</ele>
        <time>2011-11-06T09:16:40Z</time>
      </trkpt>
      <trkpt lat="45.2225" lon="4.28836">
        <ele>849.94</ele>
        <time>2011-11-06T09:16:53Z</time>
      </trkpt>
      <trkpt lat="45.22215" lon="4.28888">
        <ele>850.42</ele>
        <time>2011-11-06T09:17:07Z</time>
      </trkpt>
      <trkpt lat="45.22197" lon="4.28927">
        <ele>852.35</ele>
        <time>2011-11-06T09:17:18Z</time>
      </trkpt>
      <trkpt lat="45.22204" lon="4.28977">
        <ele>849.94</ele>
        <time>2011-11-06T09:17:27Z</time>
      </trkpt>
      <trkpt lat="45.22206" lon="4.28983">
        <ele>849.46</ele>
        <time>2011-11-06T09:17:28Z</time>
      </trkpt>
      <trkpt lat="45.2225" lon="4.29082">
        <ele>845.62</ele>
        <time>2011-11-06T09:17:41Z</time>
      </trkpt>
      <trkpt lat="45.22249" lon="4.29091">
        <ele>845.14</ele>
        <time>2011-11-06T09:17:42Z</time>
      </trkpt>
      <trkpt lat="45.22248" lon="4.291">
        <ele>845.14</ele>
        <time>2011-11-06T09:17:43Z</time>
      </trkpt>
      <trkpt lat="45.22244" lon="4.29114">
        <ele>844.18</ele>
        <time>2011-11-06T09:17:45Z</time>
      </trkpt>
      <trkpt lat="45.22241" lon="4.29118">
        <ele>843.69</ele>
        <time>2011-11-06T09:17:46Z</time>
      </trkpt>
      <trkpt lat="45.22238" lon="4.29121">
        <ele>842.73</ele>
        <time>2011-11-06T09:17:47Z</time>
      </trkpt>
      <trkpt lat="45.22234" lon="4.29123">
        <ele>842.25</ele>
        <time>2011-11-06T09:17:48Z</time>
      </trkpt>
      <trkpt lat="45.2223" lon="4.29124">
        <ele>841.29</ele>
        <time>2011-11-06T09:17:49Z</time>
      </trkpt>
      <trkpt lat="45.22226" lon="4.29125">
        <ele>840.33</ele>
        <time>2011-11-06T09:17:50Z</time>
      </trkpt>
      <trkpt lat="45.22222" lon="4.29127">
        <ele>839.85</ele>
        <time>2011-11-06T09:17:51Z</time>
      </trkpt>
      <trkpt lat="45.22212" lon="4.29134">
        <ele>838.41</ele>
        <time>2011-11-06T09:17:53Z</time>
      </trkpt>
      <trkpt lat="45.22196" lon="4.29145">
        <ele>836</ele>
        <time>2011-11-06T09:17:56Z</time>
      </trkpt>
      <trkpt lat="45.22144" lon="4.29188">
        <ele>829.27</ele>
        <time>2011-11-06T09:18:04Z</time>
      </trkpt>
      <trkpt lat="45.22138" lon="4.29193">
        <ele>828.31</ele>
        <time>2011-11-06T09:18:05Z</time>
      </trkpt>
      <trkpt lat="45.22132" lon="4.29197">
        <ele>827.35</ele>
        <time>2011-11-06T09:18:06Z</time>
      </trkpt>
      <trkpt lat="45.22128" lon="4.29201">
        <ele>826.87</ele>
        <time>2011-11-06T09:18:07Z</time>
      </trkpt>
      <trkpt lat="45.22123" lon="4.29204">
        <ele>825.91</ele>
        <time>2011-11-06T09:18:08Z</time>
      </trkpt>
      <trkpt lat="45.22119" lon="4.29206">
        <ele>825.43</ele>
        <time>2011-11-06T09:18:09Z</time>
      </trkpt>
      <trkpt lat="45.22115" lon="4.29205">
        <ele>824.95</ele>
        <time>2011-11-06T09:18:10Z</time>
      </trkpt>
      <trkpt lat="45.22111" lon="4.29204">
        <ele>823.99</ele>
        <time>2011-11-06T09:18:11Z</time>
      </trkpt>
      <trkpt lat="45.22107" lon="4.29206">
        <ele>823.51</ele>
        <time>2011-11-06T09:18:12Z</time>
      </trkpt>
      <trkpt lat="45.22104" lon="4.29209">
        <ele>823.03</ele>
        <time>2011-11-06T09:18:13Z</time>
      </trkpt>
      <trkpt lat="45.22102" lon="4.29212">
        <ele>822.55</ele>
        <time>2011-11-06T09:18:14Z</time>
      </trkpt>
      <trkpt lat="45.22099" lon="4.29217">
        <ele>822.06</ele>
        <time>2011-11-06T09:18:15Z</time>
      </trkpt>
      <trkpt lat="45.22054" lon="4.29288">
        <ele>817.26</ele>
        <time>2011-11-06T09:18:28Z</time>
      </trkpt>
      <trkpt lat="45.22035" lon="4.29313">
        <ele>816.3</ele>
        <time>2011-11-06T09:18:33Z</time>
      </trkpt>
      <trkpt lat="45.21995" lon="4.29374">
        <ele>812.93</ele>
        <time>2011-11-06T09:18:45Z</time>
      </trkpt>
      <trkpt lat="45.21993" lon="4.29379">
        <ele>812.45</ele>
        <time>2011-11-06T09:18:46Z</time>
      </trkpt>
      <trkpt lat="45.21991" lon="4.29385">
        <ele>811.97</ele>
        <time>2011-11-06T09:18:47Z</time>
      </trkpt>
      <trkpt lat="45.21989" lon="4.29389">
        <ele>811.97</ele>
        <time>2011-11-06T09:18:48Z</time>
      </trkpt>
      <trkpt lat="45.21986" lon="4.29394">
        <ele>811.49</ele>
        <time>2011-11-06T09:18:49Z</time>
      </trkpt>
      <trkpt lat="45.21983" lon="4.29397">
        <ele>811.01</ele>
        <time>2011-11-06T09:18:50Z</time>
      </trkpt>
      <trkpt lat="45.2198" lon="4.294">
        <ele>810.53</ele>
        <time>2011-11-06T09:18:51Z</time>
      </trkpt>
      <trkpt lat="45.21968" lon="4.29409">
        <ele>809.57</ele>
        <time>2011-11-06T09:18:54Z</time>
      </trkpt>
      <trkpt lat="45.21916" lon="4.29444">
        <ele>803.8</ele>
        <time>2011-11-06T09:19:07Z</time>
      </trkpt>
      <trkpt lat="45.21884" lon="4.2946">
        <ele>799.95</ele>
        <time>2011-11-06T09:19:16Z</time>
      </trkpt>
      <trkpt lat="45.21881" lon="4.29462">
        <ele>799.47</ele>
        <time>2011-11-06T09:19:18Z</time>
      </trkpt>
      <trkpt lat="45.21879" lon="4.29466">
        <ele>798.51</ele>
        <time>2011-11-06T09:19:19Z</time>
      </trkpt>
      <trkpt lat="45.21878" lon="4.29476">
        <ele>796.59</ele>
        <time>2011-11-06T09:19:20Z</time>
      </trkpt>
      <trkpt lat="45.21878" lon="4.29481">
        <ele>795.15</ele>
        <time>2011-11-06T09:19:21Z</time>
      </trkpt>
      <trkpt lat="45.21881" lon="4.29483">
        <ele>794.67</ele>
        <time>2011-11-06T09:19:22Z</time>
      </trkpt>
      <trkpt lat="45.21883" lon="4.29486">
        <ele>793.71</ele>
        <time>2011-11-06T09:19:23Z</time>
      </trkpt>
      <trkpt lat="45.21884" lon="4.29487">
        <ele>793.22</ele>
        <time>2011-11-06T09:19:24Z</time>
      </trkpt>
      <trkpt lat="45.21885" lon="4.2949">
        <ele>792.26</ele>
        <time>2011-11-06T09:19:25Z</time>
      </trkpt>
      <trkpt lat="45.21886" lon="4.29497">
        <ele>788.9</ele>
        <time>2011-11-06T09:19:31Z</time>
      </trkpt>
      <trkpt lat="45.21857" lon="4.29491">
        <ele>784.09</ele>
        <time>2011-11-06T09:19:41Z</time>
      </trkpt>
      <trkpt lat="45.21815" lon="4.29478">
        <ele>775.92</ele>
        <time>2011-11-06T09:19:53Z</time>
      </trkpt>
      <trkpt lat="45.21788" lon="4.29481">
        <ele>770.15</ele>
        <time>2011-11-06T09:20:04Z</time>
      </trkpt>
      <trkpt lat="45.21759" lon="4.29471">
        <ele>771.11</ele>
        <time>2011-11-06T09:20:14Z</time>
      </trkpt>
      <trkpt lat="45.21731" lon="4.29464">
        <ele>772.08</ele>
        <time>2011-11-06T09:20:24Z</time>
      </trkpt>
      <trkpt lat="45.21721" lon="4.29456">
        <ele>772.08</ele>
        <time>2011-11-06T09:20:34Z</time>
      </trkpt>
      <trkpt lat="45.21701" lon="4.2943">
        <ele>768.23</ele>
        <time>2011-11-06T09:20:50Z</time>
      </trkpt>
      <trkpt lat="45.21672" lon="4.29409">
        <ele>767.27</ele>
        <time>2011-11-06T09:21:00Z</time>
      </trkpt>
      <trkpt lat="45.2163" lon="4.29412">
        <ele>761.5</ele>
        <time>2011-11-06T09:21:11Z</time>
      </trkpt>
      <trkpt lat="45.216" lon="4.29427">
        <ele>761.02</ele>
        <time>2011-11-06T09:21:17Z</time>
      </trkpt>
      <trkpt lat="45.21594" lon="4.29432">
        <ele>761.02</ele>
        <time>2011-11-06T09:21:18Z</time>
      </trkpt>
      <trkpt lat="45.2158" lon="4.29447">
        <ele>760.54</ele>
        <time>2011-11-06T09:21:21Z</time>
      </trkpt>
      <trkpt lat="45.21578" lon="4.29452">
        <ele>760.54</ele>
        <time>2011-11-06T09:21:22Z</time>
      </trkpt>
      <trkpt lat="45.21575" lon="4.29458">
        <ele>760.06</ele>
        <time>2011-11-06T09:21:23Z</time>
      </trkpt>
      <trkpt lat="45.21547" lon="4.295">
        <ele>755.73</ele>
        <time>2011-11-06T09:21:33Z</time>
      </trkpt>
      <trkpt lat="45.21537" lon="4.29507">
        <ele>755.25</ele>
        <time>2011-11-06T09:21:36Z</time>
      </trkpt>
      <trkpt lat="45.21532" lon="4.29509">
        <ele>755.25</ele>
        <time>2011-11-06T09:21:37Z</time>
      </trkpt>
      <trkpt lat="45.21529" lon="4.2951">
        <ele>755.25</ele>
        <time>2011-11-06T09:21:38Z</time>
      </trkpt>
      <trkpt lat="45.21526" lon="4.29512">
        <ele>755.73</ele>
        <time>2011-11-06T09:21:39Z</time>
      </trkpt>
      <trkpt lat="45.21524" lon="4.29516">
        <ele>755.73</ele>
        <time>2011-11-06T09:21:40Z</time>
      </trkpt>
      <trkpt lat="45.21522" lon="4.2952">
        <ele>756.21</ele>
        <time>2011-11-06T09:21:41Z</time>
      </trkpt>
      <trkpt lat="45.2152" lon="4.29525">
        <ele>756.21</ele>
        <time>2011-11-06T09:21:42Z</time>
      </trkpt>
      <trkpt lat="45.21518" lon="4.2953">
        <ele>756.69</ele>
        <time>2011-11-06T09:21:43Z</time>
      </trkpt>
      <trkpt lat="45.21516" lon="4.29534">
        <ele>756.69</ele>
        <time>2011-11-06T09:21:44Z</time>
      </trkpt>
      <trkpt lat="45.21513" lon="4.29538">
        <ele>756.69</ele>
        <time>2011-11-06T09:21:45Z</time>
      </trkpt>
      <trkpt lat="45.21512" lon="4.29542">
        <ele>756.69</ele>
        <time>2011-11-06T09:21:46Z</time>
      </trkpt>
      <trkpt lat="45.21482" lon="4.296">
        <ele>755.25</ele>
        <time>2011-11-06T09:21:58Z</time>
      </trkpt>
      <trkpt lat="45.21471" lon="4.2962">
        <ele>754.77</ele>
        <time>2011-11-06T09:22:01Z</time>
      </trkpt>
      <trkpt lat="45.21467" lon="4.29625">
        <ele>754.77</ele>
        <time>2011-11-06T09:22:02Z</time>
      </trkpt>
      <trkpt lat="45.21442" lon="4.29661">
        <ele>751.89</ele>
        <time>2011-11-06T09:22:11Z</time>
      </trkpt>
      <trkpt lat="45.21429" lon="4.29684">
        <ele>748.52</ele>
        <time>2011-11-06T09:22:18Z</time>
      </trkpt>
      <trkpt lat="45.21398" lon="4.29731">
        <ele>744.2</ele>
        <time>2011-11-06T09:22:31Z</time>
      </trkpt>
      <trkpt lat="45.21396" lon="4.29754">
        <ele>740.35</ele>
        <time>2011-11-06T09:22:44Z</time>
      </trkpt>
      <trkpt lat="45.21406" lon="4.29764">
        <ele>739.87</ele>
        <time>2011-11-06T09:23:01Z</time>
      </trkpt>
      <trkpt lat="45.21412" lon="4.29773">
        <ele>739.87</ele>
        <time>2011-11-06T09:23:10Z</time>
      </trkpt>
      <trkpt lat="45.21418" lon="4.29786">
        <ele>736.51</ele>
        <time>2011-11-06T09:23:26Z</time>
      </trkpt>
      <trkpt lat="45.21413" lon="4.29806">
        <ele>736.99</ele>
        <time>2011-11-06T09:23:46Z</time>
      </trkpt>
      <trkpt lat="45.2141" lon="4.29832">
        <ele>736.51</ele>
        <time>2011-11-06T09:24:05Z</time>
      </trkpt>
      <trkpt lat="45.21405" lon="4.29871">
        <ele>739.39</ele>
        <time>2011-11-06T09:24:23Z</time>
      </trkpt>
      <trkpt lat="45.21397" lon="4.29907">
        <ele>742.76</ele>
        <time>2011-11-06T09:24:38Z</time>
      </trkpt>
      <trkpt lat="45.21395" lon="4.29956">
        <ele>741.79</ele>
        <time>2011-11-06T09:24:52Z</time>
      </trkpt>
      <trkpt lat="45.21392" lon="4.29987">
        <ele>745.64</ele>
        <time>2011-11-06T09:25:06Z</time>
      </trkpt>
      <trkpt lat="45.21393" lon="4.30012">
        <ele>751.89</ele>
        <time>2011-11-06T09:25:17Z</time>
      </trkpt>
      <trkpt lat="45.21396" lon="4.30038">
        <ele>753.33</ele>
        <time>2011-11-06T09:25:27Z</time>
      </trkpt>
      <trkpt lat="45.21405" lon="4.30069">
        <ele>751.89</ele>
        <time>2011-11-06T09:25:40Z</time>
      </trkpt>
      <trkpt lat="45.2141" lon="4.30096">
        <ele>749.49</ele>
        <time>2011-11-06T09:25:49Z</time>
      </trkpt>
      <trkpt lat="45.21429" lon="4.30116">
        <ele>749</ele>
        <time>2011-11-06T09:26:02Z</time>
      </trkpt>
      <trkpt lat="45.21433" lon="4.30117">
        <ele>749</ele>
        <time>2011-11-06T09:26:04Z</time>
      </trkpt>
      <trkpt lat="45.21438" lon="4.30118">
        <ele>748.52</ele>
        <time>2011-11-06T09:26:06Z</time>
      </trkpt>
      <trkpt lat="45.21458" lon="4.30128">
        <ele>748.04</ele>
        <time>2011-11-06T09:26:18Z</time>
      </trkpt>
      <trkpt lat="45.21482" lon="4.30137">
        <ele>749</ele>
        <time>2011-11-06T09:26:30Z</time>
      </trkpt>
      <trkpt lat="45.21484" lon="4.30138">
        <ele>749</ele>
        <time>2011-11-06T09:26:31Z</time>
      </trkpt>
      <trkpt lat="45.21493" lon="4.30143">
        <ele>749.97</ele>
        <time>2011-11-06T09:26:35Z</time>
      </trkpt>
      <trkpt lat="45.21493" lon="4.30145">
        <ele>749.97</ele>
        <time>2011-11-06T09:26:36Z</time>
      </trkpt>
      <trkpt lat="45.21493" lon="4.30147">
        <ele>749.97</ele>
        <time>2011-11-06T09:26:37Z</time>
      </trkpt>
      <trkpt lat="45.2149" lon="4.30163">
        <ele>756.21</ele>
        <time>2011-11-06T09:26:50Z</time>
      </trkpt>
      <trkpt lat="45.21481" lon="4.30172">
        <ele>759.1</ele>
        <time>2011-11-06T09:26:54Z</time>
      </trkpt>
      <trkpt lat="45.21474" lon="4.30183">
        <ele>760.54</ele>
        <time>2011-11-06T09:26:59Z</time>
      </trkpt>
      <trkpt lat="45.2147" lon="4.30194">
        <ele>761.98</ele>
        <time>2011-11-06T09:27:03Z</time>
      </trkpt>
      <trkpt lat="45.21469" lon="4.30204">
        <ele>765.83</ele>
        <time>2011-11-06T09:27:07Z</time>
      </trkpt>
      <trkpt lat="45.21467" lon="4.30222">
        <ele>769.19</ele>
        <time>2011-11-06T09:27:12Z</time>
      </trkpt>
      <trkpt lat="45.21468" lon="4.30227">
        <ele>771.11</ele>
        <time>2011-11-06T09:27:14Z</time>
      </trkpt>
      <trkpt lat="45.21476" lon="4.30265">
        <ele>779.29</ele>
        <time>2011-11-06T09:27:28Z</time>
      </trkpt>
      <trkpt lat="45.21485" lon="4.3032">
        <ele>782.65</ele>
        <time>2011-11-06T09:27:39Z</time>
      </trkpt>
      <trkpt lat="45.21496" lon="4.30369">
        <ele>782.17</ele>
        <time>2011-11-06T09:27:49Z</time>
      </trkpt>
      <trkpt lat="45.21497" lon="4.30375">
        <ele>782.17</ele>
        <time>2011-11-06T09:27:50Z</time>
      </trkpt>
      <trkpt lat="45.21506" lon="4.30447">
        <ele>781.69</ele>
        <time>2011-11-06T09:28:00Z</time>
      </trkpt>
      <trkpt lat="45.21506" lon="4.30478">
        <ele>780.25</ele>
        <time>2011-11-06T09:28:08Z</time>
      </trkpt>
      <trkpt lat="45.21503" lon="4.30483">
        <ele>780.25</ele>
        <time>2011-11-06T09:28:09Z</time>
      </trkpt>
      <trkpt lat="45.21484" lon="4.30541">
        <ele>779.77</ele>
        <time>2011-11-06T09:28:18Z</time>
      </trkpt>
      <trkpt lat="45.21468" lon="4.30584">
        <ele>775.92</ele>
        <time>2011-11-06T09:28:28Z</time>
      </trkpt>
      <trkpt lat="45.21481" lon="4.30639">
        <ele>768.23</ele>
        <time>2011-11-06T09:28:38Z</time>
      </trkpt>
      <trkpt lat="45.21488" lon="4.30645">
        <ele>767.27</ele>
        <time>2011-11-06T09:28:40Z</time>
      </trkpt>
      <trkpt lat="45.21492" lon="4.30646">
        <ele>765.83</ele>
        <time>2011-11-06T09:28:41Z</time>
      </trkpt>
      <trkpt lat="45.21497" lon="4.30647">
        <ele>764.87</ele>
        <time>2011-11-06T09:28:42Z</time>
      </trkpt>
      <trkpt lat="45.21513" lon="4.3065">
        <ele>763.42</ele>
        <time>2011-11-06T09:28:46Z</time>
      </trkpt>
      <trkpt lat="45.21517" lon="4.30651">
        <ele>763.42</ele>
        <time>2011-11-06T09:28:47Z</time>
      </trkpt>
      <trkpt lat="45.2152" lon="4.30654">
        <ele>762.94</ele>
        <time>2011-11-06T09:28:48Z</time>
      </trkpt>
      <trkpt lat="45.21523" lon="4.30659">
        <ele>762.46</ele>
        <time>2011-11-06T09:28:49Z</time>
      </trkpt>
      <trkpt lat="45.21526" lon="4.30666">
        <ele>762.46</ele>
        <time>2011-11-06T09:28:50Z</time>
      </trkpt>
      <trkpt lat="45.21528" lon="4.30674">
        <ele>761.98</ele>
        <time>2011-11-06T09:28:51Z</time>
      </trkpt>
      <trkpt lat="45.21529" lon="4.30682">
        <ele>761.98</ele>
        <time>2011-11-06T09:28:52Z</time>
      </trkpt>
      <trkpt lat="45.21529" lon="4.30691">
        <ele>761.5</ele>
        <time>2011-11-06T09:28:53Z</time>
      </trkpt>
      <trkpt lat="45.21529" lon="4.307">
        <ele>761.02</ele>
        <time>2011-11-06T09:28:54Z</time>
      </trkpt>
      <trkpt lat="45.21529" lon="4.30707">
        <ele>760.54</ele>
        <time>2011-11-06T09:28:55Z</time>
      </trkpt>
      <trkpt lat="45.21531" lon="4.30713">
        <ele>760.54</ele>
        <time>2011-11-06T09:28:56Z</time>
      </trkpt>
      <trkpt lat="45.21533" lon="4.30718">
        <ele>760.54</ele>
        <time>2011-11-06T09:28:57Z</time>
      </trkpt>
      <trkpt lat="45.21538" lon="4.30722">
        <ele>760.06</ele>
        <time>2011-11-06T09:28:58Z</time>
      </trkpt>
      <trkpt lat="45.21545" lon="4.30724">
        <ele>759.1</ele>
        <time>2011-11-06T09:28:59Z</time>
      </trkpt>
      <trkpt lat="45.21553" lon="4.30726">
        <ele>758.62</ele>
        <time>2011-11-06T09:29:00Z</time>
      </trkpt>
      <trkpt lat="45.21566" lon="4.30728">
        <ele>757.66</ele>
        <time>2011-11-06T09:29:02Z</time>
      </trkpt>
      <trkpt lat="45.2158" lon="4.30727">
        <ele>756.21</ele>
        <time>2011-11-06T09:29:04Z</time>
      </trkpt>
      <trkpt lat="45.21586" lon="4.30726">
        <ele>755.73</ele>
        <time>2011-11-06T09:29:05Z</time>
      </trkpt>
      <trkpt lat="45.21593" lon="4.30726">
        <ele>755.73</ele>
        <time>2011-11-06T09:29:06Z</time>
      </trkpt>
      <trkpt lat="45.21599" lon="4.30728">
        <ele>755.25</ele>
        <time>2011-11-06T09:29:07Z</time>
      </trkpt>
      <trkpt lat="45.21604" lon="4.30733">
        <ele>754.77</ele>
        <time>2011-11-06T09:29:08Z</time>
      </trkpt>
      <trkpt lat="45.21609" lon="4.30739">
        <ele>754.77</ele>
        <time>2011-11-06T09:29:09Z</time>
      </trkpt>
      <trkpt lat="45.21615" lon="4.30747">
        <ele>754.77</ele>
        <time>2011-11-06T09:29:10Z</time>
      </trkpt>
      <trkpt lat="45.21636" lon="4.30779">
        <ele>753.33</ele>
        <time>2011-11-06T09:29:14Z</time>
      </trkpt>
      <trkpt lat="45.21664" lon="4.3084">
        <ele>750.93</ele>
        <time>2011-11-06T09:29:22Z</time>
      </trkpt>
      <trkpt lat="45.21665" lon="4.30844">
        <ele>750.45</ele>
        <time>2011-11-06T09:29:23Z</time>
      </trkpt>
      <trkpt lat="45.21694" lon="4.30889">
        <ele>747.08</ele>
        <time>2011-11-06T09:29:35Z</time>
      </trkpt>
      <trkpt lat="45.21696" lon="4.30893">
        <ele>747.08</ele>
        <time>2011-11-06T09:29:36Z</time>
      </trkpt>
      <trkpt lat="45.21699" lon="4.30897">
        <ele>746.6</ele>
        <time>2011-11-06T09:29:37Z</time>
      </trkpt>
      <trkpt lat="45.21702" lon="4.30902">
        <ele>746.6</ele>
        <time>2011-11-06T09:29:38Z</time>
      </trkpt>
      <trkpt lat="45.21704" lon="4.30907">
        <ele>746.12</ele>
        <time>2011-11-06T09:29:39Z</time>
      </trkpt>
      <trkpt lat="45.21715" lon="4.30935">
        <ele>744.68</ele>
        <time>2011-11-06T09:29:44Z</time>
      </trkpt>
      <trkpt lat="45.2173" lon="4.30954">
        <ele>742.76</ele>
        <time>2011-11-06T09:29:48Z</time>
      </trkpt>
      <trkpt lat="45.21733" lon="4.30958">
        <ele>742.76</ele>
        <time>2011-11-06T09:29:49Z</time>
      </trkpt>
      <trkpt lat="45.21737" lon="4.30962">
        <ele>742.28</ele>
        <time>2011-11-06T09:29:50Z</time>
      </trkpt>
      <trkpt lat="45.21741" lon="4.30965">
        <ele>742.28</ele>
        <time>2011-11-06T09:29:51Z</time>
      </trkpt>
      <trkpt lat="45.21744" lon="4.30968">
        <ele>742.28</ele>
        <time>2011-11-06T09:29:52Z</time>
      </trkpt>
      <trkpt lat="45.21748" lon="4.30971">
        <ele>741.79</ele>
        <time>2011-11-06T09:29:53Z</time>
      </trkpt>
      <trkpt lat="45.21752" lon="4.30973">
        <ele>741.79</ele>
        <time>2011-11-06T09:29:54Z</time>
      </trkpt>
      <trkpt lat="45.21755" lon="4.30975">
        <ele>741.79</ele>
        <time>2011-11-06T09:29:55Z</time>
      </trkpt>
      <trkpt lat="45.21794" lon="4.30989">
        <ele>741.79</ele>
        <time>2011-11-06T09:30:06Z</time>
      </trkpt>
      <trkpt lat="45.21822" lon="4.30997">
        <ele>742.28</ele>
        <time>2011-11-06T09:30:17Z</time>
      </trkpt>
      <trkpt lat="45.2184" lon="4.30987">
        <ele>743.24</ele>
        <time>2011-11-06T09:30:26Z</time>
      </trkpt>
      <trkpt lat="45.21841" lon="4.3098">
        <ele>744.2</ele>
        <time>2011-11-06T09:30:38Z</time>
      </trkpt>
      <trkpt lat="45.21845" lon="4.30965">
        <ele>746.12</ele>
        <time>2011-11-06T09:30:46Z</time>
      </trkpt>
      <trkpt lat="45.21849" lon="4.30952">
        <ele>747.56</ele>
        <time>2011-11-06T09:30:53Z</time>
      </trkpt>
      <trkpt lat="45.21866" lon="4.30925">
        <ele>755.25</ele>
        <time>2011-11-06T09:31:07Z</time>
      </trkpt>
      <trkpt lat="45.21867" lon="4.30923">
        <ele>755.73</ele>
        <time>2011-11-06T09:31:08Z</time>
      </trkpt>
      <trkpt lat="45.21874" lon="4.30912">
        <ele>759.58</ele>
        <time>2011-11-06T09:31:15Z</time>
      </trkpt>
      <trkpt lat="45.21886" lon="4.30883">
        <ele>763.42</ele>
        <time>2011-11-06T09:31:31Z</time>
      </trkpt>
      <trkpt lat="45.2189" lon="4.30879">
        <ele>764.87</ele>
        <time>2011-11-06T09:31:36Z</time>
      </trkpt>
      <trkpt lat="45.21903" lon="4.30862">
        <ele>763.9</ele>
        <time>2011-11-06T09:31:51Z</time>
      </trkpt>
      <trkpt lat="45.21913" lon="4.30848">
        <ele>761.02</ele>
        <time>2011-11-06T09:32:01Z</time>
      </trkpt>
      <trkpt lat="45.21919" lon="4.30837">
        <ele>761.02</ele>
        <time>2011-11-06T09:32:06Z</time>
      </trkpt>
      <trkpt lat="45.21929" lon="4.3082">
        <ele>762.46</ele>
        <time>2011-11-06T09:32:21Z</time>
      </trkpt>
      <trkpt lat="45.21937" lon="4.30801">
        <ele>763.9</ele>
        <time>2011-11-06T09:32:32Z</time>
      </trkpt>
      <trkpt lat="45.21948" lon="4.30783">
        <ele>764.87</ele>
        <time>2011-11-06T09:32:49Z</time>
      </trkpt>
      <trkpt lat="45.21959" lon="4.3076">
        <ele>767.75</ele>
        <time>2011-11-06T09:33:06Z</time>
      </trkpt>
      <trkpt lat="45.21963" lon="4.3075">
        <ele>770.15</ele>
        <time>2011-11-06T09:33:20Z</time>
      </trkpt>
      <trkpt lat="45.2197" lon="4.3074">
        <ele>769.19</ele>
        <time>2011-11-06T09:33:33Z</time>
      </trkpt>
      <trkpt lat="45.21972" lon="4.30739">
        <ele>769.19</ele>
        <time>2011-11-06T09:33:34Z</time>
      </trkpt>
      <trkpt lat="45.21982" lon="4.30731">
        <ele>770.15</ele>
        <time>2011-11-06T09:33:40Z</time>
      </trkpt>
      <trkpt lat="45.21987" lon="4.30718">
        <ele>770.63</ele>
        <time>2011-11-06T09:33:48Z</time>
      </trkpt>
      <trkpt lat="45.21987" lon="4.30692">
        <ele>779.77</ele>
        <time>2011-11-06T09:34:01Z</time>
      </trkpt>
      <trkpt lat="45.21988" lon="4.30686">
        <ele>781.69</ele>
        <time>2011-11-06T09:34:04Z</time>
      </trkpt>
      <trkpt lat="45.21974" lon="4.30668">
        <ele>788.9</ele>
        <time>2011-11-06T09:34:19Z</time>
      </trkpt>
      <trkpt lat="45.21962" lon="4.30665">
        <ele>792.26</ele>
        <time>2011-11-06T09:34:27Z</time>
      </trkpt>
      <trkpt lat="45.21936" lon="4.30653">
        <ele>796.59</ele>
        <time>2011-11-06T09:34:43Z</time>
      </trkpt>
      <trkpt lat="45.21925" lon="4.30655">
        <ele>797.55</ele>
        <time>2011-11-06T09:34:49Z</time>
      </trkpt>
      <trkpt lat="45.2192" lon="4.30659">
        <ele>798.51</ele>
        <time>2011-11-06T09:34:53Z</time>
      </trkpt>
      <trkpt lat="45.21917" lon="4.30662">
        <ele>798.51</ele>
        <time>2011-11-06T09:34:55Z</time>
      </trkpt>
      <trkpt lat="45.21902" lon="4.30679">
        <ele>802.84</ele>
        <time>2011-11-06T09:35:10Z</time>
      </trkpt>
      <trkpt lat="45.21888" lon="4.30697">
        <ele>805.72</ele>
        <time>2011-11-06T09:35:25Z</time>
      </trkpt>
      <trkpt lat="45.21875" lon="4.30716">
        <ele>811.97</ele>
        <time>2011-11-06T09:35:41Z</time>
      </trkpt>
      <trkpt lat="45.21876" lon="4.30717">
        <ele>811.97</ele>
        <time>2011-11-06T09:36:03Z</time>
      </trkpt>
      <trkpt lat="45.21874" lon="4.30697">
        <ele>813.41</ele>
        <time>2011-11-06T09:36:18Z</time>
      </trkpt>
      <trkpt lat="45.21883" lon="4.30657">
        <ele>813.89</ele>
        <time>2011-11-06T09:36:33Z</time>
      </trkpt>
      <trkpt lat="45.21883" lon="4.30653">
        <ele>814.37</ele>
        <time>2011-11-06T09:36:35Z</time>
      </trkpt>
      <trkpt lat="45.2188" lon="4.30641">
        <ele>816.3</ele>
        <time>2011-11-06T09:36:41Z</time>
      </trkpt>
      <trkpt lat="45.2187" lon="4.30618">
        <ele>818.7</ele>
        <time>2011-11-06T09:36:56Z</time>
      </trkpt>
      <trkpt lat="45.21868" lon="4.30612">
        <ele>819.66</ele>
        <time>2011-11-06T09:37:00Z</time>
      </trkpt>
      <trkpt lat="45.21857" lon="4.30585">
        <ele>823.03</ele>
        <time>2011-11-06T09:37:16Z</time>
      </trkpt>
      <trkpt lat="45.21856" lon="4.30583">
        <ele>823.03</ele>
        <time>2011-11-06T09:37:17Z</time>
      </trkpt>
      <trkpt lat="45.21848" lon="4.30571">
        <ele>823.99</ele>
        <time>2011-11-06T09:37:25Z</time>
      </trkpt>
      <trkpt lat="45.21826" lon="4.30544">
        <ele>826.39</ele>
        <time>2011-11-06T09:37:44Z</time>
      </trkpt>
      <trkpt lat="45.21816" lon="4.30534">
        <ele>823.51</ele>
        <time>2011-11-06T09:37:58Z</time>
      </trkpt>
      <trkpt lat="45.21815" lon="4.30534">
        <ele>823.51</ele>
        <time>2011-11-06T09:38:05Z</time>
      </trkpt>
      <trkpt lat="45.2181" lon="4.30529">
        <ele>823.03</ele>
        <time>2011-11-06T09:38:09Z</time>
      </trkpt>
      <trkpt lat="45.21808" lon="4.30523">
        <ele>823.03</ele>
        <time>2011-11-06T09:38:13Z</time>
      </trkpt>
      <trkpt lat="45.21809" lon="4.30513">
        <ele>823.03</ele>
        <time>2011-11-06T09:38:20Z</time>
      </trkpt>
      <trkpt lat="45.21826" lon="4.30494">
        <ele>823.03</ele>
        <time>2011-11-06T09:38:38Z</time>
      </trkpt>
      <trkpt lat="45.21839" lon="4.30477">
        <ele>824.47</ele>
        <time>2011-11-06T09:38:51Z</time>
      </trkpt>
      <trkpt lat="45.21853" lon="4.30465">
        <ele>827.35</ele>
        <time>2011-11-06T09:39:05Z</time>
      </trkpt>
      <trkpt lat="45.21869" lon="4.30456">
        <ele>832.16</ele>
        <time>2011-11-06T09:39:20Z</time>
      </trkpt>
      <trkpt lat="45.2187" lon="4.30455">
        <ele>832.64</ele>
        <time>2011-11-06T09:39:21Z</time>
      </trkpt>
      <trkpt lat="45.21884" lon="4.30446">
        <ele>836</ele>
        <time>2011-11-06T09:39:35Z</time>
      </trkpt>
      <trkpt lat="45.21891" lon="4.30441">
        <ele>837.45</ele>
        <time>2011-11-06T09:39:41Z</time>
      </trkpt>
      <trkpt lat="45.21899" lon="4.30426">
        <ele>840.33</ele>
        <time>2011-11-06T09:39:54Z</time>
      </trkpt>
      <trkpt lat="45.21904" lon="4.30411">
        <ele>841.29</ele>
        <time>2011-11-06T09:40:09Z</time>
      </trkpt>
      <trkpt lat="45.21915" lon="4.30398">
        <ele>843.69</ele>
        <time>2011-11-06T09:40:25Z</time>
      </trkpt>
      <trkpt lat="45.21923" lon="4.30391">
        <ele>845.62</ele>
        <time>2011-11-06T09:40:39Z</time>
      </trkpt>
      <trkpt lat="45.21932" lon="4.30382">
        <ele>847.54</ele>
        <time>2011-11-06T09:40:58Z</time>
      </trkpt>
      <trkpt lat="45.21945" lon="4.30371">
        <ele>849.46</ele>
        <time>2011-11-06T09:41:12Z</time>
      </trkpt>
      <trkpt lat="45.21947" lon="4.3037">
        <ele>849.94</ele>
        <time>2011-11-06T09:41:14Z</time>
      </trkpt>
      <trkpt lat="45.21969" lon="4.30364">
        <ele>852.83</ele>
        <time>2011-11-06T09:41:28Z</time>
      </trkpt>
      <trkpt lat="45.21993" lon="4.30355">
        <ele>853.31</ele>
        <time>2011-11-06T09:41:42Z</time>
      </trkpt>
      <trkpt lat="45.22012" lon="4.30346">
        <ele>853.79</ele>
        <time>2011-11-06T09:41:59Z</time>
      </trkpt>
      <trkpt lat="45.22035" lon="4.30332">
        <ele>852.83</ele>
        <time>2011-11-06T09:42:13Z</time>
      </trkpt>
      <trkpt lat="45.22052" lon="4.30311">
        <ele>855.23</ele>
        <time>2011-11-06T09:42:24Z</time>
      </trkpt>
      <trkpt lat="45.22065" lon="4.30281">
        <ele>854.75</ele>
        <time>2011-11-06T09:42:36Z</time>
      </trkpt>
      <trkpt lat="45.22091" lon="4.30258">
        <ele>851.87</ele>
        <time>2011-11-06T09:42:47Z</time>
      </trkpt>
      <trkpt lat="45.22096" lon="4.30257">
        <ele>851.38</ele>
        <time>2011-11-06T09:42:48Z</time>
      </trkpt>
      <trkpt lat="45.22117" lon="4.30256">
        <ele>849.46</ele>
        <time>2011-11-06T09:42:52Z</time>
      </trkpt>
      <trkpt lat="45.22159" lon="4.30232">
        <ele>848.5</ele>
        <time>2011-11-06T09:43:00Z</time>
      </trkpt>
      <trkpt lat="45.22164" lon="4.3023">
        <ele>848.5</ele>
        <time>2011-11-06T09:43:01Z</time>
      </trkpt>
      <trkpt lat="45.22168" lon="4.30229">
        <ele>848.02</ele>
        <time>2011-11-06T09:43:02Z</time>
      </trkpt>
      <trkpt lat="45.22191" lon="4.30227">
        <ele>844.66</ele>
        <time>2011-11-06T09:43:11Z</time>
      </trkpt>
      <trkpt lat="45.22204" lon="4.30227">
        <ele>841.77</ele>
        <time>2011-11-06T09:43:20Z</time>
      </trkpt>
      <trkpt lat="45.22205" lon="4.30225">
        <ele>841.77</ele>
        <time>2011-11-06T09:43:21Z</time>
      </trkpt>
      <trkpt lat="45.22206" lon="4.30222">
        <ele>841.29</ele>
        <time>2011-11-06T09:43:22Z</time>
      </trkpt>
      <trkpt lat="45.22215" lon="4.30178">
        <ele>839.37</ele>
        <time>2011-11-06T09:43:36Z</time>
      </trkpt>
      <trkpt lat="45.22222" lon="4.30161">
        <ele>840.81</ele>
        <time>2011-11-06T09:43:43Z</time>
      </trkpt>
      <trkpt lat="45.22226" lon="4.30159">
        <ele>842.25</ele>
        <time>2011-11-06T09:43:44Z</time>
      </trkpt>
      <trkpt lat="45.22229" lon="4.30157">
        <ele>843.21</ele>
        <time>2011-11-06T09:43:45Z</time>
      </trkpt>
      <trkpt lat="45.22232" lon="4.30156">
        <ele>844.18</ele>
        <time>2011-11-06T09:43:46Z</time>
      </trkpt>
      <trkpt lat="45.22234" lon="4.30156">
        <ele>844.66</ele>
        <time>2011-11-06T09:43:47Z</time>
      </trkpt>
      <trkpt lat="45.22237" lon="4.30156">
        <ele>845.14</ele>
        <time>2011-11-06T09:43:48Z</time>
      </trkpt>
      <trkpt lat="45.22266" lon="4.3016">
        <ele>851.38</ele>
        <time>2011-11-06T09:44:01Z</time>
      </trkpt>
      <trkpt lat="45.22304" lon="4.30166">
        <ele>855.71</ele>
        <time>2011-11-06T09:44:13Z</time>
      </trkpt>
      <trkpt lat="45.22344" lon="4.30156">
        <ele>856.19</ele>
        <time>2011-11-06T09:44:23Z</time>
      </trkpt>
      <trkpt lat="45.22353" lon="4.30152">
        <ele>856.67</ele>
        <time>2011-11-06T09:44:25Z</time>
      </trkpt>
      <trkpt lat="45.22411" lon="4.3012">
        <ele>856.19</ele>
        <time>2011-11-06T09:44:39Z</time>
      </trkpt>
      <trkpt lat="45.22442" lon="4.30108">
        <ele>852.83</ele>
        <time>2011-11-06T09:44:45Z</time>
      </trkpt>
      <trkpt lat="45.22448" lon="4.30107">
        <ele>852.83</ele>
        <time>2011-11-06T09:44:46Z</time>
      </trkpt>
      <trkpt lat="45.22454" lon="4.30107">
        <ele>852.35</ele>
        <time>2011-11-06T09:44:47Z</time>
      </trkpt>
      <trkpt lat="45.22459" lon="4.30108">
        <ele>852.35</ele>
        <time>2011-11-06T09:44:48Z</time>
      </trkpt>
      <trkpt lat="45.22463" lon="4.3011">
        <ele>852.35</ele>
        <time>2011-11-06T09:44:49Z</time>
      </trkpt>
      <trkpt lat="45.22473" lon="4.30111">
        <ele>852.35</ele>
        <time>2011-11-06T09:44:51Z</time>
      </trkpt>
      <trkpt lat="45.22505" lon="4.30116">
        <ele>852.35</ele>
        <time>2011-11-06T09:45:00Z</time>
      </trkpt>
      <trkpt lat="45.22533" lon="4.30136">
        <ele>852.83</ele>
        <time>2011-11-06T09:45:09Z</time>
      </trkpt>
      <trkpt lat="45.22536" lon="4.30139">
        <ele>852.83</ele>
        <time>2011-11-06T09:45:10Z</time>
      </trkpt>
      <trkpt lat="45.22554" lon="4.30155">
        <ele>854.27</ele>
        <time>2011-11-06T09:45:15Z</time>
      </trkpt>
      <trkpt lat="45.22562" lon="4.3016">
        <ele>854.75</ele>
        <time>2011-11-06T09:45:17Z</time>
      </trkpt>
      <trkpt lat="45.22566" lon="4.30163">
        <ele>855.23</ele>
        <time>2011-11-06T09:45:18Z</time>
      </trkpt>
      <trkpt lat="45.22594" lon="4.30199">
        <ele>858.11</ele>
        <time>2011-11-06T09:45:28Z</time>
      </trkpt>
      <trkpt lat="45.22615" lon="4.30245">
        <ele>859.56</ele>
        <time>2011-11-06T09:45:40Z</time>
      </trkpt>
      <trkpt lat="45.22653" lon="4.30292">
        <ele>861.96</ele>
        <time>2011-11-06T09:45:52Z</time>
      </trkpt>
      <trkpt lat="45.22656" lon="4.30296">
        <ele>861.96</ele>
        <time>2011-11-06T09:45:53Z</time>
      </trkpt>
      <trkpt lat="45.22688" lon="4.30343">
        <ele>861.96</ele>
        <time>2011-11-06T09:46:04Z</time>
      </trkpt>
      <trkpt lat="45.22692" lon="4.30347">
        <ele>861.96</ele>
        <time>2011-11-06T09:46:05Z</time>
      </trkpt>
      <trkpt lat="45.22703" lon="4.30357">
        <ele>861.96</ele>
        <time>2011-11-06T09:46:08Z</time>
      </trkpt>
      <trkpt lat="45.22746" lon="4.30397">
        <ele>862.44</ele>
        <time>2011-11-06T09:46:21Z</time>
      </trkpt>
      <trkpt lat="45.22766" lon="4.30415">
        <ele>861.96</ele>
        <time>2011-11-06T09:46:27Z</time>
      </trkpt>
      <trkpt lat="45.22779" lon="4.30423">
        <ele>861.96</ele>
        <time>2011-11-06T09:46:30Z</time>
      </trkpt>
      <trkpt lat="45.22784" lon="4.30425">
        <ele>861.96</ele>
        <time>2011-11-06T09:46:31Z</time>
      </trkpt>
      <trkpt lat="45.22808" lon="4.3044">
        <ele>861.48</ele>
        <time>2011-11-06T09:46:37Z</time>
      </trkpt>
      <trkpt lat="45.22812" lon="4.30442">
        <ele>861</ele>
        <time>2011-11-06T09:46:38Z</time>
      </trkpt>
      <trkpt lat="45.2284" lon="4.30494">
        <ele>862.44</ele>
        <time>2011-11-06T09:46:49Z</time>
      </trkpt>
      <trkpt lat="45.22852" lon="4.3053">
        <ele>862.44</ele>
        <time>2011-11-06T09:46:56Z</time>
      </trkpt>
      <trkpt lat="45.22857" lon="4.30532">
        <ele>862.92</ele>
        <time>2011-11-06T09:46:57Z</time>
      </trkpt>
      <trkpt lat="45.2286" lon="4.30531">
        <ele>862.92</ele>
        <time>2011-11-06T09:46:58Z</time>
      </trkpt>
      <trkpt lat="45.22863" lon="4.3053">
        <ele>862.92</ele>
        <time>2011-11-06T09:46:59Z</time>
      </trkpt>
      <trkpt lat="45.22866" lon="4.30527">
        <ele>862.92</ele>
        <time>2011-11-06T09:47:00Z</time>
      </trkpt>
      <trkpt lat="45.22868" lon="4.30524">
        <ele>862.92</ele>
        <time>2011-11-06T09:47:01Z</time>
      </trkpt>
      <trkpt lat="45.2287" lon="4.3052">
        <ele>862.92</ele>
        <time>2011-11-06T09:47:02Z</time>
      </trkpt>
      <trkpt lat="45.22872" lon="4.30516">
        <ele>861.96</ele>
        <time>2011-11-06T09:47:03Z</time>
      </trkpt>
      <trkpt lat="45.22873" lon="4.30511">
        <ele>861.96</ele>
        <time>2011-11-06T09:47:04Z</time>
      </trkpt>
      <trkpt lat="45.22875" lon="4.30507">
        <ele>861.96</ele>
        <time>2011-11-06T09:47:05Z</time>
      </trkpt>
      <trkpt lat="45.22876" lon="4.30503">
        <ele>862.44</ele>
        <time>2011-11-06T09:47:06Z</time>
      </trkpt>
      <trkpt lat="45.22878" lon="4.30499">
        <ele>862.44</ele>
        <time>2011-11-06T09:47:07Z</time>
      </trkpt>
      <trkpt lat="45.2288" lon="4.30495">
        <ele>862.92</ele>
        <time>2011-11-06T09:47:08Z</time>
      </trkpt>
      <trkpt lat="45.22882" lon="4.30492">
        <ele>862.92</ele>
        <time>2011-11-06T09:47:09Z</time>
      </trkpt>
      <trkpt lat="45.22884" lon="4.30488">
        <ele>862.92</ele>
        <time>2011-11-06T09:47:10Z</time>
      </trkpt>
      <trkpt lat="45.22909" lon="4.30438">
        <ele>864.36</ele>
        <time>2011-11-06T09:47:21Z</time>
      </trkpt>
      <trkpt lat="45.22915" lon="4.30423">
        <ele>864.84</ele>
        <time>2011-11-06T09:47:24Z</time>
      </trkpt>
      <trkpt lat="45.22917" lon="4.30418">
        <ele>865.32</ele>
        <time>2011-11-06T09:47:25Z</time>
      </trkpt>
      <trkpt lat="45.22929" lon="4.30385">
        <ele>865.8</ele>
        <time>2011-11-06T09:47:30Z</time>
      </trkpt>
      <trkpt lat="45.22931" lon="4.30378">
        <ele>865.32</ele>
        <time>2011-11-06T09:47:31Z</time>
      </trkpt>
      <trkpt lat="45.22932" lon="4.30371">
        <ele>865.32</ele>
        <time>2011-11-06T09:47:32Z</time>
      </trkpt>
      <trkpt lat="45.22934" lon="4.30364">
        <ele>865.32</ele>
        <time>2011-11-06T09:47:33Z</time>
      </trkpt>
      <trkpt lat="45.22935" lon="4.30358">
        <ele>865.32</ele>
        <time>2011-11-06T09:47:34Z</time>
      </trkpt>
      <trkpt lat="45.22939" lon="4.30339">
        <ele>865.32</ele>
        <time>2011-11-06T09:47:37Z</time>
      </trkpt>
      <trkpt lat="45.2294" lon="4.30333">
        <ele>865.32</ele>
        <time>2011-11-06T09:47:38Z</time>
      </trkpt>
      <trkpt lat="45.22942" lon="4.3028">
        <ele>865.8</ele>
        <time>2011-11-06T09:47:46Z</time>
      </trkpt>
      <trkpt lat="45.22941" lon="4.30176">
        <ele>865.32</ele>
        <time>2011-11-06T09:48:01Z</time>
      </trkpt>
      <trkpt lat="45.22962" lon="4.30098">
        <ele>864.36</ele>
        <time>2011-11-06T09:48:12Z</time>
      </trkpt>
      <trkpt lat="45.22963" lon="4.3009">
        <ele>864.36</ele>
        <time>2011-11-06T09:48:13Z</time>
      </trkpt>
      <trkpt lat="45.22965" lon="4.30068">
        <ele>864.36</ele>
        <time>2011-11-06T09:48:16Z</time>
      </trkpt>
      <trkpt lat="45.22955" lon="4.29956">
        <ele>864.84</ele>
        <time>2011-11-06T09:48:30Z</time>
      </trkpt>
      <trkpt lat="45.2295" lon="4.29916">
        <ele>864.84</ele>
        <time>2011-11-06T09:48:35Z</time>
      </trkpt>
      <trkpt lat="45.22951" lon="4.29874">
        <ele>864.36</ele>
        <time>2011-11-06T09:48:40Z</time>
      </trkpt>
      <trkpt lat="45.22964" lon="4.29794">
        <ele>862.92</ele>
        <time>2011-11-06T09:48:51Z</time>
      </trkpt>
      <trkpt lat="45.22966" lon="4.29788">
        <ele>862.92</ele>
        <time>2011-11-06T09:48:52Z</time>
      </trkpt>
      <trkpt lat="45.22969" lon="4.29783">
        <ele>862.44</ele>
        <time>2011-11-06T09:48:53Z</time>
      </trkpt>
      <trkpt lat="45.22972" lon="4.29777">
        <ele>862.44</ele>
        <time>2011-11-06T09:48:54Z</time>
      </trkpt>
      <trkpt lat="45.22974" lon="4.29771">
        <ele>862.44</ele>
        <time>2011-11-06T09:48:55Z</time>
      </trkpt>
      <trkpt lat="45.22978" lon="4.29767">
        <ele>861.96</ele>
        <time>2011-11-06T09:48:56Z</time>
      </trkpt>
      <trkpt lat="45.22982" lon="4.29763">
        <ele>861.96</ele>
        <time>2011-11-06T09:48:57Z</time>
      </trkpt>
      <trkpt lat="45.22987" lon="4.29761">
        <ele>861.96</ele>
        <time>2011-11-06T09:48:58Z</time>
      </trkpt>
      <trkpt lat="45.22991" lon="4.2976">
        <ele>861.48</ele>
        <time>2011-11-06T09:48:59Z</time>
      </trkpt>
      <trkpt lat="45.22996" lon="4.29758">
        <ele>861.48</ele>
        <time>2011-11-06T09:49:00Z</time>
      </trkpt>
      <trkpt lat="45.23001" lon="4.29757">
        <ele>861.48</ele>
        <time>2011-11-06T09:49:01Z</time>
      </trkpt>
      <trkpt lat="45.23005" lon="4.29755">
        <ele>861.48</ele>
        <time>2011-11-06T09:49:02Z</time>
      </trkpt>
      <trkpt lat="45.23062" lon="4.29743">
        <ele>861.48</ele>
        <time>2011-11-06T09:49:14Z</time>
      </trkpt>
      <trkpt lat="45.2311" lon="4.29747">
        <ele>862.92</ele>
        <time>2011-11-06T09:49:24Z</time>
      </trkpt>
      <trkpt lat="45.23152" lon="4.29764">
        <ele>866.77</ele>
        <time>2011-11-06T09:49:34Z</time>
      </trkpt>
      <trkpt lat="45.23157" lon="4.29766">
        <ele>867.25</ele>
        <time>2011-11-06T09:49:35Z</time>
      </trkpt>
      <trkpt lat="45.23199" lon="4.29778">
        <ele>869.65</ele>
        <time>2011-11-06T09:49:44Z</time>
      </trkpt>
      <trkpt lat="45.23212" lon="4.2978">
        <ele>869.17</ele>
        <time>2011-11-06T09:49:47Z</time>
      </trkpt>
      <trkpt lat="45.23217" lon="4.29782">
        <ele>869.17</ele>
        <time>2011-11-06T09:49:48Z</time>
      </trkpt>
      <trkpt lat="45.23221" lon="4.29783">
        <ele>869.17</ele>
        <time>2011-11-06T09:49:49Z</time>
      </trkpt>
      <trkpt lat="45.23259" lon="4.29795">
        <ele>869.17</ele>
        <time>2011-11-06T09:49:58Z</time>
      </trkpt>
      <trkpt lat="45.23301" lon="4.29823">
        <ele>867.25</ele>
        <time>2011-11-06T09:50:09Z</time>
      </trkpt>
      <trkpt lat="45.23361" lon="4.29841">
        <ele>865.8</ele>
        <time>2011-11-06T09:50:21Z</time>
      </trkpt>
      <trkpt lat="45.23366" lon="4.29842">
        <ele>865.32</ele>
        <time>2011-11-06T09:50:22Z</time>
      </trkpt>
      <trkpt lat="45.23382" lon="4.29844">
        <ele>865.8</ele>
        <time>2011-11-06T09:50:25Z</time>
      </trkpt>
      <trkpt lat="45.23402" lon="4.29842">
        <ele>865.32</ele>
        <time>2011-11-06T09:50:29Z</time>
      </trkpt>
      <trkpt lat="45.23407" lon="4.29839">
        <ele>865.32</ele>
        <time>2011-11-06T09:50:30Z</time>
      </trkpt>
      <trkpt lat="45.23411" lon="4.29837">
        <ele>864.84</ele>
        <time>2011-11-06T09:50:31Z</time>
      </trkpt>
      <trkpt lat="45.23424" lon="4.29832">
        <ele>863.88</ele>
        <time>2011-11-06T09:50:34Z</time>
      </trkpt>
      <trkpt lat="45.23429" lon="4.2983">
        <ele>862.92</ele>
        <time>2011-11-06T09:50:35Z</time>
      </trkpt>
      <trkpt lat="45.23433" lon="4.29827">
        <ele>862.44</ele>
        <time>2011-11-06T09:50:36Z</time>
      </trkpt>
      <trkpt lat="45.23467" lon="4.29815">
        <ele>861.48</ele>
        <time>2011-11-06T09:50:45Z</time>
      </trkpt>
      <trkpt lat="45.23525" lon="4.298">
        <ele>861</ele>
        <time>2011-11-06T09:50:56Z</time>
      </trkpt>
      <trkpt lat="45.23544" lon="4.29792">
        <ele>860.52</ele>
        <time>2011-11-06T09:51:00Z</time>
      </trkpt>
      <trkpt lat="45.2358" lon="4.29774">
        <ele>859.08</ele>
        <time>2011-11-06T09:51:07Z</time>
      </trkpt>
      <trkpt lat="45.23591" lon="4.29769">
        <ele>858.11</ele>
        <time>2011-11-06T09:51:09Z</time>
      </trkpt>
      <trkpt lat="45.23637" lon="4.29743">
        <ele>853.31</ele>
        <time>2011-11-06T09:51:17Z</time>
      </trkpt>
      <trkpt lat="45.23715" lon="4.29715">
        <ele>833.6</ele>
        <time>2011-11-06T09:51:30Z</time>
      </trkpt>
      <trkpt lat="45.23719" lon="4.29713">
        <ele>832.64</ele>
        <time>2011-11-06T09:51:31Z</time>
      </trkpt>
      <trkpt lat="45.23724" lon="4.29711">
        <ele>831.68</ele>
        <time>2011-11-06T09:51:32Z</time>
      </trkpt>
      <trkpt lat="45.23727" lon="4.29707">
        <ele>831.2</ele>
        <time>2011-11-06T09:51:33Z</time>
      </trkpt>
      <trkpt lat="45.23729" lon="4.29702">
        <ele>830.72</ele>
        <time>2011-11-06T09:51:34Z</time>
      </trkpt>
      <trkpt lat="45.23731" lon="4.29696">
        <ele>829.76</ele>
        <time>2011-11-06T09:51:35Z</time>
      </trkpt>
      <trkpt lat="45.23732" lon="4.29689">
        <ele>829.27</ele>
        <time>2011-11-06T09:51:36Z</time>
      </trkpt>
      <trkpt lat="45.23733" lon="4.29681">
        <ele>828.31</ele>
        <time>2011-11-06T09:51:37Z</time>
      </trkpt>
      <trkpt lat="45.23735" lon="4.29673">
        <ele>827.35</ele>
        <time>2011-11-06T09:51:38Z</time>
      </trkpt>
      <trkpt lat="45.23737" lon="4.29667">
        <ele>826.87</ele>
        <time>2011-11-06T09:51:39Z</time>
      </trkpt>
      <trkpt lat="45.2374" lon="4.29661">
        <ele>825.91</ele>
        <time>2011-11-06T09:51:40Z</time>
      </trkpt>
      <trkpt lat="45.23745" lon="4.29656">
        <ele>824.95</ele>
        <time>2011-11-06T09:51:41Z</time>
      </trkpt>
      <trkpt lat="45.2375" lon="4.29651">
        <ele>823.51</ele>
        <time>2011-11-06T09:51:42Z</time>
      </trkpt>
      <trkpt lat="45.23754" lon="4.29648">
        <ele>823.03</ele>
        <time>2011-11-06T09:51:43Z</time>
      </trkpt>
      <trkpt lat="45.23757" lon="4.29645">
        <ele>822.55</ele>
        <time>2011-11-06T09:51:44Z</time>
      </trkpt>
      <trkpt lat="45.23757" lon="4.29597">
        <ele>817.26</ele>
        <time>2011-11-06T09:51:53Z</time>
      </trkpt>
      <trkpt lat="45.23744" lon="4.29568">
        <ele>814.85</ele>
        <time>2011-11-06T09:51:59Z</time>
      </trkpt>
      <trkpt lat="45.23742" lon="4.29562">
        <ele>814.37</ele>
        <time>2011-11-06T09:52:00Z</time>
      </trkpt>
      <trkpt lat="45.23741" lon="4.29556">
        <ele>813.89</ele>
        <time>2011-11-06T09:52:01Z</time>
      </trkpt>
      <trkpt lat="45.2374" lon="4.29549">
        <ele>813.89</ele>
        <time>2011-11-06T09:52:02Z</time>
      </trkpt>
      <trkpt lat="45.23739" lon="4.29542">
        <ele>813.41</ele>
        <time>2011-11-06T09:52:03Z</time>
      </trkpt>
      <trkpt lat="45.23738" lon="4.29527">
        <ele>812.93</ele>
        <time>2011-11-06T09:52:05Z</time>
      </trkpt>
      <trkpt lat="45.23737" lon="4.29519">
        <ele>812.93</ele>
        <time>2011-11-06T09:52:06Z</time>
      </trkpt>
      <trkpt lat="45.23737" lon="4.29511">
        <ele>812.45</ele>
        <time>2011-11-06T09:52:07Z</time>
      </trkpt>
      <trkpt lat="45.23738" lon="4.29493">
        <ele>811.97</ele>
        <time>2011-11-06T09:52:09Z</time>
      </trkpt>
      <trkpt lat="45.23732" lon="4.29427">
        <ele>808.61</ele>
        <time>2011-11-06T09:52:15Z</time>
      </trkpt>
      <trkpt lat="45.23723" lon="4.2933">
        <ele>802.36</ele>
        <time>2011-11-06T09:52:23Z</time>
      </trkpt>
      <trkpt lat="45.23709" lon="4.29259">
        <ele>798.51</ele>
        <time>2011-11-06T09:52:28Z</time>
      </trkpt>
      <trkpt lat="45.23708" lon="4.2922">
        <ele>797.07</ele>
        <time>2011-11-06T09:52:31Z</time>
      </trkpt>
      <trkpt lat="45.23709" lon="4.29208">
        <ele>796.11</ele>
        <time>2011-11-06T09:52:32Z</time>
      </trkpt>
      <trkpt lat="45.23711" lon="4.29195">
        <ele>795.63</ele>
        <time>2011-11-06T09:52:33Z</time>
      </trkpt>
      <trkpt lat="45.23714" lon="4.29182">
        <ele>794.67</ele>
        <time>2011-11-06T09:52:34Z</time>
      </trkpt>
      <trkpt lat="45.23719" lon="4.29169">
        <ele>794.19</ele>
        <time>2011-11-06T09:52:35Z</time>
      </trkpt>
      <trkpt lat="45.23723" lon="4.29157">
        <ele>793.22</ele>
        <time>2011-11-06T09:52:36Z</time>
      </trkpt>
      <trkpt lat="45.2373" lon="4.29146">
        <ele>792.26</ele>
        <time>2011-11-06T09:52:37Z</time>
      </trkpt>
      <trkpt lat="45.23737" lon="4.29136">
        <ele>790.82</ele>
        <time>2011-11-06T09:52:38Z</time>
      </trkpt>
      <trkpt lat="45.23746" lon="4.29127">
        <ele>789.86</ele>
        <time>2011-11-06T09:52:39Z</time>
      </trkpt>
      <trkpt lat="45.23756" lon="4.29119">
        <ele>788.9</ele>
        <time>2011-11-06T09:52:40Z</time>
      </trkpt>
      <trkpt lat="45.23784" lon="4.29094">
        <ele>786.02</ele>
        <time>2011-11-06T09:52:43Z</time>
      </trkpt>
      <trkpt lat="45.23792" lon="4.29083">
        <ele>785.05</ele>
        <time>2011-11-06T09:52:44Z</time>
      </trkpt>
      <trkpt lat="45.23799" lon="4.29071">
        <ele>784.09</ele>
        <time>2011-11-06T09:52:45Z</time>
      </trkpt>
      <trkpt lat="45.23811" lon="4.29049">
        <ele>783.13</ele>
        <time>2011-11-06T09:52:47Z</time>
      </trkpt>
      <trkpt lat="45.23819" lon="4.29041">
        <ele>782.65</ele>
        <time>2011-11-06T09:52:48Z</time>
      </trkpt>
      <trkpt lat="45.23828" lon="4.29036">
        <ele>782.65</ele>
        <time>2011-11-06T09:52:49Z</time>
      </trkpt>
      <trkpt lat="45.23836" lon="4.29033">
        <ele>782.17</ele>
        <time>2011-11-06T09:52:50Z</time>
      </trkpt>
      <trkpt lat="45.23844" lon="4.29032">
        <ele>781.69</ele>
        <time>2011-11-06T09:52:51Z</time>
      </trkpt>
      <trkpt lat="45.23855" lon="4.2903">
        <ele>780.73</ele>
        <time>2011-11-06T09:52:53Z</time>
      </trkpt>
      <trkpt lat="45.23859" lon="4.29027">
        <ele>780.73</ele>
        <time>2011-11-06T09:52:54Z</time>
      </trkpt>
      <trkpt lat="45.23878" lon="4.29003">
        <ele>781.69</ele>
        <time>2011-11-06T09:53:03Z</time>
      </trkpt>
      <trkpt lat="45.23891" lon="4.28963">
        <ele>784.57</ele>
        <time>2011-11-06T09:53:13Z</time>
      </trkpt>
      <trkpt lat="45.23915" lon="4.2889">
        <ele>785.53</ele>
        <time>2011-11-06T09:53:29Z</time>
      </trkpt>
      <trkpt lat="45.2393" lon="4.28828">
        <ele>785.53</ele>
        <time>2011-11-06T09:53:41Z</time>
      </trkpt>
      <trkpt lat="45.2394" lon="4.28799">
        <ele>785.53</ele>
        <time>2011-11-06T09:53:46Z</time>
      </trkpt>
      <trkpt lat="45.23942" lon="4.28795">
        <ele>785.53</ele>
        <time>2011-11-06T09:53:47Z</time>
      </trkpt>
      <trkpt lat="45.23985" lon="4.28729">
        <ele>787.94</ele>
        <time>2011-11-06T09:54:02Z</time>
      </trkpt>
      <trkpt lat="45.23995" lon="4.28706">
        <ele>787.94</ele>
        <time>2011-11-06T09:54:06Z</time>
      </trkpt>
      <trkpt lat="45.23996" lon="4.28698">
        <ele>788.42</ele>
        <time>2011-11-06T09:54:07Z</time>
      </trkpt>
      <trkpt lat="45.23997" lon="4.2869">
        <ele>788.42</ele>
        <time>2011-11-06T09:54:08Z</time>
      </trkpt>
      <trkpt lat="45.24011" lon="4.28636">
        <ele>787.94</ele>
        <time>2011-11-06T09:54:16Z</time>
      </trkpt>
      <trkpt lat="45.24023" lon="4.28576">
        <ele>788.42</ele>
        <time>2011-11-06T09:54:25Z</time>
      </trkpt>
      <trkpt lat="45.24024" lon="4.28569">
        <ele>788.42</ele>
        <time>2011-11-06T09:54:26Z</time>
      </trkpt>
      <trkpt lat="45.24042" lon="4.28476">
        <ele>788.9</ele>
        <time>2011-11-06T09:54:38Z</time>
      </trkpt>
      <trkpt lat="45.24043" lon="4.28468">
        <ele>788.42</ele>
        <time>2011-11-06T09:54:39Z</time>
      </trkpt>
      <trkpt lat="45.2405" lon="4.28375">
        <ele>786.5</ele>
        <time>2011-11-06T09:54:48Z</time>
      </trkpt>
      <trkpt lat="45.24053" lon="4.28365">
        <ele>786.02</ele>
        <time>2011-11-06T09:54:49Z</time>
      </trkpt>
      <trkpt lat="45.24082" lon="4.28252">
        <ele>786.02</ele>
        <time>2011-11-06T09:55:01Z</time>
      </trkpt>
      <trkpt lat="45.24114" lon="4.28129">
        <ele>786.5</ele>
        <time>2011-11-06T09:55:16Z</time>
      </trkpt>
      <trkpt lat="45.24156" lon="4.27971">
        <ele>784.57</ele>
        <time>2011-11-06T09:55:35Z</time>
      </trkpt>
      <trkpt lat="45.24159" lon="4.27962">
        <ele>784.09</ele>
        <time>2011-11-06T09:55:36Z</time>
      </trkpt>
      <trkpt lat="45.24163" lon="4.27954">
        <ele>783.61</ele>
        <time>2011-11-06T09:55:37Z</time>
      </trkpt>
      <trkpt lat="45.24219" lon="4.27883">
        <ele>779.77</ele>
        <time>2011-11-06T09:55:47Z</time>
      </trkpt>
      <trkpt lat="45.24226" lon="4.27878">
        <ele>779.77</ele>
        <time>2011-11-06T09:55:48Z</time>
      </trkpt>
      <trkpt lat="45.24232" lon="4.27873">
        <ele>779.77</ele>
        <time>2011-11-06T09:55:49Z</time>
      </trkpt>
      <trkpt lat="45.24271" lon="4.27853">
        <ele>779.77</ele>
        <time>2011-11-06T09:55:55Z</time>
      </trkpt>
      <trkpt lat="45.24286" lon="4.27841">
        <ele>779.77</ele>
        <time>2011-11-06T09:55:58Z</time>
      </trkpt>
      <trkpt lat="45.24291" lon="4.27837">
        <ele>779.77</ele>
        <time>2011-11-06T09:55:59Z</time>
      </trkpt>
      <trkpt lat="45.24295" lon="4.27832">
        <ele>779.77</ele>
        <time>2011-11-06T09:56:00Z</time>
      </trkpt>
      <trkpt lat="45.24298" lon="4.27826">
        <ele>779.77</ele>
        <time>2011-11-06T09:56:01Z</time>
      </trkpt>
      <trkpt lat="45.24299" lon="4.27819">
        <ele>780.25</ele>
        <time>2011-11-06T09:56:02Z</time>
      </trkpt>
      <trkpt lat="45.243" lon="4.2781">
        <ele>780.25</ele>
        <time>2011-11-06T09:56:03Z</time>
      </trkpt>
      <trkpt lat="45.24299" lon="4.27802">
        <ele>780.73</ele>
        <time>2011-11-06T09:56:04Z</time>
      </trkpt>
      <trkpt lat="45.24296" lon="4.27768">
        <ele>781.21</ele>
        <time>2011-11-06T09:56:08Z</time>
      </trkpt>
      <trkpt lat="45.24294" lon="4.2776">
        <ele>781.21</ele>
        <time>2011-11-06T09:56:09Z</time>
      </trkpt>
      <trkpt lat="45.24292" lon="4.27752">
        <ele>780.73</ele>
        <time>2011-11-06T09:56:10Z</time>
      </trkpt>
      <trkpt lat="45.24254" lon="4.27648">
        <ele>780.25</ele>
        <time>2011-11-06T09:56:24Z</time>
      </trkpt>
      <trkpt lat="45.24252" lon="4.27639">
        <ele>780.25</ele>
        <time>2011-11-06T09:56:25Z</time>
      </trkpt>
      <trkpt lat="45.24251" lon="4.2763">
        <ele>779.77</ele>
        <time>2011-11-06T09:56:26Z</time>
      </trkpt>
      <trkpt lat="45.2425" lon="4.27621">
        <ele>779.77</ele>
        <time>2011-11-06T09:56:27Z</time>
      </trkpt>
      <trkpt lat="45.2425" lon="4.27611">
        <ele>779.77</ele>
        <time>2011-11-06T09:56:28Z</time>
      </trkpt>
      <trkpt lat="45.24263" lon="4.27495">
        <ele>777.84</ele>
        <time>2011-11-06T09:56:40Z</time>
      </trkpt>
      <trkpt lat="45.24288" lon="4.27401">
        <ele>778.81</ele>
        <time>2011-11-06T09:56:52Z</time>
      </trkpt>
      <trkpt lat="45.24288" lon="4.27393">
        <ele>778.81</ele>
        <time>2011-11-06T09:56:53Z</time>
      </trkpt>
      <trkpt lat="45.24287" lon="4.27385">
        <ele>779.29</ele>
        <time>2011-11-06T09:56:54Z</time>
      </trkpt>
      <trkpt lat="45.2428" lon="4.27324">
        <ele>781.69</ele>
        <time>2011-11-06T09:57:03Z</time>
      </trkpt>
      <trkpt lat="45.24278" lon="4.27317">
        <ele>781.69</ele>
        <time>2011-11-06T09:57:04Z</time>
      </trkpt>
      <trkpt lat="45.24274" lon="4.27303">
        <ele>781.69</ele>
        <time>2011-11-06T09:57:06Z</time>
      </trkpt>
      <trkpt lat="45.24273" lon="4.27295">
        <ele>781.69</ele>
        <time>2011-11-06T09:57:07Z</time>
      </trkpt>
      <trkpt lat="45.24274" lon="4.27288">
        <ele>781.69</ele>
        <time>2011-11-06T09:57:08Z</time>
      </trkpt>
      <trkpt lat="45.24275" lon="4.27283">
        <ele>781.21</ele>
        <time>2011-11-06T09:57:09Z</time>
      </trkpt>
      <trkpt lat="45.24278" lon="4.27278">
        <ele>781.21</ele>
        <time>2011-11-06T09:57:10Z</time>
      </trkpt>
      <trkpt lat="45.24281" lon="4.27273">
        <ele>781.21</ele>
        <time>2011-11-06T09:57:11Z</time>
      </trkpt>
      <trkpt lat="45.24284" lon="4.27268">
        <ele>781.21</ele>
        <time>2011-11-06T09:57:12Z</time>
      </trkpt>
      <trkpt lat="45.24293" lon="4.27221">
        <ele>782.65</ele>
        <time>2011-11-06T09:57:22Z</time>
      </trkpt>
      <trkpt lat="45.24289" lon="4.27199">
        <ele>783.13</ele>
        <time>2011-11-06T09:57:25Z</time>
      </trkpt>
      <trkpt lat="45.24245" lon="4.27076">
        <ele>780.25</ele>
        <time>2011-11-06T09:57:38Z</time>
      </trkpt>
      <trkpt lat="45.24241" lon="4.27067">
        <ele>779.77</ele>
        <time>2011-11-06T09:57:39Z</time>
      </trkpt>
      <trkpt lat="45.24237" lon="4.27059">
        <ele>779.77</ele>
        <time>2011-11-06T09:57:40Z</time>
      </trkpt>
      <trkpt lat="45.24233" lon="4.27052">
        <ele>779.77</ele>
        <time>2011-11-06T09:57:41Z</time>
      </trkpt>
      <trkpt lat="45.24228" lon="4.27046">
        <ele>778.81</ele>
        <time>2011-11-06T09:57:42Z</time>
      </trkpt>
      <trkpt lat="45.24223" lon="4.27041">
        <ele>778.32</ele>
        <time>2011-11-06T09:57:43Z</time>
      </trkpt>
      <trkpt lat="45.24159" lon="4.26983">
        <ele>775.92</ele>
        <time>2011-11-06T09:57:56Z</time>
      </trkpt>
      <trkpt lat="45.2415" lon="4.26977">
        <ele>775.44</ele>
        <time>2011-11-06T09:57:58Z</time>
      </trkpt>
      <trkpt lat="45.24134" lon="4.2696">
        <ele>775.92</ele>
        <time>2011-11-06T09:58:02Z</time>
      </trkpt>
      <trkpt lat="45.24131" lon="4.26954">
        <ele>775.92</ele>
        <time>2011-11-06T09:58:03Z</time>
      </trkpt>
      <trkpt lat="45.24129" lon="4.26947">
        <ele>775.44</ele>
        <time>2011-11-06T09:58:04Z</time>
      </trkpt>
      <trkpt lat="45.24126" lon="4.26933">
        <ele>774.96</ele>
        <time>2011-11-06T09:58:06Z</time>
      </trkpt>
      <trkpt lat="45.24116" lon="4.26865">
        <ele>774.48</ele>
        <time>2011-11-06T09:58:15Z</time>
      </trkpt>
      <trkpt lat="45.24111" lon="4.26836">
        <ele>774.48</ele>
        <time>2011-11-06T09:58:20Z</time>
      </trkpt>
      <trkpt lat="45.24105" lon="4.26808">
        <ele>774</ele>
        <time>2011-11-06T09:58:24Z</time>
      </trkpt>
      <trkpt lat="45.241" lon="4.26793">
        <ele>773.52</ele>
        <time>2011-11-06T09:58:26Z</time>
      </trkpt>
      <trkpt lat="45.24087" lon="4.26767">
        <ele>772.56</ele>
        <time>2011-11-06T09:58:30Z</time>
      </trkpt>
      <trkpt lat="45.24083" lon="4.26761">
        <ele>772.08</ele>
        <time>2011-11-06T09:58:31Z</time>
      </trkpt>
      <trkpt lat="45.24079" lon="4.26755">
        <ele>771.6</ele>
        <time>2011-11-06T09:58:32Z</time>
      </trkpt>
      <trkpt lat="45.24073" lon="4.2675">
        <ele>771.6</ele>
        <time>2011-11-06T09:58:33Z</time>
      </trkpt>
      <trkpt lat="45.24068" lon="4.26747">
        <ele>771.11</ele>
        <time>2011-11-06T09:58:34Z</time>
      </trkpt>
      <trkpt lat="45.24062" lon="4.26744">
        <ele>771.11</ele>
        <time>2011-11-06T09:58:35Z</time>
      </trkpt>
      <trkpt lat="45.24056" lon="4.26741">
        <ele>771.6</ele>
        <time>2011-11-06T09:58:36Z</time>
      </trkpt>
      <trkpt lat="45.23983" lon="4.26721">
        <ele>770.15</ele>
        <time>2011-11-06T09:58:46Z</time>
      </trkpt>
      <trkpt lat="45.23976" lon="4.26716">
        <ele>769.67</ele>
        <time>2011-11-06T09:58:47Z</time>
      </trkpt>
      <trkpt lat="45.23969" lon="4.2671">
        <ele>769.19</ele>
        <time>2011-11-06T09:58:48Z</time>
      </trkpt>
      <trkpt lat="45.23964" lon="4.26701">
        <ele>768.71</ele>
        <time>2011-11-06T09:58:49Z</time>
      </trkpt>
      <trkpt lat="45.23961" lon="4.26693">
        <ele>768.23</ele>
        <time>2011-11-06T09:58:50Z</time>
      </trkpt>
      <trkpt lat="45.23959" lon="4.26683">
        <ele>767.75</ele>
        <time>2011-11-06T09:58:51Z</time>
      </trkpt>
      <trkpt lat="45.23958" lon="4.26673">
        <ele>767.27</ele>
        <time>2011-11-06T09:58:52Z</time>
      </trkpt>
      <trkpt lat="45.23957" lon="4.26664">
        <ele>766.79</ele>
        <time>2011-11-06T09:58:53Z</time>
      </trkpt>
      <trkpt lat="45.23957" lon="4.26653">
        <ele>766.31</ele>
        <time>2011-11-06T09:58:54Z</time>
      </trkpt>
      <trkpt lat="45.23958" lon="4.26643">
        <ele>765.35</ele>
        <time>2011-11-06T09:58:55Z</time>
      </trkpt>
      <trkpt lat="45.2396" lon="4.26634">
        <ele>764.87</ele>
        <time>2011-11-06T09:58:56Z</time>
      </trkpt>
      <trkpt lat="45.23962" lon="4.26625">
        <ele>764.39</ele>
        <time>2011-11-06T09:58:57Z</time>
      </trkpt>
      <trkpt lat="45.23968" lon="4.26623">
        <ele>762.94</ele>
        <time>2011-11-06T09:58:58Z</time>
      </trkpt>
      <trkpt lat="45.23974" lon="4.2662">
        <ele>762.46</ele>
        <time>2011-11-06T09:58:59Z</time>
      </trkpt>
      <trkpt lat="45.24019" lon="4.26589">
        <ele>766.31</ele>
        <time>2011-11-06T09:59:07Z</time>
      </trkpt>
      <trkpt lat="45.24024" lon="4.26584">
        <ele>766.79</ele>
        <time>2011-11-06T09:59:08Z</time>
      </trkpt>
      <trkpt lat="45.24026" lon="4.26578">
        <ele>767.27</ele>
        <time>2011-11-06T09:59:09Z</time>
      </trkpt>
      <trkpt lat="45.24028" lon="4.26571">
        <ele>767.75</ele>
        <time>2011-11-06T09:59:10Z</time>
      </trkpt>
      <trkpt lat="45.24031" lon="4.26564">
        <ele>768.23</ele>
        <time>2011-11-06T09:59:11Z</time>
      </trkpt>
      <trkpt lat="45.2404" lon="4.26533">
        <ele>770.15</ele>
        <time>2011-11-06T09:59:15Z</time>
      </trkpt>
      <trkpt lat="45.24067" lon="4.2646">
        <ele>773.52</ele>
        <time>2011-11-06T09:59:23Z</time>
      </trkpt>
      <trkpt lat="45.24068" lon="4.26449">
        <ele>773.52</ele>
        <time>2011-11-06T09:59:24Z</time>
      </trkpt>
      <trkpt lat="45.2407" lon="4.26429">
        <ele>774.48</ele>
        <time>2011-11-06T09:59:26Z</time>
      </trkpt>
      <trkpt lat="45.2407" lon="4.26421">
        <ele>774.96</ele>
        <time>2011-11-06T09:59:27Z</time>
      </trkpt>
      <trkpt lat="45.24069" lon="4.26366">
        <ele>780.73</ele>
        <time>2011-11-06T09:59:37Z</time>
      </trkpt>
      <trkpt lat="45.24077" lon="4.26337">
        <ele>786.5</ele>
        <time>2011-11-06T09:59:49Z</time>
      </trkpt>
      <trkpt lat="45.24078" lon="4.26334">
        <ele>787.46</ele>
        <time>2011-11-06T09:59:50Z</time>
      </trkpt>
      <trkpt lat="45.24107" lon="4.2625">
        <ele>796.11</ele>
        <time>2011-11-06T10:00:04Z</time>
      </trkpt>
      <trkpt lat="45.24098" lon="4.26192">
        <ele>792.26</ele>
        <time>2011-11-06T10:00:17Z</time>
      </trkpt>
      <trkpt lat="45.24084" lon="4.26145">
        <ele>789.38</ele>
        <time>2011-11-06T10:00:28Z</time>
      </trkpt>
      <trkpt lat="45.24057" lon="4.26101">
        <ele>784.57</ele>
        <time>2011-11-06T10:00:39Z</time>
      </trkpt>
      <trkpt lat="45.24047" lon="4.26053">
        <ele>779.29</ele>
        <time>2011-11-06T10:00:52Z</time>
      </trkpt>
      <trkpt lat="45.24034" lon="4.26019">
        <ele>776.4</ele>
        <time>2011-11-06T10:01:02Z</time>
      </trkpt>
      <trkpt lat="45.24018" lon="4.26008">
        <ele>773.04</ele>
        <time>2011-11-06T10:01:12Z</time>
      </trkpt>
      <trkpt lat="45.24015" lon="4.26011">
        <ele>772.56</ele>
        <time>2011-11-06T10:01:22Z</time>
      </trkpt>
      <trkpt lat="45.24016" lon="4.26012">
        <ele>772.08</ele>
        <time>2011-11-06T10:01:23Z</time>
      </trkpt>
      <trkpt lat="45.24017" lon="4.26013">
        <ele>772.08</ele>
        <time>2011-11-06T10:01:24Z</time>
      </trkpt>
      <trkpt lat="45.24024" lon="4.2601">
        <ele>772.08</ele>
        <time>2011-11-06T10:01:30Z</time>
      </trkpt>
      <trkpt lat="45.24024" lon="4.26002">
        <ele>771.6</ele>
        <time>2011-11-06T10:01:35Z</time>
      </trkpt>
      <trkpt lat="45.24024" lon="4.25999">
        <ele>771.6</ele>
        <time>2011-11-06T10:01:37Z</time>
      </trkpt>
      <trkpt lat="45.24019" lon="4.2599">
        <ele>770.63</ele>
        <time>2011-11-06T10:01:42Z</time>
      </trkpt>
      <trkpt lat="45.24018" lon="4.25978">
        <ele>769.19</ele>
        <time>2011-11-06T10:01:48Z</time>
      </trkpt>
      <trkpt lat="45.24017" lon="4.2597">
        <ele>768.71</ele>
        <time>2011-11-06T10:01:53Z</time>
      </trkpt>
      <trkpt lat="45.24015" lon="4.25964">
        <ele>768.71</ele>
        <time>2011-11-06T10:01:57Z</time>
      </trkpt>
      <trkpt lat="45.24007" lon="4.25945">
        <ele>773.04</ele>
        <time>2011-11-06T10:02:10Z</time>
      </trkpt>
      <trkpt lat="45.24008" lon="4.25925">
        <ele>775.44</ele>
        <time>2011-11-06T10:02:23Z</time>
      </trkpt>
      <trkpt lat="45.24012" lon="4.25918">
        <ele>775.92</ele>
        <time>2011-11-06T10:02:28Z</time>
      </trkpt>
      <trkpt lat="45.24023" lon="4.25895">
        <ele>782.17</ele>
        <time>2011-11-06T10:02:43Z</time>
      </trkpt>
      <trkpt lat="45.24032" lon="4.25877">
        <ele>788.42</ele>
        <time>2011-11-06T10:02:58Z</time>
      </trkpt>
      <trkpt lat="45.24037" lon="4.25856">
        <ele>798.03</ele>
        <time>2011-11-06T10:03:15Z</time>
      </trkpt>
      <trkpt lat="45.24037" lon="4.25854">
        <ele>799.47</ele>
        <time>2011-11-06T10:03:18Z</time>
      </trkpt>
      <trkpt lat="45.24043" lon="4.25848">
        <ele>801.88</ele>
        <time>2011-11-06T10:03:20Z</time>
      </trkpt>
      <trkpt lat="45.24052" lon="4.25839">
        <ele>812.45</ele>
        <time>2011-11-06T10:03:30Z</time>
      </trkpt>
      <trkpt lat="45.2406" lon="4.25822">
        <ele>819.18</ele>
        <time>2011-11-06T10:03:39Z</time>
      </trkpt>
      <trkpt lat="45.24093" lon="4.25772">
        <ele>816.78</ele>
        <time>2011-11-06T10:03:53Z</time>
      </trkpt>
      <trkpt lat="45.24127" lon="4.25686">
        <ele>811.49</ele>
        <time>2011-11-06T10:04:10Z</time>
      </trkpt>
      <trkpt lat="45.24163" lon="4.25633">
        <ele>810.05</ele>
        <time>2011-11-06T10:04:23Z</time>
      </trkpt>
      <trkpt lat="45.24194" lon="4.25597">
        <ele>811.49</ele>
        <time>2011-11-06T10:04:33Z</time>
      </trkpt>
      <trkpt lat="45.24229" lon="4.25559">
        <ele>811.97</ele>
        <time>2011-11-06T10:04:45Z</time>
      </trkpt>
      <trkpt lat="45.24261" lon="4.25525">
        <ele>811.97</ele>
        <time>2011-11-06T10:04:57Z</time>
      </trkpt>
      <trkpt lat="45.24288" lon="4.25482">
        <ele>814.37</ele>
        <time>2011-11-06T10:05:08Z</time>
      </trkpt>
      <trkpt lat="45.24289" lon="4.25446">
        <ele>817.26</ele>
        <time>2011-11-06T10:05:16Z</time>
      </trkpt>
      <trkpt lat="45.24291" lon="4.25423">
        <ele>817.74</ele>
        <time>2011-11-06T10:05:21Z</time>
      </trkpt>
      <trkpt lat="45.2429" lon="4.25405">
        <ele>817.26</ele>
        <time>2011-11-06T10:05:26Z</time>
      </trkpt>
      <trkpt lat="45.24296" lon="4.25406">
        <ele>817.26</ele>
        <time>2011-11-06T10:05:31Z</time>
      </trkpt>
      <trkpt lat="45.24323" lon="4.25453">
        <ele>818.22</ele>
        <time>2011-11-06T10:05:45Z</time>
      </trkpt>
      <trkpt lat="45.2433" lon="4.25484">
        <ele>819.66</ele>
        <time>2011-11-06T10:05:52Z</time>
      </trkpt>
      <trkpt lat="45.24337" lon="4.25477">
        <ele>821.1</ele>
        <time>2011-11-06T10:05:57Z</time>
      </trkpt>
      <trkpt lat="45.24348" lon="4.25426">
        <ele>819.66</ele>
        <time>2011-11-06T10:06:06Z</time>
      </trkpt>
      <trkpt lat="45.24348" lon="4.25419">
        <ele>819.18</ele>
        <time>2011-11-06T10:06:07Z</time>
      </trkpt>
      <trkpt lat="45.24348" lon="4.25412">
        <ele>819.18</ele>
        <time>2011-11-06T10:06:08Z</time>
      </trkpt>
      <trkpt lat="45.24346" lon="4.25404">
        <ele>819.18</ele>
        <time>2011-11-06T10:06:09Z</time>
      </trkpt>
      <trkpt lat="45.24344" lon="4.25397">
        <ele>818.7</ele>
        <time>2011-11-06T10:06:10Z</time>
      </trkpt>
      <trkpt lat="45.2434" lon="4.2539">
        <ele>818.7</ele>
        <time>2011-11-06T10:06:11Z</time>
      </trkpt>
      <trkpt lat="45.24336" lon="4.25384">
        <ele>818.22</ele>
        <time>2011-11-06T10:06:12Z</time>
      </trkpt>
      <trkpt lat="45.24332" lon="4.25378">
        <ele>818.22</ele>
        <time>2011-11-06T10:06:13Z</time>
      </trkpt>
      <trkpt lat="45.24319" lon="4.25354">
        <ele>817.26</ele>
        <time>2011-11-06T10:06:17Z</time>
      </trkpt>
      <trkpt lat="45.24316" lon="4.25347">
        <ele>816.78</ele>
        <time>2011-11-06T10:06:18Z</time>
      </trkpt>
      <trkpt lat="45.24315" lon="4.2534">
        <ele>816.78</ele>
        <time>2011-11-06T10:06:19Z</time>
      </trkpt>
      <trkpt lat="45.24314" lon="4.25333">
        <ele>816.3</ele>
        <time>2011-11-06T10:06:20Z</time>
      </trkpt>
      <trkpt lat="45.24314" lon="4.25326">
        <ele>816.3</ele>
        <time>2011-11-06T10:06:21Z</time>
      </trkpt>
      <trkpt lat="45.24316" lon="4.25319">
        <ele>815.82</ele>
        <time>2011-11-06T10:06:22Z</time>
      </trkpt>
      <trkpt lat="45.24318" lon="4.25312">
        <ele>815.34</ele>
        <time>2011-11-06T10:06:23Z</time>
      </trkpt>
      <trkpt lat="45.2432" lon="4.25305">
        <ele>814.85</ele>
        <time>2011-11-06T10:06:24Z</time>
      </trkpt>
      <trkpt lat="45.24336" lon="4.25253">
        <ele>812.93</ele>
        <time>2011-11-06T10:06:32Z</time>
      </trkpt>
      <trkpt lat="45.24338" lon="4.25245">
        <ele>812.45</ele>
        <time>2011-11-06T10:06:33Z</time>
      </trkpt>
      <trkpt lat="45.24349" lon="4.25195">
        <ele>811.49</ele>
        <time>2011-11-06T10:06:39Z</time>
      </trkpt>
      <trkpt lat="45.24353" lon="4.25186">
        <ele>811.01</ele>
        <time>2011-11-06T10:06:40Z</time>
      </trkpt>
      <trkpt lat="45.24414" lon="4.25061">
        <ele>808.61</ele>
        <time>2011-11-06T10:06:54Z</time>
      </trkpt>
      <trkpt lat="45.24435" lon="4.25007">
        <ele>806.2</ele>
        <time>2011-11-06T10:06:59Z</time>
      </trkpt>
      <trkpt lat="45.2444" lon="4.24996">
        <ele>805.72</ele>
        <time>2011-11-06T10:07:00Z</time>
      </trkpt>
      <trkpt lat="45.24483" lon="4.24918">
        <ele>797.07</ele>
        <time>2011-11-06T10:07:08Z</time>
      </trkpt>
      <trkpt lat="45.24485" lon="4.24909">
        <ele>796.11</ele>
        <time>2011-11-06T10:07:09Z</time>
      </trkpt>
      <trkpt lat="45.24486" lon="4.249">
        <ele>795.63</ele>
        <time>2011-11-06T10:07:10Z</time>
      </trkpt>
      <trkpt lat="45.24485" lon="4.24889">
        <ele>795.15</ele>
        <time>2011-11-06T10:07:11Z</time>
      </trkpt>
      <trkpt lat="45.24482" lon="4.24879">
        <ele>794.19</ele>
        <time>2011-11-06T10:07:12Z</time>
      </trkpt>
      <trkpt lat="45.24477" lon="4.24868">
        <ele>793.71</ele>
        <time>2011-11-06T10:07:13Z</time>
      </trkpt>
      <trkpt lat="45.24471" lon="4.24857">
        <ele>792.74</ele>
        <time>2011-11-06T10:07:14Z</time>
      </trkpt>
      <trkpt lat="45.24464" lon="4.24847">
        <ele>792.26</ele>
        <time>2011-11-06T10:07:15Z</time>
      </trkpt>
      <trkpt lat="45.24456" lon="4.24838">
        <ele>791.3</ele>
        <time>2011-11-06T10:07:16Z</time>
      </trkpt>
      <trkpt lat="45.24427" lon="4.24803">
        <ele>788.42</ele>
        <time>2011-11-06T10:07:20Z</time>
      </trkpt>
      <trkpt lat="45.24421" lon="4.24792">
        <ele>787.94</ele>
        <time>2011-11-06T10:07:21Z</time>
      </trkpt>
      <trkpt lat="45.24416" lon="4.2478">
        <ele>786.98</ele>
        <time>2011-11-06T10:07:22Z</time>
      </trkpt>
      <trkpt lat="45.24412" lon="4.24766">
        <ele>786.02</ele>
        <time>2011-11-06T10:07:23Z</time>
      </trkpt>
      <trkpt lat="45.24409" lon="4.24751">
        <ele>785.05</ele>
        <time>2011-11-06T10:07:24Z</time>
      </trkpt>
      <trkpt lat="45.24394" lon="4.24598">
        <ele>778.81</ele>
        <time>2011-11-06T10:07:32Z</time>
      </trkpt>
      <trkpt lat="45.24382" lon="4.24543">
        <ele>776.4</ele>
        <time>2011-11-06T10:07:35Z</time>
      </trkpt>
      <trkpt lat="45.24376" lon="4.24528">
        <ele>775.92</ele>
        <time>2011-11-06T10:07:36Z</time>
      </trkpt>
      <trkpt lat="45.24367" lon="4.24515">
        <ele>775.44</ele>
        <time>2011-11-06T10:07:37Z</time>
      </trkpt>
      <trkpt lat="45.24358" lon="4.24505">
        <ele>774.48</ele>
        <time>2011-11-06T10:07:38Z</time>
      </trkpt>
      <trkpt lat="45.24349" lon="4.24496">
        <ele>774</ele>
        <time>2011-11-06T10:07:39Z</time>
      </trkpt>
      <trkpt lat="45.24331" lon="4.24478">
        <ele>773.04</ele>
        <time>2011-11-06T10:07:41Z</time>
      </trkpt>
      <trkpt lat="45.24283" lon="4.24431">
        <ele>771.11</ele>
        <time>2011-11-06T10:07:47Z</time>
      </trkpt>
      <trkpt lat="45.24221" lon="4.24346">
        <ele>770.15</ele>
        <time>2011-11-06T10:07:58Z</time>
      </trkpt>
      <trkpt lat="45.24165" lon="4.243">
        <ele>771.6</ele>
        <time>2011-11-06T10:08:09Z</time>
      </trkpt>
      <trkpt lat="45.24161" lon="4.24297">
        <ele>771.6</ele>
        <time>2011-11-06T10:08:10Z</time>
      </trkpt>
      <trkpt lat="45.24118" lon="4.24258">
        <ele>775.92</ele>
        <time>2011-11-06T10:08:23Z</time>
      </trkpt>
      <trkpt lat="45.24085" lon="4.24223">
        <ele>780.73</ele>
        <time>2011-11-06T10:08:35Z</time>
      </trkpt>
      <trkpt lat="45.2407" lon="4.24168">
        <ele>784.09</ele>
        <time>2011-11-06T10:08:47Z</time>
      </trkpt>
      <trkpt lat="45.24063" lon="4.24097">
        <ele>787.46</ele>
        <time>2011-11-06T10:09:01Z</time>
      </trkpt>
      <trkpt lat="45.2406" lon="4.24027">
        <ele>789.86</ele>
        <time>2011-11-06T10:09:15Z</time>
      </trkpt>
      <trkpt lat="45.24059" lon="4.23965">
        <ele>791.3</ele>
        <time>2011-11-06T10:09:27Z</time>
      </trkpt>
      <trkpt lat="45.24075" lon="4.23922">
        <ele>793.71</ele>
        <time>2011-11-06T10:09:37Z</time>
      </trkpt>
      <trkpt lat="45.24106" lon="4.23875">
        <ele>797.55</ele>
        <time>2011-11-06T10:09:50Z</time>
      </trkpt>
      <trkpt lat="45.24138" lon="4.23818">
        <ele>802.36</ele>
        <time>2011-11-06T10:10:04Z</time>
      </trkpt>
      <trkpt lat="45.24152" lon="4.23752">
        <ele>807.16</ele>
        <time>2011-11-06T10:10:17Z</time>
      </trkpt>
      <trkpt lat="45.24175" lon="4.2369">
        <ele>809.09</ele>
        <time>2011-11-06T10:10:29Z</time>
      </trkpt>
      <trkpt lat="45.24175" lon="4.23684">
        <ele>808.61</ele>
        <time>2011-11-06T10:10:30Z</time>
      </trkpt>
      <trkpt lat="45.24183" lon="4.23617">
        <ele>806.68</ele>
        <time>2011-11-06T10:10:43Z</time>
      </trkpt>
      <trkpt lat="45.242" lon="4.23551">
        <ele>807.16</ele>
        <time>2011-11-06T10:10:58Z</time>
      </trkpt>
      <trkpt lat="45.24204" lon="4.23532">
        <ele>809.09</ele>
        <time>2011-11-06T10:11:05Z</time>
      </trkpt>
      <trkpt lat="45.24202" lon="4.23529">
        <ele>809.09</ele>
        <time>2011-11-06T10:11:06Z</time>
      </trkpt>
      <trkpt lat="45.242" lon="4.23523">
        <ele>809.09</ele>
        <time>2011-11-06T10:11:07Z</time>
      </trkpt>
      <trkpt lat="45.24174" lon="4.23473">
        <ele>811.01</ele>
        <time>2011-11-06T10:11:18Z</time>
      </trkpt>
      <trkpt lat="45.24165" lon="4.23457">
        <ele>811.49</ele>
        <time>2011-11-06T10:11:21Z</time>
      </trkpt>
      <trkpt lat="45.24163" lon="4.23452">
        <ele>811.49</ele>
        <time>2011-11-06T10:11:22Z</time>
      </trkpt>
      <trkpt lat="45.2414" lon="4.23417">
        <ele>811.49</ele>
        <time>2011-11-06T10:11:29Z</time>
      </trkpt>
      <trkpt lat="45.24121" lon="4.23391">
        <ele>811.49</ele>
        <time>2011-11-06T10:11:34Z</time>
      </trkpt>
      <trkpt lat="45.24109" lon="4.23376">
        <ele>810.53</ele>
        <time>2011-11-06T10:11:37Z</time>
      </trkpt>
      <trkpt lat="45.24106" lon="4.23373">
        <ele>811.01</ele>
        <time>2011-11-06T10:11:38Z</time>
      </trkpt>
      <trkpt lat="45.24098" lon="4.23366">
        <ele>811.49</ele>
        <time>2011-11-06T10:11:40Z</time>
      </trkpt>
      <trkpt lat="45.24094" lon="4.23362">
        <ele>811.49</ele>
        <time>2011-11-06T10:11:41Z</time>
      </trkpt>
      <trkpt lat="45.24073" lon="4.23343">
        <ele>811.97</ele>
        <time>2011-11-06T10:11:46Z</time>
      </trkpt>
      <trkpt lat="45.24069" lon="4.23339">
        <ele>812.45</ele>
        <time>2011-11-06T10:11:47Z</time>
      </trkpt>
      <trkpt lat="45.24057" lon="4.23327">
        <ele>813.41</ele>
        <time>2011-11-06T10:11:50Z</time>
      </trkpt>
      <trkpt lat="45.24054" lon="4.23322">
        <ele>813.41</ele>
        <time>2011-11-06T10:11:51Z</time>
      </trkpt>
      <trkpt lat="45.24054" lon="4.23316">
        <ele>813.41</ele>
        <time>2011-11-06T10:11:52Z</time>
      </trkpt>
      <trkpt lat="45.24055" lon="4.2331">
        <ele>813.41</ele>
        <time>2011-11-06T10:11:53Z</time>
      </trkpt>
      <trkpt lat="45.24058" lon="4.23305">
        <ele>813.89</ele>
        <time>2011-11-06T10:11:54Z</time>
      </trkpt>
      <trkpt lat="45.24062" lon="4.23301">
        <ele>814.37</ele>
        <time>2011-11-06T10:11:55Z</time>
      </trkpt>
      <trkpt lat="45.24067" lon="4.23298">
        <ele>814.37</ele>
        <time>2011-11-06T10:11:56Z</time>
      </trkpt>
      <trkpt lat="45.24072" lon="4.23296">
        <ele>815.34</ele>
        <time>2011-11-06T10:11:57Z</time>
      </trkpt>
      <trkpt lat="45.24123" lon="4.23283">
        <ele>817.74</ele>
        <time>2011-11-06T10:12:08Z</time>
      </trkpt>
      <trkpt lat="45.24139" lon="4.23283">
        <ele>820.14</ele>
        <time>2011-11-06T10:12:12Z</time>
      </trkpt>
      <trkpt lat="45.24157" lon="4.23278">
        <ele>822.06</ele>
        <time>2011-11-06T10:12:17Z</time>
      </trkpt>
      <trkpt lat="45.2416" lon="4.23278">
        <ele>822.55</ele>
        <time>2011-11-06T10:12:18Z</time>
      </trkpt>
      <trkpt lat="45.24164" lon="4.23278">
        <ele>823.03</ele>
        <time>2011-11-06T10:12:19Z</time>
      </trkpt>
      <trkpt lat="45.24168" lon="4.23278">
        <ele>823.51</ele>
        <time>2011-11-06T10:12:20Z</time>
      </trkpt>
      <trkpt lat="45.24172" lon="4.23279">
        <ele>823.99</ele>
        <time>2011-11-06T10:12:21Z</time>
      </trkpt>
      <trkpt lat="45.24174" lon="4.2328">
        <ele>824.47</ele>
        <time>2011-11-06T10:12:22Z</time>
      </trkpt>
      <trkpt lat="45.24176" lon="4.23279">
        <ele>824.95</ele>
        <time>2011-11-06T10:12:23Z</time>
      </trkpt>
      <trkpt lat="45.24177" lon="4.23278">
        <ele>825.43</ele>
        <time>2011-11-06T10:12:24Z</time>
      </trkpt>
      <trkpt lat="45.24178" lon="4.23274">
        <ele>826.39</ele>
        <time>2011-11-06T10:12:25Z</time>
      </trkpt>
      <trkpt lat="45.24178" lon="4.2327">
        <ele>826.87</ele>
        <time>2011-11-06T10:12:26Z</time>
      </trkpt>
      <trkpt lat="45.24177" lon="4.23264">
        <ele>827.35</ele>
        <time>2011-11-06T10:12:27Z</time>
      </trkpt>
      <trkpt lat="45.24177" lon="4.23257">
        <ele>828.31</ele>
        <time>2011-11-06T10:12:28Z</time>
      </trkpt>
      <trkpt lat="45.24177" lon="4.2325">
        <ele>828.79</ele>
        <time>2011-11-06T10:12:29Z</time>
      </trkpt>
      <trkpt lat="45.24179" lon="4.23243">
        <ele>829.27</ele>
        <time>2011-11-06T10:12:30Z</time>
      </trkpt>
      <trkpt lat="45.24182" lon="4.23234">
        <ele>829.76</ele>
        <time>2011-11-06T10:12:31Z</time>
      </trkpt>
      <trkpt lat="45.24185" lon="4.23227">
        <ele>830.24</ele>
        <time>2011-11-06T10:12:32Z</time>
      </trkpt>
      <trkpt lat="45.24188" lon="4.23218">
        <ele>830.72</ele>
        <time>2011-11-06T10:12:33Z</time>
      </trkpt>
      <trkpt lat="45.24191" lon="4.23209">
        <ele>830.72</ele>
        <time>2011-11-06T10:12:34Z</time>
      </trkpt>
      <trkpt lat="45.24198" lon="4.23191">
        <ele>830.72</ele>
        <time>2011-11-06T10:12:36Z</time>
      </trkpt>
      <trkpt lat="45.24208" lon="4.23154">
        <ele>831.2</ele>
        <time>2011-11-06T10:12:39Z</time>
      </trkpt>
      <trkpt lat="45.2421" lon="4.23141">
        <ele>830.72</ele>
        <time>2011-11-06T10:12:40Z</time>
      </trkpt>
      <trkpt lat="45.24212" lon="4.23084">
        <ele>831.2</ele>
        <time>2011-11-06T10:12:44Z</time>
      </trkpt>
      <trkpt lat="45.24217" lon="4.23056">
        <ele>830.24</ele>
        <time>2011-11-06T10:12:46Z</time>
      </trkpt>
      <trkpt lat="45.24227" lon="4.2289">
        <ele>824.95</ele>
        <time>2011-11-06T10:12:57Z</time>
      </trkpt>
      <trkpt lat="45.24218" lon="4.22831">
        <ele>822.55</ele>
        <time>2011-11-06T10:13:01Z</time>
      </trkpt>
      <trkpt lat="45.24172" lon="4.22659">
        <ele>809.09</ele>
        <time>2011-11-06T10:13:13Z</time>
      </trkpt>
      <trkpt lat="45.24168" lon="4.22647">
        <ele>807.16</ele>
        <time>2011-11-06T10:13:14Z</time>
      </trkpt>
      <trkpt lat="45.24162" lon="4.22635">
        <ele>805.24</ele>
        <time>2011-11-06T10:13:15Z</time>
      </trkpt>
      <trkpt lat="45.24156" lon="4.22625">
        <ele>803.32</ele>
        <time>2011-11-06T10:13:16Z</time>
      </trkpt>
      <trkpt lat="45.24148" lon="4.22615">
        <ele>801.4</ele>
        <time>2011-11-06T10:13:17Z</time>
      </trkpt>
      <trkpt lat="45.24141" lon="4.22607">
        <ele>799.95</ele>
        <time>2011-11-06T10:13:18Z</time>
      </trkpt>
      <trkpt lat="45.2412" lon="4.22584">
        <ele>795.63</ele>
        <time>2011-11-06T10:13:21Z</time>
      </trkpt>
      <trkpt lat="45.24059" lon="4.22489">
        <ele>783.61</ele>
        <time>2011-11-06T10:13:30Z</time>
      </trkpt>
      <trkpt lat="45.23994" lon="4.22421">
        <ele>773.04</ele>
        <time>2011-11-06T10:13:37Z</time>
      </trkpt>
      <trkpt lat="45.23987" lon="4.22411">
        <ele>771.6</ele>
        <time>2011-11-06T10:13:38Z</time>
      </trkpt>
      <trkpt lat="45.23982" lon="4.224">
        <ele>770.63</ele>
        <time>2011-11-06T10:13:39Z</time>
      </trkpt>
      <trkpt lat="45.23979" lon="4.22388">
        <ele>769.19</ele>
        <time>2011-11-06T10:13:40Z</time>
      </trkpt>
      <trkpt lat="45.23976" lon="4.22376">
        <ele>768.23</ele>
        <time>2011-11-06T10:13:41Z</time>
      </trkpt>
      <trkpt lat="45.23962" lon="4.22295">
        <ele>760.54</ele>
        <time>2011-11-06T10:13:50Z</time>
      </trkpt>
      <trkpt lat="45.23961" lon="4.22288">
        <ele>760.06</ele>
        <time>2011-11-06T10:13:51Z</time>
      </trkpt>
      <trkpt lat="45.23959" lon="4.22282">
        <ele>759.58</ele>
        <time>2011-11-06T10:13:52Z</time>
      </trkpt>
      <trkpt lat="45.23957" lon="4.22276">
        <ele>759.1</ele>
        <time>2011-11-06T10:13:53Z</time>
      </trkpt>
      <trkpt lat="45.23956" lon="4.2227">
        <ele>758.62</ele>
        <time>2011-11-06T10:13:54Z</time>
      </trkpt>
      <trkpt lat="45.23954" lon="4.22264">
        <ele>758.14</ele>
        <time>2011-11-06T10:13:55Z</time>
      </trkpt>
      <trkpt lat="45.23953" lon="4.22257">
        <ele>757.18</ele>
        <time>2011-11-06T10:13:56Z</time>
      </trkpt>
      <trkpt lat="45.23951" lon="4.22251">
        <ele>756.69</ele>
        <time>2011-11-06T10:13:57Z</time>
      </trkpt>
      <trkpt lat="45.2395" lon="4.22246">
        <ele>755.73</ele>
        <time>2011-11-06T10:13:58Z</time>
      </trkpt>
      <trkpt lat="45.23944" lon="4.22192">
        <ele>749.97</ele>
        <time>2011-11-06T10:14:08Z</time>
      </trkpt>
      <trkpt lat="45.23942" lon="4.2218">
        <ele>749</ele>
        <time>2011-11-06T10:14:10Z</time>
      </trkpt>
      <trkpt lat="45.23941" lon="4.22173">
        <ele>748.52</ele>
        <time>2011-11-06T10:14:11Z</time>
      </trkpt>
      <trkpt lat="45.2394" lon="4.22168">
        <ele>748.52</ele>
        <time>2011-11-06T10:14:12Z</time>
      </trkpt>
      <trkpt lat="45.2394" lon="4.22161">
        <ele>748.04</ele>
        <time>2011-11-06T10:14:13Z</time>
      </trkpt>
      <trkpt lat="45.2394" lon="4.22155">
        <ele>748.04</ele>
        <time>2011-11-06T10:14:14Z</time>
      </trkpt>
      <trkpt lat="45.23939" lon="4.22149">
        <ele>748.04</ele>
        <time>2011-11-06T10:14:15Z</time>
      </trkpt>
      <trkpt lat="45.23938" lon="4.22144">
        <ele>748.52</ele>
        <time>2011-11-06T10:14:16Z</time>
      </trkpt>
      <trkpt lat="45.23938" lon="4.2214">
        <ele>748.52</ele>
        <time>2011-11-06T10:14:17Z</time>
      </trkpt>
      <trkpt lat="45.23936" lon="4.22138">
        <ele>748.52</ele>
        <time>2011-11-06T10:14:18Z</time>
      </trkpt>
      <trkpt lat="45.23935" lon="4.22136">
        <ele>748.52</ele>
        <time>2011-11-06T10:14:19Z</time>
      </trkpt>
      <trkpt lat="45.23933" lon="4.22134">
        <ele>749</ele>
        <time>2011-11-06T10:14:20Z</time>
      </trkpt>
      <trkpt lat="45.23932" lon="4.22132">
        <ele>749.49</ele>
        <time>2011-11-06T10:14:21Z</time>
      </trkpt>
      <trkpt lat="45.23932" lon="4.22129">
        <ele>749.49</ele>
        <time>2011-11-06T10:14:22Z</time>
      </trkpt>
      <trkpt lat="45.2393" lon="4.22126">
        <ele>749.97</ele>
        <time>2011-11-06T10:14:23Z</time>
      </trkpt>
      <trkpt lat="45.23928" lon="4.22123">
        <ele>749.97</ele>
        <time>2011-11-06T10:14:24Z</time>
      </trkpt>
      <trkpt lat="45.23921" lon="4.22105">
        <ele>752.37</ele>
        <time>2011-11-06T10:14:28Z</time>
      </trkpt>
      <trkpt lat="45.23899" lon="4.22074">
        <ele>752.85</ele>
        <time>2011-11-06T10:14:35Z</time>
      </trkpt>
      <trkpt lat="45.23891" lon="4.22066">
        <ele>753.33</ele>
        <time>2011-11-06T10:14:37Z</time>
      </trkpt>
      <trkpt lat="45.23871" lon="4.22048">
        <ele>753.81</ele>
        <time>2011-11-06T10:14:41Z</time>
      </trkpt>
      <trkpt lat="45.23851" lon="4.22026">
        <ele>754.29</ele>
        <time>2011-11-06T10:14:45Z</time>
      </trkpt>
      <trkpt lat="45.23845" lon="4.2202">
        <ele>753.81</ele>
        <time>2011-11-06T10:14:46Z</time>
      </trkpt>
      <trkpt lat="45.2384" lon="4.22013">
        <ele>753.81</ele>
        <time>2011-11-06T10:14:47Z</time>
      </trkpt>
      <trkpt lat="45.2378" lon="4.21912">
        <ele>754.29</ele>
        <time>2011-11-06T10:15:01Z</time>
      </trkpt>
      <trkpt lat="45.23772" lon="4.21898">
        <ele>755.25</ele>
        <time>2011-11-06T10:15:03Z</time>
      </trkpt>
      <trkpt lat="45.23763" lon="4.21876">
        <ele>755.25</ele>
        <time>2011-11-06T10:15:06Z</time>
      </trkpt>
      <trkpt lat="45.23761" lon="4.21868">
        <ele>755.25</ele>
        <time>2011-11-06T10:15:07Z</time>
      </trkpt>
      <trkpt lat="45.23758" lon="4.21843">
        <ele>755.73</ele>
        <time>2011-11-06T10:15:10Z</time>
      </trkpt>
      <trkpt lat="45.23756" lon="4.21829">
        <ele>756.21</ele>
        <time>2011-11-06T10:15:12Z</time>
      </trkpt>
      <trkpt lat="45.23755" lon="4.21817">
        <ele>756.69</ele>
        <time>2011-11-06T10:15:14Z</time>
      </trkpt>
      <trkpt lat="45.23755" lon="4.21811">
        <ele>757.18</ele>
        <time>2011-11-06T10:15:15Z</time>
      </trkpt>
      <trkpt lat="45.23754" lon="4.21805">
        <ele>757.18</ele>
        <time>2011-11-06T10:15:16Z</time>
      </trkpt>
      <trkpt lat="45.23754" lon="4.21799">
        <ele>757.18</ele>
        <time>2011-11-06T10:15:17Z</time>
      </trkpt>
      <trkpt lat="45.23753" lon="4.21793">
        <ele>757.66</ele>
        <time>2011-11-06T10:15:18Z</time>
      </trkpt>
      <trkpt lat="45.23753" lon="4.21788">
        <ele>757.66</ele>
        <time>2011-11-06T10:15:19Z</time>
      </trkpt>
      <trkpt lat="45.23747" lon="4.21715">
        <ele>763.42</ele>
        <time>2011-11-06T10:15:32Z</time>
      </trkpt>
      <trkpt lat="45.23747" lon="4.2171">
        <ele>763.9</ele>
        <time>2011-11-06T10:15:33Z</time>
      </trkpt>
      <trkpt lat="45.23748" lon="4.21678">
        <ele>765.83</ele>
        <time>2011-11-06T10:15:39Z</time>
      </trkpt>
      <trkpt lat="45.23753" lon="4.21663">
        <ele>767.27</ele>
        <time>2011-11-06T10:15:42Z</time>
      </trkpt>
      <trkpt lat="45.23786" lon="4.21597">
        <ele>772.56</ele>
        <time>2011-11-06T10:15:55Z</time>
      </trkpt>
      <trkpt lat="45.23788" lon="4.21592">
        <ele>773.04</ele>
        <time>2011-11-06T10:15:56Z</time>
      </trkpt>
      <trkpt lat="45.2379" lon="4.21587">
        <ele>773.52</ele>
        <time>2011-11-06T10:15:57Z</time>
      </trkpt>
      <trkpt lat="45.23792" lon="4.21582">
        <ele>774</ele>
        <time>2011-11-06T10:15:58Z</time>
      </trkpt>
      <trkpt lat="45.23801" lon="4.21563">
        <ele>775.92</ele>
        <time>2011-11-06T10:16:02Z</time>
      </trkpt>
      <trkpt lat="45.23802" lon="4.21557">
        <ele>776.4</ele>
        <time>2011-11-06T10:16:03Z</time>
      </trkpt>
      <trkpt lat="45.23803" lon="4.21551">
        <ele>776.4</ele>
        <time>2011-11-06T10:16:04Z</time>
      </trkpt>
      <trkpt lat="45.23803" lon="4.21545">
        <ele>777.36</ele>
        <time>2011-11-06T10:16:05Z</time>
      </trkpt>
      <trkpt lat="45.23803" lon="4.21539">
        <ele>777.36</ele>
        <time>2011-11-06T10:16:06Z</time>
      </trkpt>
      <trkpt lat="45.23803" lon="4.21532">
        <ele>777.84</ele>
        <time>2011-11-06T10:16:07Z</time>
      </trkpt>
      <trkpt lat="45.23804" lon="4.21416">
        <ele>782.17</ele>
        <time>2011-11-06T10:16:24Z</time>
      </trkpt>
      <trkpt lat="45.23804" lon="4.21396">
        <ele>782.65</ele>
        <time>2011-11-06T10:16:27Z</time>
      </trkpt>
      <trkpt lat="45.23805" lon="4.21382">
        <ele>783.13</ele>
        <time>2011-11-06T10:16:29Z</time>
      </trkpt>
      <trkpt lat="45.23806" lon="4.21376">
        <ele>783.13</ele>
        <time>2011-11-06T10:16:30Z</time>
      </trkpt>
      <trkpt lat="45.23806" lon="4.2136">
        <ele>783.13</ele>
        <time>2011-11-06T10:16:33Z</time>
      </trkpt>
      <trkpt lat="45.238" lon="4.21258">
        <ele>784.09</ele>
        <time>2011-11-06T10:16:48Z</time>
      </trkpt>
      <trkpt lat="45.23778" lon="4.21161">
        <ele>782.65</ele>
        <time>2011-11-06T10:17:02Z</time>
      </trkpt>
      <trkpt lat="45.23752" lon="4.21045">
        <ele>780.25</ele>
        <time>2011-11-06T10:17:16Z</time>
      </trkpt>
      <trkpt lat="45.23726" lon="4.20922">
        <ele>780.25</ele>
        <time>2011-11-06T10:17:30Z</time>
      </trkpt>
      <trkpt lat="45.23704" lon="4.20819">
        <ele>780.25</ele>
        <time>2011-11-06T10:17:42Z</time>
      </trkpt>
      <trkpt lat="45.23695" lon="4.20773">
        <ele>780.25</ele>
        <time>2011-11-06T10:17:48Z</time>
      </trkpt>
      <trkpt lat="45.23687" lon="4.2069">
        <ele>781.21</ele>
        <time>2011-11-06T10:17:58Z</time>
      </trkpt>
      <trkpt lat="45.23684" lon="4.20681">
        <ele>780.73</ele>
        <time>2011-11-06T10:17:59Z</time>
      </trkpt>
      <trkpt lat="45.23668" lon="4.20562">
        <ele>775.92</ele>
        <time>2011-11-06T10:18:09Z</time>
      </trkpt>
      <trkpt lat="45.23636" lon="4.20392">
        <ele>766.31</ele>
        <time>2011-11-06T10:18:20Z</time>
      </trkpt>
      <trkpt lat="45.23632" lon="4.20378">
        <ele>765.83</ele>
        <time>2011-11-06T10:18:21Z</time>
      </trkpt>
      <trkpt lat="45.23631" lon="4.20364">
        <ele>764.87</ele>
        <time>2011-11-06T10:18:22Z</time>
      </trkpt>
      <trkpt lat="45.23632" lon="4.20351">
        <ele>764.39</ele>
        <time>2011-11-06T10:18:23Z</time>
      </trkpt>
      <trkpt lat="45.23631" lon="4.2027">
        <ele>761.98</ele>
        <time>2011-11-06T10:18:30Z</time>
      </trkpt>
      <trkpt lat="45.23629" lon="4.2026">
        <ele>761.98</ele>
        <time>2011-11-06T10:18:31Z</time>
      </trkpt>
      <trkpt lat="45.23617" lon="4.20209">
        <ele>761.5</ele>
        <time>2011-11-06T10:18:37Z</time>
      </trkpt>
      <trkpt lat="45.23616" lon="4.20202">
        <ele>761.5</ele>
        <time>2011-11-06T10:18:38Z</time>
      </trkpt>
      <trkpt lat="45.23616" lon="4.20196">
        <ele>761.5</ele>
        <time>2011-11-06T10:18:39Z</time>
      </trkpt>
      <trkpt lat="45.23617" lon="4.20191">
        <ele>761.5</ele>
        <time>2011-11-06T10:18:40Z</time>
      </trkpt>
      <trkpt lat="45.23618" lon="4.20187">
        <ele>761.5</ele>
        <time>2011-11-06T10:18:41Z</time>
      </trkpt>
      <trkpt lat="45.2363" lon="4.20143">
        <ele>757.66</ele>
        <time>2011-11-06T10:18:52Z</time>
      </trkpt>
      <trkpt lat="45.23642" lon="4.20094">
        <ele>755.73</ele>
        <time>2011-11-06T10:19:04Z</time>
      </trkpt>
      <trkpt lat="45.23651" lon="4.20044">
        <ele>755.73</ele>
        <time>2011-11-06T10:19:17Z</time>
      </trkpt>
      <trkpt lat="45.2366" lon="4.20016">
        <ele>759.1</ele>
        <time>2011-11-06T10:19:29Z</time>
      </trkpt>
      <trkpt lat="45.23674" lon="4.19988">
        <ele>761.5</ele>
        <time>2011-11-06T10:19:43Z</time>
      </trkpt>
      <trkpt lat="45.23698" lon="4.19973">
        <ele>762.46</ele>
        <time>2011-11-06T10:19:52Z</time>
      </trkpt>
      <trkpt lat="45.237" lon="4.19971">
        <ele>762.46</ele>
        <time>2011-11-06T10:19:53Z</time>
      </trkpt>
      <trkpt lat="45.23706" lon="4.19963">
        <ele>762.46</ele>
        <time>2011-11-06T10:19:56Z</time>
      </trkpt>
      <trkpt lat="45.23708" lon="4.19961">
        <ele>761.98</ele>
        <time>2011-11-06T10:19:57Z</time>
      </trkpt>
      <trkpt lat="45.23733" lon="4.19933">
        <ele>762.94</ele>
        <time>2011-11-06T10:20:08Z</time>
      </trkpt>
      <trkpt lat="45.23753" lon="4.19906">
        <ele>762.46</ele>
        <time>2011-11-06T10:20:17Z</time>
      </trkpt>
      <trkpt lat="45.23772" lon="4.19854">
        <ele>765.35</ele>
        <time>2011-11-06T10:20:28Z</time>
      </trkpt>
      <trkpt lat="45.23789" lon="4.19817">
        <ele>766.79</ele>
        <time>2011-11-06T10:20:39Z</time>
      </trkpt>
      <trkpt lat="45.23796" lon="4.19805">
        <ele>766.79</ele>
        <time>2011-11-06T10:20:44Z</time>
      </trkpt>
      <trkpt lat="45.23803" lon="4.19764">
        <ele>766.79</ele>
        <time>2011-11-06T10:20:53Z</time>
      </trkpt>
      <trkpt lat="45.23834" lon="4.19701">
        <ele>768.71</ele>
        <time>2011-11-06T10:21:07Z</time>
      </trkpt>
      <trkpt lat="45.2387" lon="4.19676">
        <ele>770.15</ele>
        <time>2011-11-06T10:21:15Z</time>
      </trkpt>
      <trkpt lat="45.23874" lon="4.19674">
        <ele>770.15</ele>
        <time>2011-11-06T10:21:16Z</time>
      </trkpt>
      <trkpt lat="45.23996" lon="4.19618">
        <ele>761.98</ele>
        <time>2011-11-06T10:21:27Z</time>
      </trkpt>
      <trkpt lat="45.24072" lon="4.1962">
        <ele>749.49</ele>
        <time>2011-11-06T10:21:39Z</time>
      </trkpt>
      <trkpt lat="45.24077" lon="4.1961">
        <ele>752.85</ele>
        <time>2011-11-06T10:21:40Z</time>
      </trkpt>
      <trkpt lat="45.2408" lon="4.19601">
        <ele>754.77</ele>
        <time>2011-11-06T10:21:41Z</time>
      </trkpt>
      <trkpt lat="45.24083" lon="4.19593">
        <ele>755.73</ele>
        <time>2011-11-06T10:21:42Z</time>
      </trkpt>
      <trkpt lat="45.24085" lon="4.19584">
        <ele>756.69</ele>
        <time>2011-11-06T10:21:43Z</time>
      </trkpt>
      <trkpt lat="45.24086" lon="4.19574">
        <ele>757.18</ele>
        <time>2011-11-06T10:21:44Z</time>
      </trkpt>
      <trkpt lat="45.24087" lon="4.19564">
        <ele>757.66</ele>
        <time>2011-11-06T10:21:45Z</time>
      </trkpt>
      <trkpt lat="45.24085" lon="4.19554">
        <ele>757.18</ele>
        <time>2011-11-06T10:21:46Z</time>
      </trkpt>
      <trkpt lat="45.24082" lon="4.19546">
        <ele>756.21</ele>
        <time>2011-11-06T10:21:47Z</time>
      </trkpt>
      <trkpt lat="45.24077" lon="4.19539">
        <ele>754.29</ele>
        <time>2011-11-06T10:21:48Z</time>
      </trkpt>
      <trkpt lat="45.24071" lon="4.19532">
        <ele>750.93</ele>
        <time>2011-11-06T10:21:49Z</time>
      </trkpt>
      <trkpt lat="45.24066" lon="4.19526">
        <ele>749</ele>
        <time>2011-11-06T10:21:50Z</time>
      </trkpt>
      <trkpt lat="45.24056" lon="4.19519">
        <ele>746.12</ele>
        <time>2011-11-06T10:21:52Z</time>
      </trkpt>
      <trkpt lat="45.24023" lon="4.19501">
        <ele>742.28</ele>
        <time>2011-11-06T10:22:03Z</time>
      </trkpt>
      <trkpt lat="45.24011" lon="4.1949">
        <ele>742.28</ele>
        <time>2011-11-06T10:22:07Z</time>
      </trkpt>
      <trkpt lat="45.2401" lon="4.19484">
        <ele>742.28</ele>
        <time>2011-11-06T10:22:08Z</time>
      </trkpt>
      <trkpt lat="45.23995" lon="4.19427">
        <ele>744.68</ele>
        <time>2011-11-06T10:22:20Z</time>
      </trkpt>
      <trkpt lat="45.23981" lon="4.19379">
        <ele>746.6</ele>
        <time>2011-11-06T10:22:30Z</time>
      </trkpt>
      <trkpt lat="45.23974" lon="4.1934">
        <ele>748.04</ele>
        <time>2011-11-06T10:22:37Z</time>
      </trkpt>
      <trkpt lat="45.2396" lon="4.19264">
        <ele>750.93</ele>
        <time>2011-11-06T10:22:50Z</time>
      </trkpt>
      <trkpt lat="45.23958" lon="4.19258">
        <ele>751.41</ele>
        <time>2011-11-06T10:22:51Z</time>
      </trkpt>
      <trkpt lat="45.23951" lon="4.19227">
        <ele>752.37</ele>
        <time>2011-11-06T10:22:56Z</time>
      </trkpt>
      <trkpt lat="45.23939" lon="4.19194">
        <ele>753.81</ele>
        <time>2011-11-06T10:23:02Z</time>
      </trkpt>
      <trkpt lat="45.23935" lon="4.19189">
        <ele>753.81</ele>
        <time>2011-11-06T10:23:03Z</time>
      </trkpt>
      <trkpt lat="45.23929" lon="4.1918">
        <ele>754.29</ele>
        <time>2011-11-06T10:23:05Z</time>
      </trkpt>
      <trkpt lat="45.23907" lon="4.1915">
        <ele>754.29</ele>
        <time>2011-11-06T10:23:14Z</time>
      </trkpt>
      <trkpt lat="45.23905" lon="4.19146">
        <ele>754.29</ele>
        <time>2011-11-06T10:23:15Z</time>
      </trkpt>
      <trkpt lat="45.23888" lon="4.19112">
        <ele>752.37</ele>
        <time>2011-11-06T10:23:26Z</time>
      </trkpt>
      <trkpt lat="45.23871" lon="4.19073">
        <ele>750.93</ele>
        <time>2011-11-06T10:23:38Z</time>
      </trkpt>
      <trkpt lat="45.23862" lon="4.19056">
        <ele>750.93</ele>
        <time>2011-11-06T10:23:42Z</time>
      </trkpt>
      <trkpt lat="45.23855" lon="4.19039">
        <ele>750.45</ele>
        <time>2011-11-06T10:23:45Z</time>
      </trkpt>
      <trkpt lat="45.23846" lon="4.19022">
        <ele>749.49</ele>
        <time>2011-11-06T10:23:48Z</time>
      </trkpt>
      <trkpt lat="45.23843" lon="4.19016">
        <ele>749.49</ele>
        <time>2011-11-06T10:23:49Z</time>
      </trkpt>
      <trkpt lat="45.23831" lon="4.18978">
        <ele>748.52</ele>
        <time>2011-11-06T10:23:55Z</time>
      </trkpt>
      <trkpt lat="45.23829" lon="4.18972">
        <ele>748.04</ele>
        <time>2011-11-06T10:23:56Z</time>
      </trkpt>
      <trkpt lat="45.23828" lon="4.18966">
        <ele>748.04</ele>
        <time>2011-11-06T10:23:57Z</time>
      </trkpt>
      <trkpt lat="45.23827" lon="4.1896">
        <ele>748.52</ele>
        <time>2011-11-06T10:23:58Z</time>
      </trkpt>
      <trkpt lat="45.23825" lon="4.18955">
        <ele>748.52</ele>
        <time>2011-11-06T10:23:59Z</time>
      </trkpt>
      <trkpt lat="45.23824" lon="4.18949">
        <ele>748.52</ele>
        <time>2011-11-06T10:24:00Z</time>
      </trkpt>
      <trkpt lat="45.23821" lon="4.18945">
        <ele>748.52</ele>
        <time>2011-11-06T10:24:01Z</time>
      </trkpt>
      <trkpt lat="45.23819" lon="4.18941">
        <ele>748.52</ele>
        <time>2011-11-06T10:24:02Z</time>
      </trkpt>
      <trkpt lat="45.23815" lon="4.18938">
        <ele>748.52</ele>
        <time>2011-11-06T10:24:03Z</time>
      </trkpt>
      <trkpt lat="45.23812" lon="4.18934">
        <ele>748.52</ele>
        <time>2011-11-06T10:24:04Z</time>
      </trkpt>
      <trkpt lat="45.23808" lon="4.1893">
        <ele>748.04</ele>
        <time>2011-11-06T10:24:05Z</time>
      </trkpt>
      <trkpt lat="45.23805" lon="4.18925">
        <ele>748.04</ele>
        <time>2011-11-06T10:24:06Z</time>
      </trkpt>
      <trkpt lat="45.23803" lon="4.1892">
        <ele>748.04</ele>
        <time>2011-11-06T10:24:07Z</time>
      </trkpt>
      <trkpt lat="45.238" lon="4.18914">
        <ele>748.04</ele>
        <time>2011-11-06T10:24:08Z</time>
      </trkpt>
      <trkpt lat="45.23798" lon="4.18909">
        <ele>748.04</ele>
        <time>2011-11-06T10:24:09Z</time>
      </trkpt>
      <trkpt lat="45.23796" lon="4.18903">
        <ele>748.04</ele>
        <time>2011-11-06T10:24:10Z</time>
      </trkpt>
      <trkpt lat="45.23794" lon="4.18898">
        <ele>748.04</ele>
        <time>2011-11-06T10:24:11Z</time>
      </trkpt>
      <trkpt lat="45.23792" lon="4.18892">
        <ele>748.52</ele>
        <time>2011-11-06T10:24:12Z</time>
      </trkpt>
      <trkpt lat="45.2379" lon="4.18886">
        <ele>748.52</ele>
        <time>2011-11-06T10:24:13Z</time>
      </trkpt>
      <trkpt lat="45.23787" lon="4.1888">
        <ele>748.52</ele>
        <time>2011-11-06T10:24:14Z</time>
      </trkpt>
      <trkpt lat="45.2378" lon="4.18863">
        <ele>749</ele>
        <time>2011-11-06T10:24:17Z</time>
      </trkpt>
      <trkpt lat="45.23778" lon="4.18857">
        <ele>749.49</ele>
        <time>2011-11-06T10:24:18Z</time>
      </trkpt>
      <trkpt lat="45.23776" lon="4.18851">
        <ele>749.49</ele>
        <time>2011-11-06T10:24:19Z</time>
      </trkpt>
      <trkpt lat="45.23774" lon="4.18844">
        <ele>749.49</ele>
        <time>2011-11-06T10:24:20Z</time>
      </trkpt>
      <trkpt lat="45.23771" lon="4.18838">
        <ele>749.97</ele>
        <time>2011-11-06T10:24:21Z</time>
      </trkpt>
      <trkpt lat="45.23768" lon="4.18832">
        <ele>749.97</ele>
        <time>2011-11-06T10:24:22Z</time>
      </trkpt>
      <trkpt lat="45.2372" lon="4.18761">
        <ele>750.93</ele>
        <time>2011-11-06T10:24:35Z</time>
      </trkpt>
      <trkpt lat="45.23715" lon="4.18749">
        <ele>751.41</ele>
        <time>2011-11-06T10:24:37Z</time>
      </trkpt>
      <trkpt lat="45.23712" lon="4.18742">
        <ele>751.41</ele>
        <time>2011-11-06T10:24:38Z</time>
      </trkpt>
      <trkpt lat="45.23709" lon="4.18736">
        <ele>751.89</ele>
        <time>2011-11-06T10:24:39Z</time>
      </trkpt>
      <trkpt lat="45.23707" lon="4.18729">
        <ele>751.89</ele>
        <time>2011-11-06T10:24:40Z</time>
      </trkpt>
      <trkpt lat="45.23707" lon="4.18722">
        <ele>752.85</ele>
        <time>2011-11-06T10:24:41Z</time>
      </trkpt>
      <trkpt lat="45.23706" lon="4.18715">
        <ele>752.85</ele>
        <time>2011-11-06T10:24:42Z</time>
      </trkpt>
      <trkpt lat="45.23705" lon="4.1867">
        <ele>755.25</ele>
        <time>2011-11-06T10:24:48Z</time>
      </trkpt>
      <trkpt lat="45.23703" lon="4.18655">
        <ele>756.21</ele>
        <time>2011-11-06T10:24:50Z</time>
      </trkpt>
      <trkpt lat="45.23692" lon="4.18612">
        <ele>757.18</ele>
        <time>2011-11-06T10:24:56Z</time>
      </trkpt>
      <trkpt lat="45.23687" lon="4.18601">
        <ele>757.18</ele>
        <time>2011-11-06T10:24:58Z</time>
      </trkpt>
      <trkpt lat="45.23683" lon="4.18597">
        <ele>757.18</ele>
        <time>2011-11-06T10:24:59Z</time>
      </trkpt>
      <trkpt lat="45.23679" lon="4.18596">
        <ele>757.18</ele>
        <time>2011-11-06T10:25:00Z</time>
      </trkpt>
      <trkpt lat="45.23673" lon="4.18597">
        <ele>756.69</ele>
        <time>2011-11-06T10:25:01Z</time>
      </trkpt>
      <trkpt lat="45.23668" lon="4.18599">
        <ele>756.69</ele>
        <time>2011-11-06T10:25:02Z</time>
      </trkpt>
      <trkpt lat="45.23664" lon="4.18603">
        <ele>756.69</ele>
        <time>2011-11-06T10:25:03Z</time>
      </trkpt>
      <trkpt lat="45.23649" lon="4.18616">
        <ele>756.69</ele>
        <time>2011-11-06T10:25:07Z</time>
      </trkpt>
      <trkpt lat="45.23646" lon="4.1862">
        <ele>756.69</ele>
        <time>2011-11-06T10:25:08Z</time>
      </trkpt>
      <trkpt lat="45.23643" lon="4.18625">
        <ele>756.69</ele>
        <time>2011-11-06T10:25:09Z</time>
      </trkpt>
      <trkpt lat="45.23639" lon="4.1863">
        <ele>755.73</ele>
        <time>2011-11-06T10:25:10Z</time>
      </trkpt>
      <trkpt lat="45.23635" lon="4.18634">
        <ele>754.77</ele>
        <time>2011-11-06T10:25:11Z</time>
      </trkpt>
      <trkpt lat="45.23631" lon="4.18638">
        <ele>753.81</ele>
        <time>2011-11-06T10:25:12Z</time>
      </trkpt>
      <trkpt lat="45.23627" lon="4.18641">
        <ele>753.33</ele>
        <time>2011-11-06T10:25:13Z</time>
      </trkpt>
      <trkpt lat="45.23601" lon="4.18657">
        <ele>749</ele>
        <time>2011-11-06T10:25:20Z</time>
      </trkpt>
      <trkpt lat="45.23597" lon="4.18658">
        <ele>748.04</ele>
        <time>2011-11-06T10:25:21Z</time>
      </trkpt>
      <trkpt lat="45.23592" lon="4.18659">
        <ele>747.56</ele>
        <time>2011-11-06T10:25:22Z</time>
      </trkpt>
      <trkpt lat="45.23578" lon="4.18661">
        <ele>746.12</ele>
        <time>2011-11-06T10:25:25Z</time>
      </trkpt>
      <trkpt lat="45.23572" lon="4.1866">
        <ele>745.64</ele>
        <time>2011-11-06T10:25:26Z</time>
      </trkpt>
      <trkpt lat="45.23566" lon="4.18659">
        <ele>745.64</ele>
        <time>2011-11-06T10:25:27Z</time>
      </trkpt>
      <trkpt lat="45.2356" lon="4.18656">
        <ele>745.16</ele>
        <time>2011-11-06T10:25:28Z</time>
      </trkpt>
      <trkpt lat="45.23554" lon="4.18653">
        <ele>745.16</ele>
        <time>2011-11-06T10:25:29Z</time>
      </trkpt>
      <trkpt lat="45.23547" lon="4.1865">
        <ele>744.68</ele>
        <time>2011-11-06T10:25:30Z</time>
      </trkpt>
      <trkpt lat="45.23541" lon="4.18645">
        <ele>744.68</ele>
        <time>2011-11-06T10:25:31Z</time>
      </trkpt>
      <trkpt lat="45.23535" lon="4.18639">
        <ele>744.68</ele>
        <time>2011-11-06T10:25:32Z</time>
      </trkpt>
      <trkpt lat="45.2353" lon="4.18635">
        <ele>744.2</ele>
        <time>2011-11-06T10:25:33Z</time>
      </trkpt>
      <trkpt lat="45.23525" lon="4.18633">
        <ele>743.72</ele>
        <time>2011-11-06T10:25:34Z</time>
      </trkpt>
      <trkpt lat="45.2352" lon="4.18633">
        <ele>743.72</ele>
        <time>2011-11-06T10:25:35Z</time>
      </trkpt>
      <trkpt lat="45.23515" lon="4.18634">
        <ele>743.72</ele>
        <time>2011-11-06T10:25:36Z</time>
      </trkpt>
      <trkpt lat="45.2351" lon="4.18632">
        <ele>743.72</ele>
        <time>2011-11-06T10:25:37Z</time>
      </trkpt>
      <trkpt lat="45.23506" lon="4.18627">
        <ele>743.72</ele>
        <time>2011-11-06T10:25:38Z</time>
      </trkpt>
      <trkpt lat="45.23502" lon="4.1862">
        <ele>743.72</ele>
        <time>2011-11-06T10:25:39Z</time>
      </trkpt>
      <trkpt lat="45.23475" lon="4.18565">
        <ele>739.87</ele>
        <time>2011-11-06T10:25:47Z</time>
      </trkpt>
      <trkpt lat="45.23441" lon="4.18492">
        <ele>734.1</ele>
        <time>2011-11-06T10:25:59Z</time>
      </trkpt>
      <trkpt lat="45.23438" lon="4.18486">
        <ele>734.1</ele>
        <time>2011-11-06T10:26:00Z</time>
      </trkpt>
      <trkpt lat="45.23426" lon="4.18416">
        <ele>733.14</ele>
        <time>2011-11-06T10:26:13Z</time>
      </trkpt>
      <trkpt lat="45.23445" lon="4.18381">
        <ele>735.07</ele>
        <time>2011-11-06T10:26:24Z</time>
      </trkpt>
      <trkpt lat="45.23449" lon="4.18371">
        <ele>736.03</ele>
        <time>2011-11-06T10:26:33Z</time>
      </trkpt>
      <trkpt lat="45.2345" lon="4.18371">
        <ele>736.03</ele>
        <time>2011-11-06T10:26:54Z</time>
      </trkpt>
      <trkpt lat="45.23455" lon="4.18364">
        <ele>733.14</ele>
        <time>2011-11-06T10:27:14Z</time>
      </trkpt>
      <trkpt lat="45.23458" lon="4.18368">
        <ele>731.22</ele>
        <time>2011-11-06T10:27:33Z</time>
      </trkpt>
      <trkpt lat="45.23448" lon="4.1837">
        <ele>730.26</ele>
        <time>2011-11-06T10:27:53Z</time>
      </trkpt>
      <trkpt lat="45.23445" lon="4.18341">
        <ele>731.7</ele>
        <time>2011-11-06T10:28:15Z</time>
      </trkpt>
      <trkpt lat="45.2345" lon="4.18361">
        <ele>733.62</ele>
        <time>2011-11-06T10:28:35Z</time>
      </trkpt>
      <trkpt lat="45.23454" lon="4.18362">
        <ele>735.07</ele>
        <time>2011-11-06T10:28:47Z</time>
      </trkpt>
    </trkseg>
  </trk>
</gpx>